[[{"header":{"parameterUnit":"m.s-1","parameterCategory":1,"la1":31.0,"la2":29.5877,"lo1":-88.7671,"lo2":-86.6584,"dx":0.0162,"dy":0.0185,"nx":115,"ny":88,"refTime":"2022-11-21T18:00:00:Z","depth":0,"parameterNumber":2,"parameterNumberName":"U-component_of_WINDS"},"data":[0.0,0.0,0.0,0.0,0.0,0.0,0.0,0.0,0.0,0.0,0.0,0.0,0.0,0.0,0.0,0.0,0.0,0.0,0.0,0.0,0.0,0.0,0.0,0.0,0.0,0.0,0.0,0.0,0.0,0.0,0.0,0.0,0.0,0.0,0.0,0.0,0.0,0.0,0.0,0.0,0.0,0.0,0.0,0.0,0.0,0.0,0.0,0.0,0.0,0.0,0.0,0.0,0.0,0.0,0.0,0.0,0.0,0.0,0.0,0.0,0.0,0.0,0.0,0.0,0.0,0.0,0.0,0.0,0.0,0.0,0.0,0.0,0.0,0.0,0.0,0.0,0.0,0.0,0.0,0.0,0.0,0.0,0.0,0.0,0.0,0.0,0.0,0.0,0.0,0.0,0.0,0.0,0.0,0.0,0.0,0.0,0.0,0.0,0.0,0.0,0.0,0.0,0.0,0.0,0.0,0.0,0.0,0.0,0.0,0.0,0.0,0.0,0.0,0.0,0.0,0.0,0.0,0.0,0.0,0.0,0.0,0.0,0.0,0.0,0.0,0.0,0.0,0.0,0.0,0.0,0.0,0.0,0.0,0.0,0.0,0.0,0.0,0.0,0.0,0.0,0.0,0.0,0.0,0.0,0.0,0.0,0.0,0.0,0.0,0.0,0.0,0.0,0.0,0.0,0.0,0.0,0.0,0.0,0.0,0.0,0.0,0.0,0.0,0.0,0.0,0.0,0.0,0.0,0.0,0.0,0.0,0.0,0.0,0.0,0.0,0.0,0.0,0.0,0.0,0.0,0.0,0.0,0.0,0.0,0.0,0.0,0.0,0.0,0.0,0.0,0.0,0.0,0.0,0.0,0.0,0.0,0.0,0.0,0.0,0.0,0.0,0.0,0.0,0.0,0.0,0.0,0.0,0.0,0.0,0.0,0.0,0.0,0.0,0.0,0.0,0.0,0.0,0.0,0.0,0.0,0.0,0.0,0.0,0.0,0.0,0.0,0.0,0.0,0.0,0.0,0.0,0.0,0.0,0.0,0.0,0.0,0.0,0.0,0.0,0.0,0.0,0.0,0.0,0.0,0.0,0.0,0.0,0.0,0.0,0.0,0.0,0.0,0.0,0.0,0.0,0.0,0.0,0.0,0.0,0.0,0.0,0.0,0.0,0.0,0.0,0.0,0.0,0.0,0.0,0.0,0.0,0.0,0.0,0.0,0.0,0.0,0.0,0.0,0.0,0.0,0.0,0.0,0.0,0.0,0.0,0.0,0.0,0.0,0.0,0.0,0.0,0.0,0.0,0.0,0.0,0.0,0.0,0.0,0.0,0.0,0.0,0.0,0.0,0.0,0.0,0.0,0.0,0.0,0.0,0.0,0.0,0.0,0.0,0.0,0.0,0.0,0.0,0.0,0.0,0.0,0.0,0.0,0.0,0.0,0.0,0.0,0.0,0.0,0.0,0.0,0.0,0.0,0.0,0.0,0.0,0.0,0.0,0.0,0.0,0.0,0.0,0.0,0.0,0.0,0.0,0.0,0.0,0.0,0.0,0.0,0.0,0.0,0.0,0.0,0.0,0.0,0.0,0.0,0.0,0.0,0.0,0.0,0.0,0.0,0.0,0.0,0.0,0.0,0.0,0.0,0.0,0.0,0.0,0.0,0.0,0.0,0.0,0.0,0.0,0.0,0.0,0.0,0.0,0.0,0.0,0.0,0.0,0.0,0.0,0.0,0.0,0.0,0.0,0.0,0.0,0.0,0.0,0.0,0.0,0.0,0.0,0.0,0.0,0.0,0.0,0.0,0.0,0.0,0.0,0.0,0.0,0.0,0.0,0.0,0.0,0.0,0.0,0.0,0.0,0.0,0.0,0.0,0.0,0.0,0.0,0.0,0.0,0.0,0.0,0.0,0.0,0.0,0.0,0.0,0.0,0.0,0.0,0.0,0.0,0.0,0.0,0.0,0.0,0.0,0.0,0.0,0.0,0.0,0.0,0.0,0.0,0.0,0.0,0.0,0.0,0.0,0.0,0.0,0.0,0.0,0.0,0.0,0.0,0.0,0.0,0.0,0.0,0.0,0.0,0.0,0.0,0.0,0.0,0.0,0.0,0.0,0.0,0.0,0.0,0.0,0.0,0.0,0.0,0.0,0.0,0.0,0.0,0.0,0.0,0.0,0.0,0.0,0.0,0.0,0.0,0.0,0.0,0.0,0.0,0.0,0.0,0.0,0.0,0.0,0.0,0.0,0.0,0.0,0.0,0.0,0.0,0.0,0.0,0.0,0.0,0.0,0.0,0.0,0.0,0.0,0.0,0.0,0.0,0.0,0.0,0.0,0.0,0.0,0.0,0.0,0.0,0.0,0.0,0.0,0.0,0.0,0.0,0.0,0.0,0.0,0.0,0.0,0.0,0.0,0.0,0.0,0.0,0.0,0.0,0.0,0.0,0.0,0.0,0.0,0.0,0.0,0.0,0.0,0.0,0.0,0.0,0.0,0.0,0.0,0.0,0.0,0.0,0.0,0.0,0.0,0.0,0.0,0.0,0.0,0.0,0.0,0.0,0.0,0.0,0.0,0.0,0.0,0.0,0.0,0.0,0.0,0.0,0.0,0.0,0.0,0.0,0.0,0.0,0.0,0.0,0.0,0.0,0.0,0.0,0.0,0.0,0.0,0.0,0.0,0.0,0.0,0.0,0.0,0.0,0.0,0.0,0.0,0.0,0.0,0.0,0.0,0.0,0.0,0.0,0.0,0.0,0.0,0.0,0.0,0.0,0.0,0.0,0.0,0.0,0.0,0.0,0.0,0.0,0.0,0.0,0.0,0.0,0.0,0.0,0.0,0.0,0.0,0.0,0.0,0.0,0.0,0.0,0.0,0.0,0.0,0.0,0.0,0.0,0.0,0.0,0.0,0.0,0.0,0.0,0.0,0.0,0.0,0.0,0.0,0.0,0.0,0.0,0.0,0.0,0.0,0.0,0.0,0.0,0.0,0.0,0.0,0.0,0.0,0.0,0.0,0.0,0.0,0.0,0.0,0.0,0.0,0.0,0.0,0.0,0.0,0.0,0.0,0.0,0.0,0.0,0.0,0.0,0.0,0.0,0.0,0.0,0.0,0.0,0.0,0.0,0.0,0.0,0.0,0.0,0.0,0.0,0.0,0.0,0.0,0.0,0.0,0.0,0.0,0.0,0.0,0.0,0.0,0.0,0.0,0.0,0.0,0.0,0.0,0.0,0.0,0.0,0.0,0.0,0.0,0.0,0.0,0.0,0.0,0.0,0.0,0.0,0.0,0.0,0.0,0.0,0.0,0.0,0.0,0.0,0.0,0.0,0.0,0.0,0.0,0.0,0.0,0.0,0.0,0.0,0.0,0.0,0.0,0.0,0.0,0.0,0.0,0.0,0.0,0.0,0.0,0.0,0.0,0.0,0.0,0.0,0.0,0.0,0.0,0.0,0.0,0.0,0.0,0.0,0.0,0.0,0.0,0.0,0.0,0.0,0.0,0.0,0.0,0.0,0.0,0.0,0.0,0.0,0.0,0.0,0.0,0.0,0.0,0.0,0.0,0.0,0.0,0.0,0.0,0.0,0.0,0.0,0.0,0.0,0.0,0.0,0.0,0.0,0.0,0.0,0.0,0.0,0.0,0.0,0.0,0.0,0.0,0.0,0.0,0.0,0.0,0.0,0.0,0.0,0.0,0.0,0.0,0.0,0.0,0.0,0.0,0.0,0.0,0.0,0.0,0.0,0.0,0.0,0.0,0.0,0.0,0.0,0.0,0.0,0.0,0.0,0.0,0.0,0.0,0.0,0.0,0.0,0.0,0.0,0.0,0.0,0.0,0.0,0.0,0.0,0.0,0.0,0.0,0.0,0.0,0.0,0.0,0.0,0.0,0.0,0.0,0.0,0.0,0.0,0.0,0.0,0.0,0.0,0.0,0.0,0.0,0.0,0.0,0.0,0.0,0.0,0.0,0.0,0.0,0.0,0.0,0.0,0.0,0.0,0.0,0.0,0.0,0.0,0.0,0.0,0.0,0.0,0.0,0.0,0.0,0.0,0.0,0.0,0.0,0.0,0.0,0.0,0.0,0.0,0.0,0.0,0.0,0.0,0.0,0.0,0.0,0.0,0.0,0.0,0.0,0.0,0.0,0.0,0.0,0.0,0.0,0.0,0.0,0.0,0.0,0.0,0.0,0.0,0.0,0.0,0.0,0.0,0.0,0.0,0.0,0.0,0.0,0.0,0.0,0.0,0.0,0.0,0.0,2.5923,0.0,0.0,0.0,2.1979,0.0,0.0,0.0,0.0,0.0,0.0,0.0,0.0,0.0,0.0,0.0,0.0,0.0,0.0,0.0,0.0,0.0,0.0,0.0,0.0,0.0,0.0,0.0,0.0,0.0,0.0,0.0,0.0,0.0,0.0,0.0,0.0,0.0,0.0,0.0,0.0,0.0,0.0,0.0,0.0,0.0,0.0,0.0,0.0,0.0,0.0,0.0,0.0,0.0,0.0,0.0,0.0,0.0,0.0,0.0,0.0,0.0,0.0,0.0,0.0,0.0,0.0,0.0,0.0,0.0,0.0,0.0,0.0,0.0,0.0,0.0,0.0,0.0,0.0,0.0,0.0,0.0,0.0,0.0,0.0,0.0,0.0,0.0,0.0,0.0,0.0,0.0,0.0,0.0,0.0,0.0,0.0,0.0,0.0,0.0,0.0,0.0,0.0,0.0,0.0,0.0,0.0,0.0,0.0,0.0,0.0,0.0,0.0,0.0,0.0,2.5145,2.5372,2.4798,2.3586,2.1696,0.0,0.0,0.0,0.0,0.0,0.0,0.0,0.0,0.0,0.0,0.0,0.0,0.0,0.0,0.0,0.0,0.0,0.0,0.0,0.0,0.0,0.0,0.0,0.0,0.0,0.0,0.0,0.0,0.0,0.0,0.0,0.0,0.0,0.0,0.0,0.0,0.0,0.0,0.0,0.0,0.0,0.0,0.0,0.0,0.0,0.0,0.0,0.0,0.0,0.0,0.0,0.0,0.0,0.0,0.0,0.0,0.0,0.0,0.0,0.0,0.0,0.0,0.0,0.0,0.0,0.0,0.0,0.0,0.0,0.0,0.0,0.0,0.0,0.0,0.0,0.0,0.0,0.0,0.0,0.0,0.0,0.0,0.0,0.0,0.0,0.0,0.0,0.0,0.0,0.0,0.0,0.0,0.0,0.0,0.0,0.0,0.0,0.0,0.0,0.0,0.0,0.0,0.0,0.0,0.0,0.0,0.0,0.0,0.0,0.0,0.0,0.0,2.4771,2.3539,2.1823,0.0,0.0,0.0,0.0,0.0,0.0,0.0,0.0,0.0,0.0,0.0,0.0,0.0,0.0,0.0,0.0,0.0,0.0,0.0,0.0,0.0,0.0,0.0,0.0,0.0,0.0,0.0,0.0,0.0,0.0,0.0,0.0,0.0,0.0,0.0,0.0,0.0,0.0,0.0,0.0,0.0,0.0,0.0,0.0,0.0,0.0,0.0,0.0,0.0,0.0,0.0,0.0,0.0,0.0,0.0,0.0,0.0,0.0,0.0,0.0,0.0,0.0,0.0,0.0,0.0,0.0,0.0,0.0,0.0,0.0,0.0,0.0,0.0,0.0,0.0,0.0,0.0,0.0,0.0,0.0,0.0,0.0,0.0,0.0,0.0,0.0,0.0,0.0,0.0,0.0,0.0,0.0,0.0,0.0,0.0,0.0,0.0,0.0,0.0,0.0,0.0,0.0,0.0,0.0,0.0,0.0,0.0,0.0,0.0,0.0,2.5289,2.6094,2.6007,0.0,2.271,0.0,0.0,0.0,0.0,0.0,0.0,0.0,0.0,0.0,0.0,0.0,0.0,0.0,0.0,0.0,0.0,0.0,0.0,0.0,0.0,0.0,0.0,0.0,0.0,0.0,0.0,0.0,0.0,0.0,0.0,0.0,0.0,0.0,0.0,0.0,0.0,0.0,0.0,0.0,0.0,0.0,0.0,0.0,0.0,0.0,0.0,0.0,0.0,0.0,0.0,0.0,0.0,0.0,0.0,0.0,0.0,0.0,0.0,0.0,0.0,0.0,0.0,0.0,0.0,0.0,0.0,0.0,0.0,0.0,0.0,0.0,0.0,0.0,0.0,0.0,0.0,0.0,0.0,0.0,0.0,0.0,0.0,0.0,0.0,0.0,0.0,0.0,0.0,0.0,0.0,0.0,0.0,0.0,0.0,0.0,0.0,0.0,0.0,0.0,0.0,0.0,0.0,0.0,0.0,0.0,0.0,0.0,0.0,0.0,0.0,2.5857,2.6183,2.4871,2.3865,0.0,0.0,0.0,0.0,0.0,0.0,0.0,0.0,0.0,0.0,0.0,0.0,0.0,0.0,0.0,0.0,0.0,0.0,0.0,0.0,0.0,0.0,0.0,0.0,0.0,0.0,0.0,0.0,0.0,0.0,0.0,0.0,0.0,0.0,0.0,0.0,0.0,0.0,0.0,0.0,0.0,0.0,0.0,0.0,0.0,0.0,0.0,0.0,0.0,0.0,0.0,0.0,0.0,0.0,0.0,0.0,0.0,0.0,0.0,0.0,0.0,0.0,0.0,0.0,0.0,0.0,0.0,0.0,0.0,0.0,0.0,0.0,0.0,0.0,0.0,0.0,0.0,0.0,0.0,0.0,0.0,0.0,0.0,0.0,0.0,0.0,0.0,0.0,0.0,0.0,0.0,0.0,0.0,0.0,0.0,0.0,0.0,0.0,0.0,0.0,0.0,0.0,0.0,0.0,0.0,0.0,0.0,0.0,0.0,0.0,2.6126,2.6325,2.6433,2.4656,2.3609,2.3506,0.0,0.0,0.0,0.0,0.0,0.0,0.0,0.0,0.0,0.0,0.0,0.0,0.0,0.0,0.0,0.0,0.0,0.0,0.0,0.0,0.0,0.0,0.0,0.0,0.0,0.0,0.0,0.0,0.0,0.0,0.0,0.0,0.0,0.0,0.0,0.0,0.0,0.0,0.0,0.0,0.0,0.0,0.0,0.0,0.0,0.0,0.0,0.0,0.0,0.0,0.0,0.0,0.0,0.0,0.0,0.0,0.0,0.0,0.0,0.0,0.0,0.0,0.0,0.0,0.0,0.0,0.0,0.0,0.0,0.0,0.0,0.0,0.0,0.0,0.0,0.0,0.0,0.0,0.0,0.0,0.0,0.0,0.0,0.0,0.0,0.0,0.0,0.0,0.0,0.0,0.0,0.0,0.0,0.0,0.0,0.0,0.0,0.0,0.0,0.0,0.0,0.0,0.0,0.0,0.0,0.0,0.0,0.0,2.7346,2.6604,2.6578,2.7339,2.647,2.5021,0.0,0.0,0.0,0.0,0.0,0.0,0.0,0.0,0.0,0.0,0.0,0.0,0.0,0.0,0.0,0.0,0.0,0.0,0.0,0.0,0.0,0.0,0.0,0.0,0.0,0.0,0.0,0.0,0.0,0.0,0.0,0.0,0.0,0.0,0.0,0.0,0.0,0.0,0.0,0.0,0.0,0.0,0.0,0.0,0.0,0.0,0.0,0.0,0.0,0.0,0.0,0.0,0.0,0.0,0.0,0.0,0.0,0.0,0.0,0.0,0.0,0.0,0.0,0.0,0.0,0.0,0.0,0.0,0.0,0.0,0.0,0.0,0.0,0.0,0.0,0.0,0.0,0.0,0.0,0.0,0.0,0.0,0.0,0.0,0.0,0.0,0.0,0.0,0.0,0.0,0.0,0.0,0.0,0.0,0.0,0.0,0.0,0.0,0.0,0.0,0.0,0.0,0.0,0.0,0.0,0.0,0.0,0.0,0.0,2.556,2.5575,2.6674,2.8778,2.5738,2.4011,0.0,0.0,0.0,0.0,0.0,0.0,0.0,0.0,0.0,0.0,0.0,0.0,0.0,0.0,0.0,0.0,0.0,0.0,0.0,0.0,0.0,0.0,0.0,0.0,0.0,0.0,0.0,0.0,0.0,0.0,0.0,0.0,0.0,0.0,0.0,0.0,0.0,0.0,0.0,0.0,0.0,0.0,0.0,0.0,0.0,0.0,0.0,0.0,0.0,0.0,0.0,0.0,0.0,0.0,0.0,0.0,0.0,0.0,0.0,0.0,0.0,0.0,0.0,0.0,0.0,0.0,0.0,0.0,0.0,0.0,0.0,0.0,0.0,0.0,0.0,0.0,0.0,0.0,0.0,0.0,0.0,0.0,0.0,0.0,0.0,0.0,0.0,0.0,0.0,0.0,0.0,0.0,0.0,0.0,0.0,0.0,0.0,0.0,0.0,0.0,0.0,0.0,0.0,0.0,0.0,0.0,0.0,0.0,0.0,2.6319,2.7155,2.8194,2.9303,2.5857,2.3728,0.0,0.0,0.0,0.0,0.0,0.0,0.0,0.0,0.0,0.0,0.0,0.0,0.0,0.0,0.0,0.0,0.0,0.0,0.0,0.0,0.0,0.0,0.0,0.0,0.0,0.0,0.0,0.0,0.0,0.0,0.0,0.0,0.0,0.0,0.0,0.0,0.0,0.0,0.0,0.0,0.0,0.0,0.0,0.0,0.0,0.0,0.0,0.0,0.0,0.0,0.0,0.0,0.0,0.0,0.0,0.0,0.0,0.0,0.0,0.0,0.0,0.0,0.0,0.0,0.0,0.0,0.0,0.0,0.0,0.0,0.0,0.0,0.0,0.0,0.0,0.0,0.0,0.0,0.0,0.0,0.0,0.0,0.0,0.0,0.0,0.0,0.0,0.0,0.0,0.0,0.0,0.0,0.0,0.0,0.0,0.0,0.0,0.0,0.0,0.0,0.0,0.0,0.0,0.0,0.0,0.0,0.0,0.0,2.6555,3.0028,3.1446,3.1002,2.8819,2.7079,2.432,0.0,0.0,0.0,0.0,0.0,0.0,0.0,0.0,0.0,0.0,0.0,0.0,0.0,0.0,0.0,0.0,0.0,0.0,0.0,0.0,0.0,0.0,0.0,0.0,0.0,0.0,0.0,0.0,0.0,0.0,0.0,0.0,0.0,0.0,0.0,0.0,0.0,0.0,0.0,0.0,0.0,0.0,0.0,0.0,0.0,0.0,0.0,0.0,0.0,0.0,0.0,0.0,0.0,0.0,0.0,0.0,0.0,0.0,0.0,0.0,0.0,0.0,0.0,0.0,0.0,0.0,0.0,0.0,0.0,0.0,0.0,0.0,0.0,0.0,0.0,0.0,0.0,0.0,0.0,0.0,0.0,0.0,0.0,0.0,0.0,0.0,0.0,0.0,0.0,0.0,0.0,0.0,0.0,0.0,0.0,0.0,0.0,0.0,0.0,0.0,0.0,0.0,0.0,0.0,0.0,0.0,0.0,0.0,0.0,2.7888,2.9961,3.0873,3.0285,2.7258,2.5152,0.0,0.0,0.0,0.0,0.0,0.0,0.0,0.0,0.0,0.0,0.0,0.0,0.0,0.0,0.0,0.0,0.0,0.0,0.0,0.0,0.0,0.0,0.0,0.0,0.0,0.0,0.0,0.0,0.0,0.0,0.0,0.0,0.0,0.0,0.0,0.0,0.0,0.0,0.0,0.0,0.0,0.0,0.0,0.0,0.0,0.0,0.0,0.0,0.0,0.0,0.0,0.0,0.0,0.0,0.0,0.0,0.0,0.0,0.0,0.0,0.0,0.0,0.0,0.0,0.0,0.0,0.0,0.0,0.0,0.0,0.0,0.0,0.0,0.0,0.0,0.0,0.0,0.0,0.0,0.0,0.0,0.0,0.0,0.0,0.0,0.0,0.0,0.0,0.0,0.0,0.0,0.0,0.0,0.0,0.0,0.0,0.0,0.0,0.0,0.0,0.0,0.0,0.0,0.0,0.0,0.0,0.0,0.0,0.0,3.1445,3.342,3.4267,3.3729,2.971,2.6884,2.545,0.0,0.0,0.0,0.0,0.0,0.0,0.0,0.0,0.0,0.0,0.0,0.0,0.0,0.0,0.0,0.0,0.0,0.0,0.0,0.0,0.0,0.0,0.0,0.0,0.0,0.0,0.0,0.0,0.0,0.0,0.0,0.0,0.0,0.0,0.0,0.0,0.0,0.0,0.0,0.0,0.0,0.0,0.0,0.0,0.0,0.0,0.0,0.0,0.0,0.0,0.0,0.0,0.0,0.0,0.0,0.0,0.0,0.0,0.0,0.0,0.0,0.0,0.0,0.0,0.0,0.0,0.0,0.0,0.0,0.0,0.0,0.0,0.0,0.0,0.0,0.0,0.0,0.0,0.0,0.0,0.0,0.0,0.0,0.0,0.0,0.0,0.0,0.0,0.0,0.0,0.0,0.0,0.0,0.0,0.0,0.0,0.0,0.0,0.0,0.0,0.0,0.0,0.0,0.0,0.0,0.0,0.0,0.0,3.9244,4.0989,4.0794,3.84,3.3899,2.9505,0.0,0.0,0.0,0.0,0.0,0.0,0.0,0.0,0.0,0.0,0.0,0.0,0.0,0.0,0.0,0.0,0.0,0.0,0.0,0.0,0.0,0.0,0.0,0.0,0.0,0.0,0.0,0.0,0.0,0.0,0.0,0.0,0.0,0.0,0.0,0.0,0.0,0.0,0.0,0.0,0.0,0.0,0.0,0.0,0.0,0.0,0.0,0.0,0.0,0.0,0.0,0.0,0.0,0.0,0.0,0.0,0.0,0.0,0.0,0.0,0.0,0.0,0.0,0.0,0.0,0.0,0.0,0.0,0.0,0.0,0.0,0.0,0.0,0.0,0.0,0.0,0.0,0.0,0.0,0.0,0.0,0.0,0.0,0.0,0.0,0.0,0.0,0.0,0.0,0.0,0.0,0.0,0.0,0.0,0.0,0.0,0.0,0.0,0.0,0.0,0.0,0.0,0.0,0.0,0.0,0.0,0.0,0.0,0.0,4.3603,4.6569,4.6274,4.2372,3.6755,3.2539,0.0,0.0,0.0,0.0,0.0,0.0,0.0,0.0,0.0,0.0,0.0,0.0,0.0,0.0,0.0,0.0,0.0,0.0,0.0,0.0,0.0,0.0,0.0,0.0,0.0,0.0,0.0,0.0,0.0,0.0,0.0,0.0,0.0,0.0,0.0,0.0,0.0,0.0,0.0,0.0,0.0,0.0,0.0,0.0,0.0,0.0,0.0,0.0,0.0,0.0,0.0,0.0,0.0,0.0,0.0,0.0,0.0,0.0,0.0,0.0,0.0,0.0,0.0,0.0,0.0,0.0,0.0,0.0,0.0,0.0,0.0,0.0,0.0,0.0,0.0,0.0,0.0,0.0,0.0,0.0,0.0,0.0,0.0,0.0,0.0,0.0,0.0,0.0,0.0,0.0,0.0,0.0,0.0,0.0,0.0,0.0,0.0,0.0,0.0,0.0,0.0,0.0,0.0,0.0,0.0,0.0,0.0,0.0,4.3083,4.6995,5.0718,5.1192,4.8155,4.1202,3.5889,0.0,0.0,0.0,0.0,0.0,0.0,0.0,0.0,0.0,0.0,0.0,0.0,0.0,0.0,0.0,0.0,0.0,0.0,0.0,0.0,0.0,0.0,0.0,0.0,0.0,0.0,0.0,0.0,0.0,0.0,0.0,0.0,0.0,0.0,0.0,0.0,0.0,0.0,0.0,0.0,0.0,0.0,0.0,0.0,0.0,0.0,0.0,0.0,0.0,0.0,0.0,0.0,0.0,0.0,0.0,0.0,0.0,0.0,0.0,0.0,0.0,0.0,0.0,0.0,0.0,0.0,0.0,0.0,0.0,0.0,0.0,0.0,0.0,0.0,0.0,0.0,0.0,0.0,0.0,0.0,0.0,0.0,0.0,0.0,0.0,0.0,0.0,0.0,0.0,0.0,0.0,0.0,0.0,0.0,0.0,0.0,0.0,0.0,0.0,0.0,0.0,0.0,0.0,0.0,0.0,0.0,0.0,0.0,4.7062,4.965,5.3602,5.5136,5.3842,4.6032,3.921,0.0,0.0,0.0,0.0,0.0,0.0,0.0,0.0,0.0,0.0,0.0,0.0,0.0,0.0,0.0,0.0,0.0,0.0,0.0,0.0,0.0,0.0,0.0,0.0,0.0,0.0,0.0,0.0,0.0,0.0,0.0,0.0,0.0,0.0,0.0,0.0,0.0,0.0,0.0,0.0,0.0,0.0,0.0,0.0,0.0,0.0,0.0,0.0,0.0,0.0,0.0,0.0,0.0,0.0,0.0,0.0,0.0,0.0,0.0,0.0,0.0,0.0,0.0,0.0,0.0,0.0,0.0,0.0,0.0,0.0,0.0,0.0,0.0,0.0,0.0,0.0,0.0,0.0,0.0,0.0,0.0,0.0,0.0,0.0,0.0,0.0,0.0,0.0,0.0,0.0,0.0,0.0,0.0,0.0,0.0,0.0,0.0,0.0,0.0,0.0,0.0,0.0,0.0,0.0,0.0,0.0,0.0,0.0,4.8218,5.2025,5.4881,5.5563,5.3997,4.695,4.1112,0.0,0.0,0.0,0.0,0.0,0.0,0.0,0.0,0.0,0.0,0.0,0.0,0.0,0.0,0.0,0.0,0.0,0.0,0.0,0.0,0.0,0.0,0.0,0.0,0.0,0.0,0.0,0.0,0.0,0.0,0.0,0.0,0.0,0.0,0.0,0.0,0.0,0.0,0.0,0.0,0.0,0.0,0.0,0.0,0.0,0.0,0.0,0.0,2.6155,0.0,0.0,0.0,0.0,0.0,0.0,0.0,0.0,0.0,0.0,0.0,0.0,0.0,0.0,0.0,0.0,0.0,0.0,0.0,0.0,0.0,0.0,0.0,0.0,0.0,0.0,0.0,0.0,0.0,0.0,0.0,0.0,0.0,0.0,0.0,0.0,0.0,0.0,0.0,0.0,0.0,0.0,0.0,0.0,0.0,0.0,0.0,0.0,0.0,0.0,0.0,0.0,0.0,0.0,0.0,0.0,0.0,0.0,0.0,4.9389,5.3184,5.5621,5.6423,5.5298,5.0098,4.4195,0.0,0.0,0.0,0.0,0.0,0.0,0.0,0.0,0.0,0.0,0.0,0.0,0.0,0.0,0.0,0.0,0.0,0.0,0.0,0.0,0.0,0.0,0.0,0.0,0.0,0.0,0.0,0.0,0.0,0.0,0.0,0.0,0.0,0.0,0.0,0.0,0.0,0.0,0.0,0.0,0.0,0.0,0.0,0.0,0.0,0.0,0.0,0.0,0.0,0.0,0.0,0.0,0.0,0.0,0.0,0.0,0.0,0.0,0.0,0.0,0.0,0.0,0.0,0.0,0.0,0.0,0.0,0.0,0.0,0.0,0.0,0.0,0.0,0.0,0.0,0.0,0.0,0.0,0.0,0.0,0.0,0.0,0.0,0.0,0.0,0.0,0.0,0.0,0.0,0.0,0.0,0.0,0.0,0.0,0.0,0.0,0.0,0.0,0.0,0.0,0.0,0.0,0.0,0.0,0.0,0.0,0.0,4.5396,5.0494,5.4149,5.6457,5.7445,5.7049,5.3423,4.7188,3.8401,0.0,0.0,0.0,0.0,0.0,0.0,0.0,0.0,0.0,0.0,0.0,0.0,0.0,0.0,0.0,0.0,0.0,0.0,0.0,0.0,0.0,0.0,0.0,0.0,0.0,0.0,0.0,0.0,0.0,0.0,0.0,0.0,0.0,0.0,0.0,0.0,0.0,0.0,2.2908,2.5205,0.0,0.0,0.0,0.0,0.0,0.0,0.0,0.0,2.6577,0.0,0.0,0.0,0.0,0.0,0.0,0.0,0.0,0.0,0.0,0.0,0.0,0.0,0.0,0.0,0.0,0.0,0.0,0.0,0.0,0.0,0.0,0.0,0.0,0.0,0.0,0.0,0.0,0.0,0.0,0.0,0.0,0.0,0.0,0.0,0.0,0.0,0.0,0.0,0.0,0.0,0.0,0.0,0.0,0.0,0.0,0.0,0.0,0.0,0.0,0.0,0.0,0.0,0.0,0.0,0.0,4.4695,4.752,5.146,5.6577,5.8192,5.8393,5.7074,5.3771,4.8156,4.0273,0.0,0.0,0.0,0.0,0.0,0.0,0.0,0.0,0.0,0.0,0.0,0.0,0.0,0.0,0.0,0.0,0.0,0.0,0.0,0.0,0.0,0.0,0.0,0.0,0.0,0.0,0.0,0.0,0.0,0.0,0.0,0.0,0.0,0.0,0.0,0.0,0.0,0.0,0.0,2.8648,2.8865,0.0,0.0,0.0,0.0,0.0,0.0,0.0,0.0,2.7435,0.0,0.0,0.0,0.0,0.0,0.0,0.0,0.0,0.0,0.0,0.0,0.0,0.0,0.0,0.0,0.0,0.0,0.0,0.0,0.0,0.0,0.0,0.0,0.0,0.0,0.0,0.0,0.0,0.0,0.0,0.0,0.0,0.0,0.0,0.0,0.0,0.0,0.0,0.0,0.0,0.0,0.0,0.0,0.0,0.0,0.0,0.0,0.0,0.0,0.0,0.0,0.0,0.0,0.0,0.0,4.5699,5.0124,5.4417,5.8579,5.9386,5.9195,5.8076,5.4615,4.8989,0.0,0.0,0.0,0.0,0.0,0.0,0.0,0.0,0.0,0.0,0.0,0.0,0.0,0.0,0.0,0.0,0.0,0.0,0.0,0.0,0.0,0.0,0.0,0.0,0.0,0.0,0.0,0.0,0.0,0.0,0.0,0.0,0.0,0.0,0.0,0.0,0.0,0.0,0.0,0.0,3.0454,3.1041,3.2152,0.0,0.0,0.0,0.0,0.0,0.0,2.9282,2.872,0.0,0.0,0.0,0.0,0.0,0.0,0.0,0.0,0.0,0.0,0.0,0.0,0.0,0.0,0.0,0.0,0.0,0.0,0.0,0.0,0.0,0.0,0.0,0.0,0.0,0.0,0.0,0.0,0.0,0.0,0.0,0.0,0.0,0.0,0.0,0.0,0.0,0.0,0.0,0.0,0.0,0.0,0.0,0.0,0.0,0.0,0.0,0.0,0.0,0.0,0.0,0.0,0.0,0.0,0.0,4.5689,5.1985,5.6816,5.994,6.025,5.9979,5.9182,5.5052,4.9267,0.0,0.0,0.0,0.0,0.0,0.0,0.0,0.0,0.0,0.0,0.0,0.0,0.0,0.0,0.0,0.0,0.0,0.0,0.0,0.0,0.0,0.0,0.0,0.0,0.0,0.0,0.0,0.0,0.0,0.0,0.0,0.0,0.0,0.0,0.0,0.0,0.0,0.0,0.0,0.0,0.0,3.3065,3.4677,3.3259,0.0,0.0,0.0,0.0,3.0936,3.1451,0.0,0.0,0.0,0.0,0.0,0.0,0.0,0.0,0.0,0.0,0.0,0.0,0.0,0.0,0.0,0.0,0.0,0.0,0.0,0.0,0.0,0.0,0.0,0.0,0.0,0.0,0.0,0.0,0.0,0.0,0.0,0.0,0.0,0.0,0.0,0.0,0.0,0.0,0.0,0.0,0.0,0.0,0.0,0.0,0.0,0.0,0.0,0.0,0.0,0.0,0.0,0.0,0.0,0.0,0.0,0.0,4.5622,5.1623,5.6439,5.9911,6.0781,6.0781,5.9911,5.4206,4.8351,0.0,0.0,0.0,0.0,0.0,0.0,0.0,0.0,0.0,0.0,0.0,0.0,0.0,0.0,0.0,0.0,0.0,0.0,0.0,0.0,0.0,0.0,0.0,0.0,0.0,0.0,0.0,0.0,0.0,0.0,0.0,0.0,0.0,0.0,0.0,0.0,0.0,0.0,0.0,0.0,0.0,3.4164,3.3838,3.2481,3.1748,0.0,0.0,0.0,3.5887,3.6814,0.0,0.0,0.0,0.0,0.0,0.0,0.0,0.0,0.0,0.0,0.0,0.0,0.0,0.0,0.0,0.0,0.0,0.0,0.0,0.0,0.0,0.0,0.0,0.0,0.0,0.0,0.0,0.0,0.0,0.0,0.0,0.0,0.0,0.0,0.0,0.0,0.0,0.0,0.0,0.0,0.0,0.0,0.0,0.0,0.0,0.0,0.0,0.0,0.0,0.0,0.0,0.0,0.0,0.0,0.0,4.1564,4.6666,5.4397,5.937,6.1342,6.1738,6.1301,6.0003,5.4428,4.8361,0.0,0.0,0.0,0.0,0.0,0.0,0.0,0.0,0.0,0.0,0.0,0.0,0.0,0.0,0.0,0.0,0.0,0.0,0.0,0.0,0.0,0.0,0.0,0.0,0.0,0.0,0.0,0.0,0.0,0.0,0.0,0.0,0.0,0.0,0.0,0.0,0.0,0.0,0.0,0.0,0.0,0.0,3.8091,3.6169,0.0,0.0,0.0,3.6303,3.5915,0.0,0.0,0.0,0.0,0.0,0.0,0.0,0.0,0.0,0.0,0.0,0.0,0.0,0.0,0.0,0.0,0.0,0.0,0.0,0.0,0.0,0.0,0.0,0.0,0.0,0.0,0.0,0.0,0.0,0.0,0.0,0.0,0.0,0.0,0.0,0.0,0.0,0.0,0.0,0.0,0.0,0.0,0.0,0.0,0.0,0.0,0.0,0.0,0.0,0.0,0.0,0.0,0.0,0.0,0.0,0.0,0.0,4.7652,5.7182,6.2381,6.2922,6.2703,6.1887,6.0411,5.5393,0.0,0.0,0.0,0.0,0.0,0.0,0.0,0.0,0.0,0.0,0.0,0.0,0.0,0.0,0.0,0.0,0.0,0.0,0.0,0.0,0.0,0.0,0.0,0.0,0.0,0.0,0.0,0.0,0.0,0.0,0.0,0.0,0.0,0.0,0.0,0.0,0.0,0.0,0.0,0.0,0.0,0.0,3.7924,4.0911,3.9256,3.8527,0.0,0.0,3.8405,3.7758,4.015,4.0284,0.0,0.0,0.0,0.0,0.0,0.0,0.0,0.0,0.0,0.0,0.0,0.0,0.0,0.0,0.0,0.0,0.0,0.0,0.0,0.0,0.0,0.0,0.0,0.0,0.0,0.0,0.0,0.0,0.0,0.0,0.0,0.0,0.0,0.0,0.0,0.0,0.0,0.0,0.0,0.0,0.0,0.0,0.0,0.0,0.0,0.0,0.0,0.0,0.0,0.0,0.0,0.0,0.0,0.0,0.0,4.8577,5.8896,6.4346,6.4404,6.354,6.2696,6.1902,5.7221,5.0947,0.0,0.0,0.0,0.0,0.0,0.0,0.0,0.0,0.0,0.0,0.0,0.0,0.0,0.0,0.0,0.0,0.0,0.0,0.0,0.0,0.0,0.0,0.0,0.0,0.0,0.0,0.0,0.0,0.0,0.0,0.0,0.0,0.0,0.0,0.0,0.0,0.0,0.0,0.0,0.0,0.0,3.816,3.939,3.9744,4.1151,0.0,0.0,4.1439,4.4391,4.4996,4.276,3.5635,0.0,0.0,0.0,0.0,0.0,0.0,0.0,0.0,0.0,0.0,0.0,0.0,0.0,0.0,0.0,0.0,0.0,0.0,0.0,0.0,0.0,0.0,0.0,0.0,0.0,0.0,0.0,0.0,0.0,0.0,0.0,0.0,0.0,0.0,0.0,0.0,0.0,0.0,0.0,0.0,0.0,0.0,0.0,0.0,0.0,0.0,0.0,0.0,0.0,0.0,0.0,0.0,0.0,4.5904,4.7936,5.8284,6.3387,6.2771,6.2386,6.1582,6.0362,5.7195,5.2116,0.0,0.0,0.0,0.0,0.0,0.0,0.0,0.0,0.0,0.0,0.0,0.0,0.0,0.0,0.0,0.0,0.0,0.0,0.0,0.0,0.0,0.0,0.0,0.0,0.0,0.0,0.0,0.0,2.5935,2.6098,2.5092,0.0,0.0,0.0,0.0,0.0,0.0,0.0,0.0,0.0,0.0,3.9989,4.2971,4.2837,0.0,0.0,4.4331,4.3317,4.3702,4.3381,4.1399,3.6515,3.4395,0.0,0.0,0.0,0.0,0.0,0.0,0.0,0.0,0.0,0.0,0.0,0.0,0.0,0.0,0.0,0.0,0.0,0.0,0.0,0.0,0.0,0.0,0.0,0.0,0.0,0.0,0.0,0.0,0.0,0.0,0.0,0.0,0.0,0.0,0.0,0.0,0.0,0.0,0.0,0.0,0.0,0.0,0.0,0.0,0.0,0.0,0.0,0.0,0.0,0.0,0.0,0.0,4.6023,4.7843,5.8057,6.2953,6.2271,6.1959,6.1171,5.9835,5.765,5.3524,0.0,0.0,0.0,0.0,0.0,0.0,0.0,0.0,0.0,0.0,0.0,0.0,0.0,0.0,0.0,0.0,0.0,0.0,0.0,0.0,0.0,0.0,0.0,0.0,0.0,0.0,0.0,0.0,2.83,2.791,2.6787,0.0,0.0,0.0,0.0,0.0,0.0,0.0,0.0,0.0,0.0,4.2235,4.529,4.4834,4.4564,4.5713,4.4512,4.3283,4.269,4.198,4.0399,3.7044,0.0,0.0,0.0,0.0,0.0,0.0,0.0,0.0,0.0,0.0,0.0,0.0,0.0,0.0,0.0,0.0,0.0,0.0,0.0,0.0,0.0,0.0,0.0,0.0,0.0,0.0,0.0,0.0,0.0,0.0,0.0,0.0,0.0,0.0,0.0,0.0,0.0,0.0,0.0,0.0,0.0,0.0,0.0,0.0,0.0,0.0,0.0,0.0,0.0,0.0,0.0,0.0,0.0,0.0,4.864,5.858,6.3744,6.3641,6.2775,6.1909,6.1177,5.899,5.5321,5.004,0.0,0.0,0.0,0.0,0.0,0.0,0.0,0.0,0.0,0.0,0.0,0.0,0.0,0.0,0.0,0.0,0.0,0.0,0.0,0.0,0.0,0.0,0.0,0.0,0.0,0.0,2.4022,2.5626,2.6962,0.0,0.0,0.0,0.0,0.0,0.0,0.0,0.0,0.0,0.0,4.183,4.47,4.539,4.5047,4.4999,4.5586,4.283,4.1075,4.2497,4.1911,4.0284,0.0,0.0,0.0,0.0,0.0,0.0,0.0,0.0,0.0,0.0,0.0,0.0,0.0,0.0,0.0,0.0,0.0,0.0,0.0,0.0,0.0,0.0,0.0,0.0,0.0,0.0,0.0,3.1332,2.9667,0.0,0.0,0.0,0.0,0.0,0.0,0.0,0.0,0.0,0.0,0.0,4.2139,4.3275,0.0,0.0,0.0,0.0,0.0,0.0,0.0,0.0,0.0,0.0,0.0,0.0,4.7103,4.9374,5.8139,6.2472,6.1822,6.1475,6.0961,6.0303,5.9561,5.6073,4.9543,0.0,0.0,0.0,0.0,0.0,0.0,0.0,0.0,0.0,0.0,0.0,0.0,0.0,0.0,0.0,0.0,0.0,0.0,0.0,0.0,0.0,0.0,0.0,0.0,0.0,2.7803,0.0,0.0,0.0,0.0,0.0,0.0,0.0,0.0,0.0,0.0,0.0,3.6327,3.965,4.1867,4.3661,4.5153,4.6092,4.6833,0.0,0.0,0.0,0.0,0.0,0.0,0.0,0.0,0.0,0.0,0.0,0.0,0.0,0.0,3.5883,3.0836,2.9253,2.8983,2.9849,0.0,0.0,0.0,0.0,0.0,0.0,0.0,0.0,0.0,0.0,0.0,0.0,0.0,0.0,0.0,0.0,3.4648,0.0,0.0,0.0,0.0,0.0,0.0,0.0,0.0,4.5157,4.7846,4.9076,5.068,5.0525,0.0,4.6568,4.2007,0.0,0.0,0.0,0.0,0.0,0.0,0.0,0.0,4.7868,5.0643,5.7923,6.1468,6.0832,6.0794,6.0578,6.0147,5.9914,5.737,5.2213,4.7872,4.3633,0.0,0.0,0.0,0.0,0.0,0.0,0.0,0.0,0.0,0.0,0.0,0.0,0.0,0.0,0.0,0.0,0.0,0.0,0.0,0.0,0.0,0.0,0.0,3.0253,0.0,0.0,0.0,0.0,0.0,0.0,0.0,0.0,0.0,3.3324,3.6538,3.9986,4.2813,4.4309,4.5244,4.5593,0.0,0.0,0.0,0.0,0.0,0.0,0.0,3.9355,3.9778,3.817,3.7024,3.7762,3.9344,4.0267,3.9606,0.0,0.0,3.5097,3.3633,3.3556,3.4548,3.5267,3.568,3.5627,3.7205,3.8357,0.0,0.0,0.0,0.0,0.0,0.0,0.0,0.0,4.4382,4.2559,0.0,4.1269,0.0,0.0,0.0,0.0,0.0,0.0,0.0,0.0,5.6423,5.9227,5.795,5.85,5.836,5.7274,5.3663,5.0691,4.8223,4.4227,0.0,0.0,0.0,0.0,0.0,0.0,4.8342,5.2785,5.8095,6.0807,6.0794,6.0794,6.0794,6.0763,6.016,5.9157,5.7691,5.2352,4.8499,4.654,3.675,0.0,0.0,0.0,0.0,0.0,0.0,0.0,0.0,0.0,0.0,0.0,0.0,0.0,0.0,0.0,0.0,0.0,0.0,0.0,0.0,3.1346,0.0,0.0,0.0,0.0,0.0,0.0,0.0,0.0,0.0,0.0,3.8497,4.175,4.4968,4.6886,0.0,0.0,0.0,0.0,4.738,4.4955,4.3449,4.2502,4.1914,4.2216,4.2563,4.2678,0.0,0.0,4.223,4.2716,4.2785,4.0986,4.2254,4.3082,4.2058,3.9911,3.8994,4.0369,4.0232,4.0348,4.1242,4.2062,4.2955,4.905,0.0,0.0,0.0,0.0,4.5706,4.7799,5.1008,5.092,4.9653,4.7527,4.7143,0.0,0.0,0.0,0.0,0.0,0.0,4.9778,5.4652,5.7333,5.996,6.2562,6.212,6.1698,6.1348,5.9064,5.7904,5.7624,5.5943,4.8807,3.6789,0.0,0.0,0.0,0.0,5.0982,5.475,5.8757,6.0794,6.0794,6.0794,6.0794,6.0794,6.016,5.9606,5.9206,5.6234,5.2463,4.7863,4.3602,0.0,0.0,0.0,0.0,0.0,0.0,0.0,0.0,0.0,0.0,0.0,0.0,0.0,0.0,0.0,0.0,0.0,0.0,0.0,2.9794,3.3096,3.409,0.0,0.0,0.0,0.0,0.0,0.0,0.0,0.0,0.0,4.4499,4.482,4.519,0.0,0.0,4.6091,4.4406,4.652,4.8199,4.79,0.0,0.0,0.0,4.4681,4.3221,4.464,4.5156,4.5178,4.4602,4.5076,4.532,4.473,4.5302,4.5754,4.5549,4.3805,4.2528,4.2827,4.2788,4.2749,4.3088,4.4054,4.4939,5.8149,5.3467,5.0574,5.0286,5.1794,5.2376,5.442,5.741,5.7423,5.6247,5.4227,5.4295,5.1509,4.6646,4.5219,0.0,0.0,0.0,5.4941,5.9911,6.0622,6.2154,6.4189,6.4074,6.3495,6.2572,6.1131,6.0732,6.1253,5.9792,5.3829,4.3835,0.0,0.0,4.5175,4.9932,5.4178,5.7676,6.0282,6.1458,6.1181,6.0917,6.0671,6.0393,6.027,6.0055,5.9791,5.8387,5.5763,5.1793,4.8315,4.3751,0.0,0.0,0.0,0.0,0.0,0.0,0.0,0.0,0.0,0.0,0.0,2.5284,0.0,0.0,0.0,0.0,3.1012,3.2913,3.4953,3.6852,0.0,0.0,0.0,0.0,0.0,0.0,0.0,4.1031,4.4287,4.683,4.8256,4.7986,4.7728,4.7997,4.8248,4.7848,4.626,0.0,5.0044,4.9478,4.9096,4.8872,4.8746,4.6597,4.525,4.6349,4.6381,4.6239,4.625,4.6427,4.6557,4.656,4.6592,4.6722,4.7079,4.6002,4.5108,4.5147,4.5152,4.5187,4.5263,4.6039,4.6775,6.5392,6.414,5.6673,5.5049,5.7509,5.8878,6.0622,6.2594,6.325,6.1954,5.9467,6.1544,5.8552,5.1848,5.0705,0.0,0.0,5.7845,6.0714,6.4752,6.5397,6.5045,6.3957,6.4672,6.3972,6.1909,6.0886,6.057,6.0761,5.8549,5.629,5.4229,5.4893,5.4366,5.269,5.4513,5.7312,6.0817,6.1929,6.2293,6.1796,6.1194,6.0547,5.9821,6.0455,6.0486,5.9821,5.9131,5.8204,5.6873,5.1367,4.7283,4.5162,0.0,0.0,0.0,0.0,0.0,0.0,0.0,0.0,0.0,0.0,0.0,0.0,0.0,0.0,0.0,3.97,0.0,4.3086,4.1743,0.0,0.0,0.0,3.6979,3.9226,4.1337,4.3551,4.6133,0.0,0.0,0.0,0.0,5.1714,5.2486,5.2857,5.2282,5.0271,5.156,5.2198,4.9815,4.9515,4.9109,4.8273,4.7836,4.7661,4.7638,4.7486,4.7286,4.7257,4.7051,4.6918,4.6928,4.6632,4.6602,4.7089,4.7094,4.7156,4.7136,4.7178,4.7308,4.7521,4.7952,4.8407,6.643,6.6125,6.4164,6.3159,6.2777,6.3115,6.3565,6.4072,6.4265,6.3907,6.3234,6.323,6.1912,5.9695,5.9951,6.0897,6.2477,6.3429,6.4623,6.5977,6.5575,6.515,6.4659,6.3544,6.2729,6.2183,6.1693,6.1472,6.1576,6.1451,6.0268,5.8161,5.8233,5.6068,5.1902,5.4641,5.7371,5.9773,6.0047,6.0709,6.1752,6.1656,6.1009,5.9852,6.0455,6.0499,5.9821,5.8955,5.8016,5.7,5.3915,5.1004,4.8304,4.0639,0.0,0.0,0.0,0.0,0.0,0.0,0.0,0.0,0.0,3.1241,2.4893,0.0,3.4269,0.0,4.3279,4.6607,4.4522,4.4382,0.0,0.0,4.1243,4.12,4.4851,4.6635,4.7992,4.9093,5.1011,5.2528,5.3162,5.3414,5.4089,5.5628,5.3461,5.0816,4.8618,5.0318,5.1373,5.0022,4.9788,4.9611,4.9088,4.8491,4.8073,4.8,4.8064,4.8105,4.8105,4.7855,4.7639,4.7639,4.7577,4.7581,4.7691,4.7691,4.7713,4.7732,4.7737,4.7898,4.8391,4.8627,4.8973,6.7666,6.7656,6.7656,6.7183,6.6384,6.5813,6.5584,6.5584,6.5584,6.5584,6.5517,6.4806,6.4241,6.3913,6.4309,6.4664,6.5011,6.5719,6.6067,6.6046,6.5588,6.4929,6.4098,6.3354,6.2706,6.2177,6.2214,6.224,6.2289,6.2922,6.2608,6.1401,6.1984,6.0288,5.6482,5.6543,5.7226,5.8367,5.9342,6.0766,6.2583,6.2412,6.0878,5.8035,5.9097,5.8525,5.6047,5.6244,5.5621,5.3819,5.2262,5.0366,4.803,4.2572,3.8949,0.0,0.0,0.0,0.0,0.0,0.0,0.0,0.0,0.0,0.0,0.0,3.8788,0.0,4.6273,0.0,4.5897,4.662,4.7176,4.6865,4.5786,4.6385,4.9587,5.0852,5.1839,5.2785,5.4084,5.5072,5.5448,5.5381,5.5508,5.6205,5.4139,5.2209,5.1289,5.1861,5.1923,5.0809,5.0494,5.0125,4.9394,4.8672,4.8248,4.8217,4.8201,4.8172,4.8172,4.8032,4.7908,4.7908,4.7908,4.8008,4.8234,4.851,4.8711,4.8971,4.9238,4.9414,4.9506,4.9732,5.0259,6.8562,6.8684,6.8684,6.8728,6.8671,6.7551,6.7096,6.7106,6.7096,6.7106,6.7062,6.6417,6.6092,6.6071,6.6003,6.5844,6.5667,6.6285,6.6168,6.5482,6.5463,6.4574,6.3039,6.3456,6.3097,6.2099,6.27,6.2991,6.3022,6.3787,6.4033,6.378,6.4972,6.4397,6.202,5.8961,5.7372,5.7367,5.9474,6.144,6.3189,6.2393,5.9827,5.5662,5.7021,5.5926,5.1744,5.3001,5.2691,5.0215,4.9315,4.8339,4.707,4.4328,4.1832,0.0,3.761,0.0,0.0,0.0,0.0,0.0,0.0,0.0,0.0,4.3729,4.4853,4.3661,4.8727,5.091,4.81,4.9126,5.0168,5.0667,5.0805,5.1535,5.3246,5.3978,5.4802,5.5931,5.6357,5.6565,5.6518,5.6447,5.5924,5.5277,5.4413,5.3893,5.4509,5.3627,5.2497,5.16,5.1043,5.0048,4.91,4.8615,4.8453,4.8438,4.8478,4.8193,4.8335,4.8385,4.8394,4.841,4.851,4.8611,4.9044,4.9531,4.9941,5.0368,5.0795,5.1013,5.077,5.0971,5.1892,6.7911,6.8672,6.8684,6.8827,6.9014,6.8753,6.8673,6.8673,6.8673,6.8662,6.8628,6.8504,6.8328,6.8087,6.7525,6.7115,6.6898,6.6987,6.6433,6.5254,6.5195,6.4431,6.3092,6.2536,6.2296,6.2391,6.3509,6.4084,6.4131,6.5578,6.5235,6.3227,6.3676,6.2527,5.9893,0.0,0.0,0.0,6.0403,6.0985,6.0288,5.8326,5.6328,5.4392,5.5153,0.0,5.353,5.3075,5.2619,5.2029,5.0695,0.0,0.0,0.0,0.0,0.0,0.0,0.0,0.0,0.0,0.0,0.0,4.3487,4.3598,4.3335,4.6146,4.7868,4.771,5.0596,5.2891,5.3827,5.3688,5.3567,5.3498,5.3922,5.4401,5.4807,5.4982,5.5234,5.5425,5.4462,5.3937,5.4516,5.4231,5.4213,5.4471,5.3581,5.2938,5.307,5.2284,5.1215,5.0052,4.9509,4.8922,4.8553,4.8689,4.8828,4.8806,4.9478,4.985,4.99,5.0293,5.0611,5.0586,5.0661,5.0611,5.0761,5.0912,5.0987,5.1096,5.1239,5.1414,5.1724,5.185,5.2277,6.9974,0.0,7.0688,7.0757,0.0,7.0614,7.0535,7.0468,6.9498,6.9079,6.9102,6.8948,6.8528,6.7855,6.7331,6.6489,6.5421,6.5421,6.4884,6.3988,6.3929,6.3619,6.3111,6.3152,6.3362,6.3717,6.4661,6.522,6.544,6.6401,6.6224,6.4932,6.5469,6.4868,6.3266,6.3709,6.3036,6.1252,6.1718,6.2066,6.2112,6.0661,5.8296,5.5183,0.0,0.0,0.0,0.0,0.0,0.0,0.0,0.0,0.0,0.0,0.0,4.74,4.5566,4.4685,4.5333,4.5667,4.6903,4.9233,5.0288,5.0018,4.8279,5.0689,5.2299,5.2318,5.341,5.449,5.5473,5.5481,5.5343,5.5209,5.5217,5.525,5.5233,5.5009,5.4782,5.4614,5.4174,5.4005,5.4137,5.3843,5.3676,5.3782,5.3074,5.2444,5.2313,5.1533,5.0595,4.9877,4.9486,4.9289,4.9384,4.9476,4.969,5.0033,5.0485,5.0812,5.0845,5.1096,5.1289,5.1289,5.1289,5.1289,5.1314,5.1515,5.1674,5.1724,5.19,5.2151,5.2435,5.2511,5.2912,7.1782,7.212,7.2038,7.2011,7.205,7.1723,7.1531,7.1332,0.0,0.0,0.0,6.8819,6.8138,6.7141,6.6889,6.586,6.4304,6.4247,6.388,6.3219,6.3342,6.3413,6.3496,6.4089,6.4575,6.4953,6.5394,6.5783,6.6061,6.6647,6.6863,6.6924,6.7636,6.7785,6.7365,6.7535,6.6398,6.4043,6.2982,6.2965,6.391,6.295,6.0289,5.5839,5.6834,5.5356,5.1139,5.1846,5.139,4.9295,4.9056,4.8835,4.8525,4.8405,4.8925,5.0205,5.0366,5.0919,5.2205,5.2319,5.3144,5.5061,5.5844,5.5436,5.3447,5.5018,5.6129,5.6188,5.5988,5.5774,5.5572,5.5833,5.5941,5.5745,5.5459,5.5222,5.5054,5.4728,5.4323,5.3961,5.4032,5.4238,5.3873,5.3538,5.3332,5.296,5.2468,5.2217,5.2042,5.1395,5.0816,5.0537,5.036,5.0359,5.05,5.0519,5.077,5.1105,5.1314,5.1423,5.1465,5.154,5.159,5.1691,5.159,5.1641,5.1624,5.1975,5.2277,5.236,5.2711,5.3088,5.3188,5.3213,5.364,6.9878,6.9911,6.9503,6.9453,6.9632,6.9961,6.9816,6.9337,6.9588,6.9509,6.9159,6.8915,6.8366,6.7693,6.7602,6.7263,6.6804,6.6791,6.621,0.0,6.5864,6.562,6.4739,6.429,6.4256,6.4576,6.468,6.4725,6.4905,6.6258,6.6849,6.6702,6.7516,6.765,6.7086,6.6755,6.6297,6.5626,6.3562,6.1794,6.0258,5.8179,5.638,5.4933,5.5071,5.4688,5.3695,5.3294,5.2899,5.2498,5.1971,5.2127,5.3132,5.2648,5.2977,5.4234,5.4354,5.4585,5.4996,5.5021,5.5437,5.629,5.6946,5.692,5.6149,5.6337,5.6623,5.6891,5.6817,5.6459,5.5528,5.5371,5.5052,5.4145,5.47,5.4907,5.4297,5.4381,5.424,5.3442,5.2684,5.2314,5.2294,5.1963,5.1809,5.1642,5.1826,5.1554,5.1639,5.1578,5.1599,5.155,5.1302,5.1196,5.1163,5.1147,5.1239,5.1289,5.1724,5.1975,5.2,5.2285,5.2536,5.2661,5.2611,5.2636,5.2661,5.2711,5.2988,5.3306,5.3557,5.3733,5.4127,5.4253,5.4403,7.0827,7.0943,7.0195,6.9904,6.9911,6.9111,6.8465,6.7962,6.77,6.7993,6.8556,6.7987,6.7386,6.6851,6.6304,6.5689,6.5031,6.5031,6.4922,6.4774,6.5106,6.4968,6.4515,6.453,6.4513,6.4518,6.4689,6.487,6.5121,6.6025,6.6192,6.5742,6.5979,6.593,6.5656,6.5644,6.5396,6.4947,6.4361,6.339,6.1974,6.0328,5.8932,5.7807,5.7635,5.7127,5.6346,5.6004,5.5688,5.5341,5.4999,5.5149,5.5718,5.5491,5.5598,5.6166,5.6226,5.6291,5.6406,5.6419,5.6539,5.6852,5.7127,5.7049,5.6484,5.6711,5.6661,5.619,5.6113,5.56,5.4438,5.4869,5.4998,5.4441,5.4737,5.4755,5.433,5.3676,5.3148,5.2553,5.2084,5.1729,5.1572,5.1389,5.144,5.1691,5.195,5.2134,5.2134,5.227,5.2178,5.1631,5.1389,5.1456,5.1649,5.1741,5.185,5.2084,5.236,5.2528,5.2536,5.2787,5.3013,5.3264,5.3314,5.3482,5.3725,5.3826,5.3951,5.4077,5.4202,5.4353,5.4547,5.4805,5.5006,7.0733,7.0803,6.9827,6.9481,6.9445,6.8206,6.7293,6.6595,6.5998,6.6309,6.7089,6.6575,6.6067,6.557,6.5014,6.4315,6.3599,6.3512,6.3812,6.4186,6.4201,6.4246,6.4246,6.462,6.4633,6.4432,6.4648,6.4873,6.5005,6.5488,6.5518,6.4994,6.4586,6.4387,6.4387,6.4554,6.4381,6.3898,6.4592,6.4602,6.3764,6.2925,6.1875,6.0595,6.0244,5.9549,5.8424,5.8338,5.8098,5.7573,5.7406,5.7334,5.7304,5.7184,5.7094,5.7094,5.7094,5.6976,5.674,5.6819,5.6819,5.6686,5.682,5.678,5.6543,5.6863,5.6602,5.5563,5.5512,5.5067,5.4113,5.4591,5.5082,5.4749,5.4549,5.4283,5.3985,5.314,5.2374,5.1999,5.1983,5.1967,5.1733,5.1649,5.185,5.226,5.2661,5.287,5.2895,5.2895,5.2511,5.1975,5.1649,5.185,5.2209,5.226,5.2435,5.2845,5.2995,5.3063,5.3113,5.3163,5.3414,5.3808,5.3909,5.4034,5.4454,5.4572,5.4622,5.4723,5.478,5.4848,5.5031,5.5333,5.5491,6.7163,6.6298,6.5903,6.577,6.6236,6.6661,6.6138,6.5105,6.5524,6.5202,6.4551,6.4663,6.4601,6.4313,6.4721,6.4798,6.4725,6.4829,6.4829,6.4874,6.4904,6.4904,6.48,6.4351,6.4081,6.405,6.4111,6.3946,6.363,6.456,6.5054,6.4904,6.435,6.4035,6.4034,6.3771,6.3498,6.3209,6.3527,6.3452,6.304,6.29,6.2081,6.0554,6.0477,5.998,5.9053,5.9009,5.8979,5.8876,5.8338,5.8008,5.7949,5.7453,5.7124,5.7098,5.7085,5.6618,5.5674,5.6018,5.6141,5.552,5.6044,5.6493,5.6891,5.7009,5.6632,5.5653,5.5766,5.5474,5.4536,5.4824,5.4616,5.3503,5.3658,5.3332,5.2604,5.2876,5.3038,5.216,5.2487,5.2754,5.2636,5.2611,5.2686,5.2636,5.2787,5.2895,5.2895,5.2895,5.287,5.2719,5.2719,5.2694,5.277,5.2837,5.2887,5.2988,5.3339,5.3582,5.3708,5.4009,5.4454,5.4403,5.4504,5.4554,5.4655,5.4622,5.4848,5.5232,5.534,5.544,5.5874,5.6043,5.5917,6.6488,6.6026,6.5162,6.457,6.4245,6.4502,6.429,6.3807,6.4063,6.3899,6.3509,6.3626,6.3825,6.4006,6.3917,6.4066,6.4411,6.4785,6.4994,6.5024,6.5398,6.5188,6.4411,6.4156,6.4006,6.4006,6.4006,6.4082,6.4246,6.4351,6.4411,6.4351,6.3782,6.3482,6.3452,6.3328,6.3209,6.3122,6.3223,6.3173,6.3001,6.2765,6.2286,6.1551,6.1197,6.0659,5.9798,5.9711,5.9518,5.9129,5.883,5.8697,5.8697,5.8441,5.7953,5.7218,5.6781,5.6364,5.5865,5.642,5.664,5.6347,5.6556,5.6566,5.601,5.5988,5.5491,5.4546,5.5079,5.5123,5.4069,5.4408,5.4407,5.3577,5.378,5.3699,5.2936,5.2986,5.2941,5.2628,5.2744,5.2895,5.2895,5.2895,5.2744,5.2586,5.2686,5.292,5.2895,5.2895,5.2895,5.2895,5.2895,5.2895,5.292,5.3188,5.3314,5.3464,5.3858,5.4228,5.4278,5.4378,5.4672,5.4981,5.5056,5.5232,5.5566,5.5541,5.5641,5.5824,5.5849,5.5949,5.615,5.6219,5.6093,6.5512,6.5377,6.4582,6.3803,6.3122,6.3108,6.3108,6.3108,6.3108,6.3108,6.3108,6.3108,6.3333,6.3647,6.3273,6.3333,6.3767,6.4276,6.459,6.477,6.5248,6.5009,6.4336,6.4261,6.4261,6.4291,6.4485,6.48,6.5159,6.462,6.4186,6.3947,6.3572,6.3287,6.3108,6.3108,6.3108,6.3108,6.3108,6.3108,6.3077,6.28,6.247,6.2104,6.1824,6.1267,6.0443,6.037,6.0057,5.9398,5.9368,5.9368,5.9368,5.9055,5.8323,5.7297,5.674,5.6297,5.5954,5.6323,5.6489,5.6331,5.6312,5.5991,5.5356,5.5172,5.4735,5.3997,5.451,5.4564,5.3762,5.41,5.422,5.3761,5.3904,5.3867,5.3349,5.305,5.2895,5.2895,5.287,5.2895,5.292,5.302,5.3038,5.2762,5.2929,5.3113,5.3071,5.302,5.2895,5.2895,5.2895,5.2895,5.292,5.3314,5.3632,5.3884,5.4235,5.4805,5.4873,5.4906,5.5082,5.5566,5.5591,5.5666,5.5892,5.6093,5.615,5.6194,5.6194,5.6175,5.6219,5.6219,5.6219,6.3252,6.3279,6.3223,6.3179,6.3108,6.3108,6.3108,6.3108,6.3108,6.3108,6.3108,6.3138,6.3138,6.3227,6.3213,6.3138,6.3197,6.3333,6.3677,6.4141,6.4246,6.4441,6.4934,6.4964,6.4964,6.5009,6.5458,6.5802,6.5847,6.5263,6.465,6.4036,6.3947,6.3662,6.3227,6.3138,6.3108,6.3108,6.3108,6.3108,6.3108,6.3062,6.2763,6.2225,6.209,6.1761,6.115,6.106,6.0731,6.01,6.007,6.0027,5.9917,5.877,5.7728,5.7105,5.6988,5.6454,5.5422,5.5344,5.5158,5.4581,5.4622,5.4613,5.5099,5.5086,5.4828,5.4465,5.4462,5.4289,5.3803,5.4151,5.4183,5.3623,5.3529,5.3408,5.3006,5.2947,5.2895,5.2895,5.2962,5.2945,5.2937,5.3364,5.3532,5.3482,5.3565,5.3565,5.3457,5.3163,5.2945,5.2895,5.2895,5.2895,5.2945,5.349,5.3758,5.4009,5.4662,5.5358,5.5541,5.5717,5.5942,5.6093,5.6043,5.6068,5.6168,5.6219,5.6194,5.6219,5.6219,5.6219,5.6219,5.6219,5.6219,6.3452,6.3108,6.3108,6.3108,6.3108,6.3108,6.3108,6.3108,6.3108,6.3108,6.3197,6.3512,6.3692,6.3677,6.4126,6.4096,6.3752,6.4126,6.4441,6.468,6.5069,6.5188,6.4994,6.4994,6.5233,6.5637,6.5892,6.6011,6.5996,6.5727,6.5308,6.465,6.4216,6.3871,6.3662,6.3273,6.3108,6.3108,6.3108,6.3108,6.3108,6.3108,6.2974,6.2778,6.2748,6.2435,6.1762,6.1732,6.1433,6.0775,6.0745,6.0352,5.9388,5.7409,5.6141,5.5895,5.5481,5.5029,5.4691,5.4939,5.5066,5.4832,5.4785,5.4821,5.4996,5.4872,5.4645,5.4494,5.4275,5.4004,5.3793,5.4074,5.4125,5.3648,5.3551,5.3411,5.3047,5.2895,5.2895,5.2945,5.3163,5.3289,5.3113,5.3364,5.354,5.3239,5.3188,5.3239,5.3188,5.2995,5.2895,5.2895,5.2895,5.2895,5.2895,5.3733,5.4328,5.4604,5.5082,5.5616,5.5924,5.5917,5.605,5.6143,5.6194,5.6219,5.6219,5.6276,5.6276,5.6276,5.6276,5.6344,5.6219,5.6244,5.6244,6.4082,6.3752,6.3707,6.3707,6.3707,6.3722,6.3722,6.3722,6.3707,6.3707,6.3797,6.4156,6.4321,6.4381,6.4785,6.4919,6.4665,6.4904,6.5114,6.5368,6.5787,6.5847,6.5697,6.5637,6.5877,6.6281,6.634,6.6295,6.6311,6.634,6.5966,6.5338,6.4829,6.4395,6.4021,6.3602,6.3333,6.3168,6.3108,6.3108,6.3108,6.3108,6.3108,6.3108,6.3108,6.2884,6.2421,6.2421,6.1848,6.0969,6.0779,5.9989,5.8166,5.6688,5.5618,5.5178,5.476,5.4497,5.4524,5.4889,5.5072,5.5099,5.5082,5.5065,5.4905,5.4645,5.4504,5.438,5.4073,5.3742,5.3638,5.3737,5.3694,5.3391,5.3411,5.3289,5.2962,5.2895,5.297,5.3188,5.3457,5.3464,5.3289,5.349,5.3507,5.3188,5.3163,5.3163,5.3163,5.3013,5.2895,5.2895,5.2895,5.2895,5.297,5.3582,5.4009,5.431,5.4805,5.5491,5.5974,5.5974,5.6093,5.6168,5.6244,5.6219,5.6269,5.6351,5.6408,5.6433,5.6527,5.6627,5.6477,5.6319,5.6294,6.4964,6.4904,6.4994,6.4874,6.4815,6.4815,6.4934,6.4845,6.4874,6.4785,6.4755,6.4964,6.4994,6.5024,6.5174,6.5428,6.5757,6.5428,6.5503,6.5996,6.6056,6.64,6.6789,6.6789,6.6789,6.6879,6.6954,6.6939,6.6909,6.6879,6.658,6.6116,6.5892,6.5218,6.4096,6.4006,6.3692,6.3287,6.3168,6.3108,6.3108,6.3108,6.3108,6.3108,6.3108,6.302,6.2932,6.2932,6.2039,6.0472,6.0105,5.885,5.6914,5.6562,5.639,5.5297,5.5063,5.5089,5.5046,5.5072,5.5082,5.5032,5.5065,5.4872,5.4561,5.4427,5.4388,5.4277,5.3817,5.3518,5.3578,5.329,5.3039,5.2912,5.2988,5.2945,5.292,5.2895,5.3088,5.3464,5.3658,5.3708,5.3683,5.3683,5.3658,5.3632,5.3515,5.3482,5.3406,5.3138,5.292,5.2895,5.2895,5.2895,5.3071,5.3314,5.354,5.3833,5.4378,5.4981,5.5465,5.5641,5.6018,5.6194,5.6696,5.6721,5.6796,5.6878,5.6979,5.7029,5.7029,5.7004,5.6928,5.6796,5.6401,6.4994,6.4994,6.4994,6.4994,6.4994,6.4994,6.4994,6.4994,6.4994,6.4994,6.5084,6.5488,6.5667,6.5787,6.6146,6.6475,6.667,6.646,6.649,6.6655,6.667,6.6759,6.6939,6.6999,6.6999,6.6999,6.6999,6.6999,6.6999,6.6999,6.6864,6.664,6.6221,6.5817,6.5248,6.4485,6.3871,6.3707,6.3303,6.3108,6.3108,6.3108,6.3108,6.3108,6.3108,6.2716,6.1791,6.1747,6.1422,6.0698,5.9887,5.8613,5.7045,5.6113,5.5554,5.5182,5.5099,5.5099,5.5099,5.5082,5.4982,5.4772,5.4721,5.4494,5.4174,5.3971,5.4031,5.4154,5.3592,5.3217,5.3499,5.3213,5.292,5.2895,5.2895,5.2895,5.2895,5.292,5.297,5.3138,5.3482,5.3683,5.3708,5.3708,5.3658,5.3632,5.3389,5.3188,5.3121,5.3046,5.2895,5.2895,5.2895,5.2945,5.3163,5.3314,5.3507,5.3758,5.4202,5.4748,5.5157,5.5591,5.5942,5.6495,5.6972,5.7198,5.7298,5.7449,5.7556,5.7606,5.7606,5.7556,5.7506,5.7154,5.6652,6.5727,6.5727,6.5727,6.5727,6.5727,6.5727,6.5727,6.5757,6.5727,6.5757,6.5847,6.6191,6.637,6.646,6.6819,6.6969,6.6953,6.6507,6.6507,6.6953,6.6999,6.6999,6.6999,6.6999,6.6999,6.6999,6.6999,6.6999,6.6999,6.6999,6.6999,6.6879,6.658,6.6056,6.5637,6.4829,6.4216,6.3722,6.3273,6.3108,6.3108,6.3108,6.2861,6.2438,6.238,6.1658,6.046,5.9911,5.9604,5.9387,5.834,5.7221,5.634,5.5554,5.5099,5.5099,5.5099,5.5099,5.5082,5.4939,5.4909,5.482,5.4703,5.4577,5.4406,5.4173,5.4255,5.4241,5.3696,5.3356,5.3557,5.3213,5.292,5.2895,5.2895,5.2895,5.292,5.3088,5.3213,5.3314,5.3515,5.3658,5.3708,5.3464,5.3414,5.3339,5.3113,5.2895,5.2895,5.2895,5.2895,5.2895,5.2895,5.2995,5.3188,5.3356,5.3507,5.3801,5.4152,5.468,5.5157,5.5666,5.6075,5.6947,5.7549,5.7575,5.765,5.8001,5.8183,5.8183,5.8127,5.8027,5.7832,5.7179,5.6728,6.6969,6.6999,6.6969,6.6879,6.6879,6.6879,6.6819,6.6909,6.6909,6.6849,6.6909,6.6879,6.6939,6.6969,6.6969,6.6999,6.6754,6.5653,6.5825,6.6661,6.6815,6.6738,6.6983,6.6999,6.6999,6.6999,6.6999,6.6877,6.6646,6.6907,6.6937,6.6723,6.6757,6.637,6.5428,6.5039,6.4381,6.3452,6.3183,6.3108,6.3079,6.2934,6.2395,6.1271,6.1032,6.0354,5.9064,5.7948,5.7233,5.692,5.6092,5.5481,5.5234,5.5125,5.5099,5.5099,5.5125,5.517,5.5051,5.5099,5.4968,5.5194,5.5031,5.4891,5.4916,5.4819,5.4713,5.456,5.4069,5.3733,5.3658,5.3432,5.3138,5.2988,5.2962,5.292,5.3046,5.3457,5.3607,5.3733,5.3758,5.3733,5.3733,5.3314,5.3113,5.2945,5.2937,5.2895,5.2895,5.2895,5.2895,5.292,5.297,5.3213,5.3432,5.3801,5.3976,5.4378,5.4579,5.4881,5.5458,5.5993,5.6652,5.7499,5.8001,5.8001,5.8152,5.8554,5.8635,5.851,5.8434,5.8359,5.7907,5.7204,5.6809,6.6999,6.6999,6.6999,6.6999,6.6999,6.6999,6.6999,6.6999,6.6999,6.6999,6.6999,6.6999,6.6999,6.6983,6.6983,6.6999,6.6569,6.548,6.5653,6.6661,6.5856,6.6136,6.68,6.6999,6.6999,6.6999,6.6861,6.6476,6.5605,6.6367,6.6338,6.5527,6.6445,6.6519,6.5817,6.5203,6.4575,6.3797,6.3303,6.3109,6.292,6.2131,6.1495,6.1107,6.0154,5.9015,5.7729,5.6725,5.6218,5.6158,5.5532,5.5308,5.5621,5.5343,5.5203,5.5229,5.5491,5.5565,5.5473,5.5793,5.5831,5.5258,5.5353,5.5237,5.4749,5.4764,5.4686,5.4572,5.4421,5.4177,5.3884,5.3951,5.3876,5.3532,5.3188,5.3239,5.3826,5.3901,5.3858,5.4253,5.4328,5.4127,5.3833,5.3582,5.3314,5.302,5.292,5.2945,5.297,5.2995,5.3046,5.3113,5.3188,5.3457,5.3733,5.4127,5.4529,5.4981,5.5164,5.5239,5.5917,5.6646,5.7455,5.8334,5.8535,5.8585,5.888,5.9207,5.9062,5.866,5.8635,5.8485,5.7826,5.7173,5.6853,6.7254,6.6999,6.6999,6.6999,6.6999,6.6999,6.6999,6.6999,6.6999,6.6999,6.6999,6.6999,6.6999,6.6953,6.6414,6.612,6.5903,6.4672,6.4816,6.5933,6.5919,6.6307,6.6861,6.6999,6.6999,6.6892,6.6384,6.5829,6.5279,6.5312,6.4849,6.4672,6.5533,6.5734,6.5099,6.5426,6.4919,6.4186,6.3842,6.3487,6.2293,6.1787,6.074,6.0031,5.8907,5.8033,5.703,5.6515,5.6275,5.6223,5.6013,5.5944,5.6179,5.6013,5.5787,5.583,5.6101,5.6104,5.5848,5.6159,5.6122,5.5777,5.5818,5.5741,5.5608,5.5508,5.549,5.5017,5.4949,5.4629,5.4228,5.4202,5.4177,5.4052,5.3582,5.3515,5.4177,5.4127,5.4228,5.4496,5.4572,5.4522,5.4102,5.3884,5.3582,5.3289,5.302,5.3113,5.3213,5.3213,5.3314,5.3532,5.3758,5.4102,5.4386,5.4755,5.5114,5.5566,5.5993,5.5993,5.6595,5.7349,5.7882,5.861,5.8936,5.9112,5.9056,5.9006,5.8786,5.8535,5.861,5.8284,5.7581,5.7097,5.6803,6.7628,6.6999,6.6999,6.6999,6.6999,6.6999,6.6999,6.6999,6.6999,6.6999,6.6999,6.6999,6.68,6.6708,6.5574,6.4989,6.4896,6.3659,6.3741,6.4848,6.587,6.6723,6.6044,6.6785,6.6754,6.6507,6.5432,6.4917,6.4446,6.3371,6.3071,6.3356,6.4152,6.4434,6.4271,6.4901,6.4813,6.4055,6.3771,6.2978,6.1564,6.1157,6.0266,5.8759,5.802,5.7631,5.7119,5.6902,5.6928,5.6989,5.6885,5.6771,5.6824,5.685,5.6728,5.6728,5.6737,5.6712,5.6348,5.6216,5.6212,5.6402,5.629,5.6315,5.6566,5.6526,5.6197,5.5351,5.544,5.5239,5.4906,5.4328,5.4303,5.4529,5.421,5.4009,5.3959,5.4353,5.468,5.4773,5.4798,5.4773,5.4572,5.4235,5.3858,5.3582,5.3389,5.3532,5.365,5.3708,5.3951,5.4253,5.4547,5.4823,5.5107,5.5408,5.5767,5.6175,5.6728,5.7029,5.7531,5.8083,5.8359,5.8685,5.8786,5.8604,5.8278,5.8227,5.8234,5.8108,5.7957,5.7612,5.7186,5.6878,5.6602,6.7628,6.6999,6.6999,6.6999,6.6999,6.6999,6.6999,6.6999,6.6999,6.6968,6.6968,6.6968,6.6307,6.5353,6.488,6.4925,6.4496,6.3316,6.3037,6.348,6.5948,6.5495,6.4768,6.5731,6.626,6.5511,6.5071,6.381,6.2365,6.2426,6.2214,6.1533,6.2604,6.3472,6.3767,6.322,6.2961,6.2904,6.236,6.1709,6.0872,6.0037,5.938,5.8417,5.7643,5.7315,5.7485,5.7512,5.7704,5.7817,5.7355,5.7111,5.7338,5.7111,5.6954,5.7033,5.7294,5.7216,5.6733,5.7097,5.7502,5.6752,5.6967,5.7279,5.6787,5.6819,5.636,5.5724,5.5767,5.5867,5.5717,5.5333,5.5082,5.5114,5.5315,5.534,5.5139,5.5114,5.5383,5.5666,5.5767,5.5691,5.5308,5.5107,5.4612,5.3984,5.3858,5.4002,5.4102,5.4228,5.4529,5.4881,5.5107,5.5333,5.5458,5.5742,5.6118,5.6552,5.7129,5.7556,5.8083,5.8409,5.8535,5.851,5.8485,5.8177,5.765,5.7775,5.7857,5.7581,5.7305,5.7079,5.6809,5.6559,5.6477,6.7613,6.6999,6.6999,6.6999,6.6999,6.6999,6.6999,6.6999,6.6999,6.6615,6.6105,6.6027,6.5213,6.3887,6.3235,6.2844,6.2745,6.2181,6.2175,6.2922,6.4416,6.4113,6.3382,6.4065,6.456,6.3838,6.3091,6.1985,6.1364,6.081,6.0448,6.0167,6.1227,6.1836,6.2488,6.219,6.2365,6.2383,6.2022,6.1228,5.9928,5.9543,5.8803,5.8452,5.7824,5.7791,5.8026,5.8096,5.8209,5.8287,5.793,5.7712,5.7965,5.7791,5.7634,5.7686,5.7843,5.7518,5.7086,5.7066,5.7221,5.6719,5.7033,5.7167,5.7079,5.7073,5.6682,5.6099,5.6018,5.6194,5.6168,5.5717,5.544,5.5415,5.5641,5.5691,5.5516,5.5616,5.5842,5.6143,5.6143,5.6018,5.5842,5.5634,5.5333,5.4662,5.4303,5.4429,5.4805,5.4931,5.5157,5.5458,5.5641,5.5792,5.5842,5.6043,5.6369,5.6828,5.7355,5.7681,5.8008,5.8284,5.851,5.8309,5.8033,5.7481,5.7079,5.728,5.733,5.6979,5.6728,5.6577,5.6477,5.6376,5.6344,6.7628,6.6999,6.6999,6.6999,6.6999,6.6999,6.6999,6.6999,6.6999,6.6476,6.5353,6.5039,6.4335,6.2807,6.1419,6.0705,6.0774,6.1199,6.1908,6.2275,6.2922,6.2575,6.217,6.2381,6.2515,6.2103,6.1419,6.0891,6.0387,5.9528,5.9193,5.934,5.9905,6.0558,6.0917,6.1409,6.1764,6.159,6.1475,6.0807,5.9295,5.9223,5.8813,5.8262,5.821,5.8322,5.84,5.8444,5.8479,5.8505,5.8505,5.8505,5.8505,5.8505,5.8505,5.8453,5.8243,5.7524,5.6754,5.6563,5.6547,5.6398,5.6685,5.6845,5.7151,5.7213,5.6921,5.6485,5.6219,5.6219,5.6168,5.5867,5.5634,5.5584,5.5541,5.5516,5.5591,5.5942,5.6143,5.6194,5.6219,5.6118,5.6018,5.5842,5.5616,5.5365,5.5031,5.4881,5.5232,5.5516,5.5691,5.5792,5.5942,5.5993,5.6043,5.6326,5.6652,5.7054,5.7606,5.7907,5.8033,5.7907,5.7983,5.7757,5.7405,5.6928,5.6652,5.6753,5.6652,5.6326,5.6326,5.6401,5.6326,5.6244,5.6219,6.7613,6.6999,6.6999,6.6999,6.6999,6.6999,6.6999,6.6999,6.6937,6.6846,6.6353,6.5353,6.3871,6.2558,6.1233,6.0603,6.062,6.1165,6.1521,6.1335,6.179,6.1616,6.0143,6.0913,6.0785,5.9857,5.9846,6.0013,5.9316,5.8664,5.8601,5.8698,5.8867,5.942,5.9924,5.9906,6.006,6.0454,6.0067,5.9181,5.8858,5.8701,5.8754,5.8287,5.8427,5.8479,5.8505,5.8505,5.8505,5.8505,5.8505,5.8505,5.8505,5.8505,5.8479,5.826,5.7796,5.715,5.6435,5.631,5.6156,5.6172,5.6718,5.702,5.6986,5.7062,5.6924,5.6417,5.6143,5.6168,5.6175,5.5968,5.6043,5.6043,5.6018,5.6018,5.6043,5.6118,5.6219,5.6219,5.6219,5.6219,5.6118,5.6018,5.5867,5.5742,5.5616,5.5383,5.5465,5.5767,5.6043,5.6093,5.6143,5.6168,5.6194,5.6577,5.6953,5.7323,5.7801,5.8259,5.8208,5.7631,5.738,5.7455,5.7204,5.6778,5.6552,5.6401,5.6326,5.6269,5.6276,5.6326,5.6269,5.6219,5.6219,6.7284,6.6999,6.6999,6.6999,6.6999,6.6999,6.6999,6.6861,6.6229,6.5495,6.4547,6.3316,6.1908,6.0681,5.9933,5.9516,5.9812,6.0114,6.0114,5.9812,6.0123,6.0054,5.8576,5.9642,5.9334,5.8885,5.9175,5.928,5.855,5.8523,5.8505,5.8505,5.8505,5.8885,5.9263,5.8947,5.8877,5.928,5.8885,5.8505,5.8505,5.8505,5.8505,5.8505,5.8505,5.8505,5.8505,5.8505,5.8505,5.8505,5.8505,5.8505,5.8505,5.8461,5.826,5.7814,5.7326,5.6622,5.5895,5.5632,5.5675,5.608,5.6721,5.7013,5.7037,5.7146,5.6848,5.6121,5.5792,5.5792,5.5767,5.5792,5.5917,5.6143,5.6219,5.6219,5.6219,5.6219,5.6219,5.6219,5.6219,5.6219,5.6219,5.6118,5.6043,5.6068,5.6093,5.5968,5.5767,5.5942,5.6219,5.6219,5.6219,5.6219,5.6244,5.6552,5.6935,5.738,5.7775,5.8234,5.8309,5.7706,5.7581,5.7631,5.723,5.6577,5.6426,5.6294,5.6244,5.6219,5.6244,5.6269,5.6244,5.6219,5.6219,6.6999,6.6999,6.6999,6.6999,6.6999,6.6999,6.6785,6.6398,6.5416,6.4223,6.2707,6.1369,6.0148,5.914,5.8726,5.8558,5.8505,5.8603,5.8656,5.8691,5.8726,5.855,5.854,5.8627,5.8715,5.8637,5.8838,5.8627,5.8523,5.8505,5.8505,5.8505,5.8505,5.8505,5.8558,5.8567,5.8505,5.8505,5.8505,5.8505,5.8505,5.8505,5.8505,5.8505,5.8505,5.8505,5.8505,5.834,5.8392,5.8418,5.8392,5.8366,5.8479,5.8505,5.8006,5.7135,5.6935,5.6244,5.5641,5.5117,5.5521,5.6167,5.6374,5.675,5.6869,5.6806,5.6475,5.5653,5.5257,5.5239,5.5257,5.5358,5.5591,5.5892,5.6118,5.6219,5.6219,5.6219,5.6219,5.6219,5.6219,5.6219,5.6219,5.6194,5.6118,5.6118,5.6168,5.6168,5.5993,5.6043,5.6219,5.6219,5.6219,5.6219,5.6294,5.6451,5.6803,5.7111,5.743,5.7782,5.7882,5.7782,5.7656,5.7405,5.6878,5.6326,5.6244,5.6219,5.6219,5.6219,5.6219,5.6219,5.6219,5.6219,5.6219,6.6999,6.6999,6.6999,6.6999,6.6999,6.6999,6.626,6.5213,6.4928,6.4097,6.2508,6.125,6.0355,5.9889,5.8903,5.8558,5.8505,5.8505,5.8505,5.8505,5.8505,5.8505,5.8583,5.9089,5.881,5.8627,5.8959,5.8959,5.8627,5.8505,5.8505,5.8505,5.8505,5.8505,5.8505,5.8505,5.8505,5.8505,5.8505,5.8505,5.8505,5.8505,5.8505,5.8505,5.8505,5.8505,5.8453,5.8209,5.8104,5.8418,5.807,5.807,5.8374,5.8505,5.7685,5.6876,5.6392,5.6323,5.5969,5.5547,5.5676,5.6366,5.6737,5.6802,5.6685,5.6167,5.5732,5.5505,5.4981,5.4705,5.4755,5.5107,5.5358,5.5666,5.5968,5.6143,5.6219,5.6219,5.6219,5.6219,5.6219,5.6219,5.6219,5.6219,5.6194,5.6219,5.6219,5.6219,5.6219,5.6219,5.6219,5.6219,5.6219,5.6219,5.6244,5.6401,5.6552,5.686,5.7136,5.738,5.7481,5.7481,5.7154,5.6828,5.6426,5.6326,5.6394,5.6369,5.6269,5.6219,5.6219,5.6219,5.6219,5.6219,5.6219,6.6999,6.6999,6.6999,6.6999,6.6999,6.6999,6.6198,6.4928,6.4016,6.2906,6.147,6.0045,5.942,5.9298,5.8673,5.8523,5.8505,5.8505,5.8505,5.8505,5.8505,5.8505,5.8531,5.8758,5.8679,5.8679,5.8732,5.8732,5.8531,5.8505,5.8505,5.8505,5.8505,5.8505,5.8505,5.8505,5.8505,5.8505,5.8505,5.8505,5.8505,5.8505,5.8505,5.8505,5.8505,5.8505,5.8427,5.834,5.8235,5.8453,5.8209,5.8235,5.8427,5.8427,5.7894,5.679,5.6582,5.634,5.5831,5.558,5.6055,5.6712,5.7075,5.6955,5.6566,5.5919,5.5232,5.4931,5.4429,5.4152,5.4202,5.4604,5.5031,5.539,5.5842,5.6093,5.6219,5.6219,5.6219,5.6219,5.6219,5.6219,5.6219,5.6219,5.6219,5.6219,5.6219,5.6219,5.6219,5.6219,5.6219,5.6219,5.6219,5.6219,5.6244,5.6301,5.6319,5.6552,5.691,5.7104,5.7179,5.7079,5.6803,5.6803,5.6734,5.6677,5.6602,5.647,5.6344,5.6269,5.6219,5.6219,5.6219,5.6219,5.6219,6.6999,6.6999,6.6999,6.6999,6.6953,6.6646,6.5902,6.4768,6.2976,6.1655,6.0465,5.9228,5.8558,5.8505,5.854,5.8505,5.8505,5.8505,5.8505,5.8505,5.8505,5.8505,5.8505,5.8531,5.8531,5.8505,5.8557,5.8531,5.8531,5.8505,5.8505,5.8505,5.8505,5.8505,5.8505,5.8505,5.8505,5.8505,5.8505,5.8505,5.8505,5.8505,5.8505,5.8505,5.8505,5.8505,5.8479,5.8287,5.8261,5.8453,5.8261,5.8235,5.8453,5.8453,5.8061,5.7268,5.7077,5.6834,5.6366,5.6158,5.6513,5.6938,5.709,5.6608,5.6327,5.5728,5.5031,5.4429,5.4059,5.3733,5.3683,5.4152,5.4705,5.5257,5.5742,5.6018,5.6219,5.6219,5.6219,5.6219,5.6219,5.6219,5.6219,5.6219,5.6219,5.6219,5.6219,5.6219,5.6219,5.6219,5.6219,5.6219,5.6219,5.6219,5.6219,5.6244,5.6219,5.6294,5.6627,5.6778,5.6803,5.6778,5.6627,5.6709,5.686,5.686,5.6702,5.6552,5.642,5.647,5.647,5.6269,5.6219,5.6219,5.6219,6.6999,6.6999,6.6983,6.6968,6.6922,6.559,6.5039,6.4512,6.1997,6.0859,6.0252,5.9193,5.8505,5.8505,5.8505,5.8505,5.8505,5.8505,5.8505,5.8505,5.8505,5.8505,5.8505,5.8505,5.8505,5.8505,5.8505,5.8505,5.8505,5.8505,5.8505,5.8505,5.8505,5.8505,5.8505,5.8505,5.8505,5.8505,5.8505,5.8505,5.8505,5.8505,5.8505,5.8505,5.8505,5.8505,5.8479,5.8148,5.8096,5.8453,5.82,5.8148,5.8427,5.8505,5.8104,5.7651,5.7486,5.7355,5.7129,5.6764,5.6791,5.6831,5.6569,5.6104,5.5782,5.553,5.4856,5.4127,5.3934,5.359,5.359,5.3858,5.4705,5.5132,5.5666,5.6043,5.6219,5.6219,5.6219,5.6219,5.6219,5.6219,5.6219,5.6219,5.6219,5.6219,5.6219,5.6219,5.6219,5.6219,5.6219,5.6219,5.6219,5.6219,5.6219,5.6219,5.6219,5.6219,5.6394,5.642,5.6369,5.6344,5.6426,5.6477,5.6559,5.6684,5.6835,5.6803,5.6753,5.6778,5.6702,5.6495,5.6269,5.6219,5.6219,6.6999,6.6892,6.6089,6.6214,6.6983,6.6445,6.5211,6.361,6.2425,6.0842,5.9333,5.8744,5.8505,5.8505,5.8505,5.8505,5.8505,5.8505,5.8505,5.8505,5.8505,5.8505,5.8505,5.8505,5.8505,5.8505,5.8505,5.8505,5.8505,5.8505,5.8505,5.8505,5.8479,5.8505,5.8505,5.8505,5.8505,5.8505,5.8505,5.8505,5.8505,5.8505,5.8505,5.8505,5.8505,5.8505,5.8479,5.8314,5.8366,5.8392,5.8279,5.834,5.8427,5.8479,5.8235,5.7808,5.7773,5.7747,5.7625,5.7155,5.6678,5.6259,5.6055,5.5796,5.5318,5.4856,5.4762,5.4386,5.4034,5.3615,5.4102,5.4604,5.5182,5.5308,5.5559,5.5942,5.6143,5.6093,5.6194,5.6194,5.6194,5.6219,5.6219,5.6219,5.6219,5.6219,5.6219,5.6219,5.6219,5.6219,5.6219,5.6219,5.6219,5.6219,5.6219,5.6219,5.6219,5.6219,5.6219,5.6219,5.6219,5.6219,5.6294,5.6301,5.6527,5.6928,5.7129,5.7085,5.706,5.7054,5.6903,5.6652,5.647,5.6244,5.6219,6.7052,6.6542,6.538,6.5464,6.6229,6.548,6.4258,6.2856,6.1756,6.0527,5.8523,5.8505,5.8505,5.8505,5.8505,5.8505,5.8505,5.8505,5.8505,5.8505,5.8505,5.8505,5.8505,5.8505,5.8505,5.8505,5.8505,5.8505,5.8505,5.8505,5.8366,5.8314,5.8418,5.8479,5.8505,5.8505,5.8505,5.8505,5.8505,5.8505,5.8505,5.8505,5.8505,5.8505,5.8505,5.8505,5.8505,5.8427,5.8453,5.8479,5.8453,5.8479,5.8505,5.8453,5.8287,5.807,5.7913,5.7939,5.7721,5.6964,5.6322,5.5992,5.5561,5.5375,5.5045,5.4529,5.4687,5.4235,5.3909,5.3833,5.4295,5.4361,5.4604,5.4604,5.5082,5.5483,5.5742,5.5817,5.6018,5.6168,5.6194,5.6219,5.6219,5.6219,5.6219,5.6219,5.6219,5.6219,5.6219,5.6219,5.6219,5.6219,5.6219,5.6219,5.6219,5.6219,5.6219,5.6219,5.6219,5.6219,5.6219,5.6219,5.6219,5.6251,5.6602,5.7204,5.743,5.7481,5.7405,5.7305,5.6979,5.6502,5.642,5.6219,5.6219,6.7163,6.5896,6.5157,6.4848,6.4544,6.198,6.1639,6.2159,6.0054,5.8797,5.8523,5.8505,5.8505,5.8505,5.8505,5.8505,5.8505,5.8505,5.8505,5.8505,5.8505,5.8505,5.8505,5.8505,5.8505,5.8505,5.8418,5.8366,5.84,5.8217,5.8026,5.7965,5.8104,5.8444,5.8479,5.8479,5.8479,5.8505,5.8479,5.8427,5.8505,5.8505,5.8505,5.8505,5.8505,5.8505,5.8505,5.8505,5.8505,5.8505,5.8505,5.8505,5.8505,5.8505,5.8453,5.8418,5.8418,5.84,5.8277,5.6692,5.5994,5.5751,5.5279,5.4844,5.4816,5.473,5.4612,5.4009,5.3632,5.3464,5.3464,5.354,5.3934,5.4253,5.473,5.5006,5.5282,5.5591,5.5792,5.5968,5.6118,5.6219,5.6219,5.6219,5.6219,5.6219,5.6219,5.6219,5.6219,5.6219,5.6219,5.6219,5.6219,5.6219,5.6219,5.6219,5.6219,5.6219,5.6219,5.6219,5.6219,5.6219,5.6219,5.6251,5.6677,5.723,5.7606,5.7876,5.7631,5.733,5.6677,5.6276,5.6219,5.6219,5.6219,6.719,6.578,6.416,6.291,6.2114,6.2142,6.1857,6.1063,5.9438,5.8505,5.8505,5.8505,5.8505,5.8505,5.8505,5.8505,5.8505,5.8505,5.8505,5.8505,5.8505,5.8505,5.8505,5.8505,5.8479,5.8392,5.8235,5.8017,5.7957,5.7712,5.7381,5.7268,5.7756,5.8148,5.8287,5.8261,5.8078,5.834,5.8235,5.8096,5.8427,5.8479,5.8505,5.8505,5.8505,5.8505,5.8505,5.8505,5.8505,5.8505,5.8505,5.8505,5.8505,5.8505,5.8505,5.8505,5.8461,5.803,5.7399,5.6258,5.5753,5.5436,5.5054,5.4672,5.4647,5.3959,5.3808,5.3833,5.3607,5.3683,5.4102,5.4177,5.4421,5.4446,5.4697,5.4723,5.4906,5.5265,5.5541,5.5717,5.5885,5.6093,5.6194,5.6219,5.6219,5.6219,5.6219,5.6219,5.6219,5.6219,5.6219,5.6219,5.6219,5.6219,5.6219,5.6219,5.6219,5.6219,5.6219,5.6219,5.6219,5.6219,5.6426,5.6577,5.6903,5.7255,5.7681,5.8001,5.7656,5.723,5.6577,5.6244,5.6219,5.6219,5.6219,6.6348,6.4299,6.271,6.1199,6.0148,6.092,6.0715,5.9794,5.8903,5.8505,5.8505,5.8505,5.8505,5.8505,5.8505,5.8505,5.8505,5.8505,5.8505,5.8505,5.8505,5.8505,5.8505,5.8453,5.834,5.8209,5.7957,5.7739,5.7721,5.7129,5.6902,5.7007,5.7407,5.7834,5.8017,5.7913,5.7878,5.8044,5.7887,5.7878,5.8174,5.834,5.8505,5.8505,5.8505,5.8505,5.8505,5.8505,5.8505,5.8505,5.8505,5.8505,5.8505,5.8505,5.8505,5.8505,5.8258,5.7728,5.689,5.6545,5.6098,5.5645,5.5139,5.4798,5.4597,5.4127,5.3808,5.3733,5.3683,5.3733,5.3976,5.4145,5.4195,5.4195,5.4145,5.4127,5.4378,5.4712,5.5064,5.5282,5.5634,5.5892,5.6219,5.6194,5.6219,5.6219,5.6219,5.6219,5.6219,5.6219,5.6219,5.6219,5.6219,5.6219,5.6219,5.6219,5.6219,5.6219,5.6219,5.6219,5.6219,5.6219,5.6552,5.6928,5.728,5.7625,5.7976,5.8052,5.765,5.7104,5.6477,5.6251,5.6219,5.6219,5.6219,6.4712,6.1738,6.0881,5.9854,5.8691,5.8815,5.87,5.8558,5.854,5.8505,5.8505,5.8505,5.8505,5.8505,5.8505,5.8505,5.8505,5.8505,5.8505,5.8505,5.8505,5.8505,5.8479,5.8418,5.8235,5.7913,5.7643,5.7538,5.759,5.7085,5.6806,5.6928,5.7407,5.7721,5.7773,5.7643,5.7721,5.7861,5.7495,5.7643,5.7991,5.8209,5.8392,5.8427,5.8505,5.8505,5.8505,5.8505,5.8505,5.8505,5.8505,5.8505,5.8505,5.8505,5.8505,5.8381,5.8088,5.741,5.6917,5.6692,5.6475,5.5987,5.567,5.5182,5.478,5.4454,5.4127,5.3775,5.3557,5.3306,5.3206,5.3306,5.3406,5.3356,5.3281,5.3457,5.3733,5.4102,5.4454,5.4805,5.5282,5.5666,5.6226,5.6326,5.6244,5.6394,5.6369,5.6219,5.6219,5.6219,5.6219,5.6219,5.6219,5.6219,5.6219,5.6219,5.6219,5.6219,5.6219,5.6219,5.6219,5.6269,5.6527,5.6928,5.7549,5.7976,5.8278,5.8052,5.7499,5.6972,5.6451,5.6251,5.6219,5.6219,5.6219,6.3671,6.2163,6.1054,5.9794,5.8629,5.8505,5.8505,5.8505,5.8505,5.8505,5.8505,5.8505,5.8505,5.8505,5.8505,5.8505,5.8505,5.8505,5.8505,5.8479,5.8427,5.8479,5.8392,5.8227,5.8122,5.7921,5.766,5.7468,5.7512,5.7085,5.6859,5.6885,5.7468,5.7669,5.759,5.7285,5.7651,5.7704,5.7129,5.7285,5.7756,5.8017,5.8235,5.84,5.8505,5.8505,5.8505,5.8505,5.8505,5.8505,5.8505,5.8505,5.8505,5.8487,5.8434,5.8042,5.7559,5.6975,5.6783,5.6529,5.6328,5.6255,5.6018,5.5735,5.5282,5.483,5.4454,5.4077,5.3851,5.3733,5.3708,5.3733,5.3658,5.3557,5.3507,5.3557,5.3783,5.3826,5.4177,5.4629,5.5082,5.5867,5.6376,5.6326,5.6269,5.6477,5.6527,5.6319,5.6219,5.6219,5.6219,5.6219,5.6219,5.6219,5.6219,5.6219,5.6219,5.6219,5.6219,5.6219,5.6219,5.6319,5.6502,5.6979,5.7606,5.8108,5.851,5.8058,5.7399,5.7004,5.6533,5.6351,5.6219,5.6219,5.6219,6.2106,6.0907,6.0373,5.9625,5.8917,5.8583,5.8505,5.8505,5.8505,5.8505,5.8505,5.8505,5.8505,5.8505,5.8505,5.8505,5.8505,5.8505,5.8505,5.8453,5.8366,5.8348,5.8235,5.82,5.8122,5.8,5.8017,5.7965,5.7773,5.7625,5.7407,5.6876,5.7547,5.7773,5.7617,5.7259,5.7373,5.7312,5.7102,5.6954,5.7242,5.7756,5.8096,5.8322,5.8453,5.8453,5.8479,5.8479,5.8479,5.8505,5.8505,5.8505,5.8452,5.8381,5.7971,5.7559,5.7163,5.6783,5.6547,5.6365,5.6255,5.6219,5.6219,5.6043,5.5709,5.5308,5.4881,5.4504,5.4504,5.4479,5.4479,5.4454,5.4303,5.4127,5.4052,5.3934,5.3858,5.3733,5.4059,5.4511,5.5214,5.605,5.6376,5.6294,5.6344,5.6602,5.6577,5.6294,5.6219,5.6219,5.6219,5.6219,5.6219,5.6219,5.6219,5.6219,5.6219,5.6219,5.6219,5.6219,5.6219,5.6294,5.6451,5.7029,5.7706,5.7964,5.8083,5.7782,5.7255,5.6853,5.6527,5.6344,5.6219,5.6219,5.6219,6.0445,5.8916,5.9246,5.9467,5.9317,5.8836,5.8627,5.8557,5.8627,5.8583,5.8627,5.8583,5.8706,5.8889,5.8897,5.8889,5.8897,5.8923,5.8949,5.8609,5.841,5.841,5.8575,5.8427,5.8174,5.827,5.8349,5.8297,5.8122,5.8052,5.7799,5.7085,5.7895,5.8235,5.7834,5.7155,5.7163,5.746,5.6815,5.631,5.6824,5.7338,5.7782,5.8183,5.827,5.827,5.8374,5.8427,5.8435,5.8461,5.8452,5.8434,5.8284,5.7945,5.7408,5.7109,5.6801,5.6565,5.6383,5.6255,5.6237,5.6219,5.6219,5.6168,5.5917,5.5717,5.5358,5.5157,5.5132,5.5132,5.5132,5.5415,5.5415,5.529,5.5189,5.4938,5.4687,5.4461,5.4353,5.4856,5.5516,5.6276,5.6677,5.6627,5.6577,5.6784,5.6602,5.6269,5.6219,5.6219,5.6219,5.6219,5.6219,5.6219,5.6219,5.6219,5.6219,5.6219,5.6219,5.6219,5.6219,5.6294,5.6401,5.6935,5.7462,5.7361,5.7355,5.7204,5.7029,5.657,5.6319,5.6244,5.6219,5.6219,5.6219,6.0541,6.0439,6.0125,5.9795,5.9403,5.9246,5.9168,5.9168,5.9168,5.9194,5.9168,5.922,5.9403,5.9629,5.9629,5.9673,5.9681,5.955,5.9759,5.949,5.9055,5.8671,5.888,5.8357,5.8148,5.82,5.8331,5.8558,5.8767,5.8679,5.8679,5.8645,5.8784,5.8366,5.8183,5.7399,5.7155,5.759,5.6736,5.6258,5.6667,5.6484,5.6588,5.7042,5.7277,5.7608,5.7669,5.7632,5.798,5.8286,5.8115,5.8052,5.8017,5.7408,5.7055,5.6801,5.6547,5.6365,5.6273,5.6219,5.6219,5.6219,5.6219,5.6219,5.6143,5.6068,5.5942,5.5817,5.5742,5.5742,5.5892,5.6251,5.6527,5.6426,5.6301,5.5942,5.5566,5.5139,5.4805,5.5315,5.5899,5.6351,5.6784,5.691,5.691,5.6734,5.6451,5.6219,5.6219,5.6219,5.6219,5.6219,5.6219,5.6219,5.6219,5.6219,5.6219,5.6219,5.6219,5.6219,5.6219,5.6269,5.6351,5.6734,5.7085,5.6985,5.6979,5.7035,5.6778,5.6344,5.6219,5.6219,5.6219,5.6219,5.6219,6.0412,6.0648,6.0334,6.0039,5.9777,5.9769,5.9638,5.9455,5.9638,5.9926,6.0083,5.9908,5.9916,6.0203,6.0203,6.0256,6.0256,6.0177,5.9908,5.9691,5.9429,5.8985,5.8645,5.8357,5.8366,5.8392,5.8567,5.8872,5.929,5.9168,5.9089,5.9037,5.8653,5.8479,5.8374,5.7686,5.7338,5.7634,5.6736,5.6484,5.6597,5.6379,5.6405,5.6754,5.6859,5.7137,5.7347,5.7371,5.7612,5.7914,5.7838,5.7533,5.739,5.7047,5.6747,5.6547,5.6365,5.6219,5.6219,5.6194,5.6194,5.6194,5.6194,5.6194,5.6219,5.6118,5.6118,5.6018,5.6018,5.6018,5.652,5.6928,5.7204,5.723,5.7097,5.6846,5.6143,5.5465,5.5616,5.6175,5.6527,5.6602,5.6853,5.6702,5.6753,5.686,5.6527,5.6244,5.6219,5.6219,5.6219,5.6219,5.6219,5.6219,5.6219,5.6219,5.6219,5.6219,5.6219,5.6219,5.6219,5.6219,5.6326,5.6577,5.6702,5.6627,5.6627,5.6728,5.6627,5.6276,5.6219,5.6219,5.6219,5.6219,5.6219,6.0465,6.0439,6.0439,6.0386,6.0308,6.0308,6.0091,5.9769,6.0117,6.0648,6.1084,6.0674,6.0465,6.0431,6.0457,6.0439,6.0439,6.0517,6.0117,5.9717,5.9089,5.9011,5.8836,5.8549,5.8583,5.8706,5.888,5.9194,5.956,5.9246,5.8862,5.8627,5.8531,5.8505,5.834,5.8017,5.7721,5.7721,5.7233,5.6693,5.6588,5.651,5.6562,5.6624,5.6754,5.705,5.7233,5.738,5.7385,5.7439,5.7474,5.7235,5.6982,5.6765,5.6522,5.6328,5.6273,5.6219,5.6194,5.6068,5.6118,5.6168,5.615,5.61,5.6093,5.6068,5.6068,5.6043,5.6043,5.662,5.7129,5.7556,5.7807,5.8001,5.7851,5.7625,5.6771,5.5993,5.6401,5.6935,5.6979,5.6979,5.6803,5.6627,5.6627,5.6753,5.6652,5.6394,5.6219,5.6219,5.6219,5.6219,5.6219,5.6219,5.6219,5.6219,5.6219,5.6219,5.6219,5.6219,5.6219,5.6219,5.6219,5.6244,5.6319,5.6351,5.6326,5.6394,5.6269,5.62,5.6219,5.6219,5.6219,5.6219,5.6219,6.1652,6.1652,6.1652,6.1372,6.0961,6.0909,6.0857,6.0797,6.0857,6.1249,6.1626,6.1756,6.1652,6.1626,6.1652,6.1521,6.1163,6.098,6.0883,6.0674,5.9508,5.9246,5.9011,5.8627,5.8836,5.8959,5.9019,5.9184,5.9411,5.9019,5.8889,5.9063,5.8627,5.8479,5.8418,5.8122,5.7913,5.7965,5.7834,5.7364,5.719,5.6902,5.6144,5.6153,5.631,5.6379,5.6503,5.6868,5.7066,5.7155,5.7069,5.6895,5.671,5.6529,5.6353,5.6399,5.6344,5.6269,5.6219,5.5942,5.5942,5.6018,5.5917,5.5591,5.5584,5.5584,5.5559,5.544,5.5817,5.7104,5.7732,5.8158,5.8459,5.8554,5.8529,5.8127,5.7499,5.6979,5.6928,5.7204,5.733,5.7179,5.6953,5.6778,5.6552,5.6602,5.6445,5.6219,5.6219,5.6219,5.6219,5.6219,5.6219,5.6219,5.6219,5.6219,5.6219,5.6219,5.6219,5.6219,5.6219,5.6219,5.6219,5.6219,5.6219,5.6269,5.6219,5.6219,5.6219,5.6219,5.6219,5.6219,5.6219,5.6219,5.6219]},{"header":{"parameterUnit":"m.s-1","parameterCategory":1,"la1":31.0,"la2":29.5877,"lo1":-88.7671,"lo2":-86.6584,"dx":0.0162,"dy":0.0185,"nx":115,"ny":88,"refTime":"2022-11-21T18:00:00:Z","depth":0,"parameterNumber":3,"parameterNumberName":"V-component_of_WINDS"},"data":[0.0,0.0,0.0,0.0,0.0,0.0,0.0,0.0,0.0,0.0,0.0,0.0,0.0,0.0,0.0,0.0,0.0,0.0,0.0,0.0,0.0,0.0,0.0,0.0,0.0,0.0,0.0,0.0,0.0,0.0,0.0,0.0,0.0,0.0,0.0,0.0,0.0,0.0,0.0,0.0,0.0,0.0,0.0,0.0,0.0,0.0,0.0,0.0,0.0,0.0,0.0,0.0,0.0,0.0,0.0,0.0,0.0,0.0,0.0,0.0,0.0,0.0,0.0,0.0,0.0,0.0,0.0,0.0,0.0,0.0,0.0,0.0,0.0,0.0,0.0,0.0,0.0,0.0,0.0,0.0,0.0,0.0,0.0,0.0,0.0,0.0,0.0,0.0,0.0,0.0,0.0,0.0,0.0,0.0,0.0,0.0,0.0,0.0,0.0,0.0,0.0,0.0,0.0,0.0,0.0,0.0,0.0,0.0,0.0,0.0,0.0,0.0,0.0,0.0,0.0,0.0,0.0,0.0,0.0,0.0,0.0,0.0,0.0,0.0,0.0,0.0,0.0,0.0,0.0,0.0,0.0,0.0,0.0,0.0,0.0,0.0,0.0,0.0,0.0,0.0,0.0,0.0,0.0,0.0,0.0,0.0,0.0,0.0,0.0,0.0,0.0,0.0,0.0,0.0,0.0,0.0,0.0,0.0,0.0,0.0,0.0,0.0,0.0,0.0,0.0,0.0,0.0,0.0,0.0,0.0,0.0,0.0,0.0,0.0,0.0,0.0,0.0,0.0,0.0,0.0,0.0,0.0,0.0,0.0,0.0,0.0,0.0,0.0,0.0,0.0,0.0,0.0,0.0,0.0,0.0,0.0,0.0,0.0,0.0,0.0,0.0,0.0,0.0,0.0,0.0,0.0,0.0,0.0,0.0,0.0,0.0,0.0,0.0,0.0,0.0,0.0,0.0,0.0,0.0,0.0,0.0,0.0,0.0,0.0,0.0,0.0,0.0,0.0,0.0,0.0,0.0,0.0,0.0,0.0,0.0,0.0,0.0,0.0,0.0,0.0,0.0,0.0,0.0,0.0,0.0,0.0,0.0,0.0,0.0,0.0,0.0,0.0,0.0,0.0,0.0,0.0,0.0,0.0,0.0,0.0,0.0,0.0,0.0,0.0,0.0,0.0,0.0,0.0,0.0,0.0,0.0,0.0,0.0,0.0,0.0,0.0,0.0,0.0,0.0,0.0,0.0,0.0,0.0,0.0,0.0,0.0,0.0,0.0,0.0,0.0,0.0,0.0,0.0,0.0,0.0,0.0,0.0,0.0,0.0,0.0,0.0,0.0,0.0,0.0,0.0,0.0,0.0,0.0,0.0,0.0,0.0,0.0,0.0,0.0,0.0,0.0,0.0,0.0,0.0,0.0,0.0,0.0,0.0,0.0,0.0,0.0,0.0,0.0,0.0,0.0,0.0,0.0,0.0,0.0,0.0,0.0,0.0,0.0,0.0,0.0,0.0,0.0,0.0,0.0,0.0,0.0,0.0,0.0,0.0,0.0,0.0,0.0,0.0,0.0,0.0,0.0,0.0,0.0,0.0,0.0,0.0,0.0,0.0,0.0,0.0,0.0,0.0,0.0,0.0,0.0,0.0,0.0,0.0,0.0,0.0,0.0,0.0,0.0,0.0,0.0,0.0,0.0,0.0,0.0,0.0,0.0,0.0,0.0,0.0,0.0,0.0,0.0,0.0,0.0,0.0,0.0,0.0,0.0,0.0,0.0,0.0,0.0,0.0,0.0,0.0,0.0,0.0,0.0,0.0,0.0,0.0,0.0,0.0,0.0,0.0,0.0,0.0,0.0,0.0,0.0,0.0,0.0,0.0,0.0,0.0,0.0,0.0,0.0,0.0,0.0,0.0,0.0,0.0,0.0,0.0,0.0,0.0,0.0,0.0,0.0,0.0,0.0,0.0,0.0,0.0,0.0,0.0,0.0,0.0,0.0,0.0,0.0,0.0,0.0,0.0,0.0,0.0,0.0,0.0,0.0,0.0,0.0,0.0,0.0,0.0,0.0,0.0,0.0,0.0,0.0,0.0,0.0,0.0,0.0,0.0,0.0,0.0,0.0,0.0,0.0,0.0,0.0,0.0,0.0,0.0,0.0,0.0,0.0,0.0,0.0,0.0,0.0,0.0,0.0,0.0,0.0,0.0,0.0,0.0,0.0,0.0,0.0,0.0,0.0,0.0,0.0,0.0,0.0,0.0,0.0,0.0,0.0,0.0,0.0,0.0,0.0,0.0,0.0,0.0,0.0,0.0,0.0,0.0,0.0,0.0,0.0,0.0,0.0,0.0,0.0,0.0,0.0,0.0,0.0,0.0,0.0,0.0,0.0,0.0,0.0,0.0,0.0,0.0,0.0,0.0,0.0,0.0,0.0,0.0,0.0,0.0,0.0,0.0,0.0,0.0,0.0,0.0,0.0,0.0,0.0,0.0,0.0,0.0,0.0,0.0,0.0,0.0,0.0,0.0,0.0,0.0,0.0,0.0,0.0,0.0,0.0,0.0,0.0,0.0,0.0,0.0,0.0,0.0,0.0,0.0,0.0,0.0,0.0,0.0,0.0,0.0,0.0,0.0,0.0,0.0,0.0,0.0,0.0,0.0,0.0,0.0,0.0,0.0,0.0,0.0,0.0,0.0,0.0,0.0,0.0,0.0,0.0,0.0,0.0,0.0,0.0,0.0,0.0,0.0,0.0,0.0,0.0,0.0,0.0,0.0,0.0,0.0,0.0,0.0,0.0,0.0,0.0,0.0,0.0,0.0,0.0,0.0,0.0,0.0,0.0,0.0,0.0,0.0,0.0,0.0,0.0,0.0,0.0,0.0,0.0,0.0,0.0,0.0,0.0,0.0,0.0,0.0,0.0,0.0,0.0,0.0,0.0,0.0,0.0,0.0,0.0,0.0,0.0,0.0,0.0,0.0,0.0,0.0,0.0,0.0,0.0,0.0,0.0,0.0,0.0,0.0,0.0,0.0,0.0,0.0,0.0,0.0,0.0,0.0,0.0,0.0,0.0,0.0,0.0,0.0,0.0,0.0,0.0,0.0,0.0,0.0,0.0,0.0,0.0,0.0,0.0,0.0,0.0,0.0,0.0,0.0,0.0,0.0,0.0,0.0,0.0,0.0,0.0,0.0,0.0,0.0,0.0,0.0,0.0,0.0,0.0,0.0,0.0,0.0,0.0,0.0,0.0,0.0,0.0,0.0,0.0,0.0,0.0,0.0,0.0,0.0,0.0,0.0,0.0,0.0,0.0,0.0,0.0,0.0,0.0,0.0,0.0,0.0,0.0,0.0,0.0,0.0,0.0,0.0,0.0,0.0,0.0,0.0,0.0,0.0,0.0,0.0,0.0,0.0,0.0,0.0,0.0,0.0,0.0,0.0,0.0,0.0,0.0,0.0,0.0,0.0,0.0,0.0,0.0,0.0,0.0,0.0,0.0,0.0,0.0,0.0,0.0,0.0,0.0,0.0,0.0,0.0,0.0,0.0,0.0,0.0,0.0,0.0,0.0,0.0,0.0,0.0,0.0,0.0,0.0,0.0,0.0,0.0,0.0,0.0,0.0,0.0,0.0,0.0,0.0,0.0,0.0,0.0,0.0,0.0,0.0,0.0,0.0,0.0,0.0,0.0,0.0,0.0,0.0,0.0,0.0,0.0,0.0,0.0,0.0,0.0,0.0,0.0,0.0,0.0,0.0,0.0,0.0,0.0,0.0,0.0,0.0,0.0,0.0,0.0,0.0,0.0,0.0,0.0,0.0,0.0,0.0,0.0,0.0,0.0,0.0,0.0,0.0,0.0,0.0,0.0,0.0,0.0,0.0,0.0,0.0,0.0,0.0,0.0,0.0,0.0,0.0,0.0,0.0,0.0,0.0,0.0,0.0,0.0,0.0,0.0,0.0,0.0,0.0,0.0,0.0,0.0,0.0,0.0,0.0,0.0,0.0,0.0,0.0,0.0,0.0,0.0,0.0,0.0,0.0,0.0,0.0,0.0,0.0,0.0,0.0,0.0,0.0,0.0,0.0,0.0,0.0,0.0,0.0,0.0,0.0,0.0,0.0,0.0,0.0,0.0,0.0,0.0,0.0,0.0,0.0,0.0,0.0,0.0,0.0,0.0,0.0,0.0,0.0,0.0,0.0,0.0,0.0,0.0,0.0,0.0,0.0,0.0,0.0,0.0,0.0,0.0,0.0,0.0,0.0,0.0,0.0,0.9411,0.0,0.0,0.0,0.8027,0.0,0.0,0.0,0.0,0.0,0.0,0.0,0.0,0.0,0.0,0.0,0.0,0.0,0.0,0.0,0.0,0.0,0.0,0.0,0.0,0.0,0.0,0.0,0.0,0.0,0.0,0.0,0.0,0.0,0.0,0.0,0.0,0.0,0.0,0.0,0.0,0.0,0.0,0.0,0.0,0.0,0.0,0.0,0.0,0.0,0.0,0.0,0.0,0.0,0.0,0.0,0.0,0.0,0.0,0.0,0.0,0.0,0.0,0.0,0.0,0.0,0.0,0.0,0.0,0.0,0.0,0.0,0.0,0.0,0.0,0.0,0.0,0.0,0.0,0.0,0.0,0.0,0.0,0.0,0.0,0.0,0.0,0.0,0.0,0.0,0.0,0.0,0.0,0.0,0.0,0.0,0.0,0.0,0.0,0.0,0.0,0.0,0.0,0.0,0.0,0.0,0.0,0.0,0.0,0.0,0.0,0.0,0.0,0.0,0.0,0.9597,0.9211,0.9411,0.9187,0.8444,0.0,0.0,0.0,0.0,0.0,0.0,0.0,0.0,0.0,0.0,0.0,0.0,0.0,0.0,0.0,0.0,0.0,0.0,0.0,0.0,0.0,0.0,0.0,0.0,0.0,0.0,0.0,0.0,0.0,0.0,0.0,0.0,0.0,0.0,0.0,0.0,0.0,0.0,0.0,0.0,0.0,0.0,0.0,0.0,0.0,0.0,0.0,0.0,0.0,0.0,0.0,0.0,0.0,0.0,0.0,0.0,0.0,0.0,0.0,0.0,0.0,0.0,0.0,0.0,0.0,0.0,0.0,0.0,0.0,0.0,0.0,0.0,0.0,0.0,0.0,0.0,0.0,0.0,0.0,0.0,0.0,0.0,0.0,0.0,0.0,0.0,0.0,0.0,0.0,0.0,0.0,0.0,0.0,0.0,0.0,0.0,0.0,0.0,0.0,0.0,0.0,0.0,0.0,0.0,0.0,0.0,0.0,0.0,0.0,0.0,0.0,0.0,0.9804,0.9518,0.8865,0.0,0.0,0.0,0.0,0.0,0.0,0.0,0.0,0.0,0.0,0.0,0.0,0.0,0.0,0.0,0.0,0.0,0.0,0.0,0.0,0.0,0.0,0.0,0.0,0.0,0.0,0.0,0.0,0.0,0.0,0.0,0.0,0.0,0.0,0.0,0.0,0.0,0.0,0.0,0.0,0.0,0.0,0.0,0.0,0.0,0.0,0.0,0.0,0.0,0.0,0.0,0.0,0.0,0.0,0.0,0.0,0.0,0.0,0.0,0.0,0.0,0.0,0.0,0.0,0.0,0.0,0.0,0.0,0.0,0.0,0.0,0.0,0.0,0.0,0.0,0.0,0.0,0.0,0.0,0.0,0.0,0.0,0.0,0.0,0.0,0.0,0.0,0.0,0.0,0.0,0.0,0.0,0.0,0.0,0.0,0.0,0.0,0.0,0.0,0.0,0.0,0.0,0.0,0.0,0.0,0.0,0.0,0.0,0.0,0.0,1.0193,1.0493,1.0499,0.0,0.9276,0.0,0.0,0.0,0.0,0.0,0.0,0.0,0.0,0.0,0.0,0.0,0.0,0.0,0.0,0.0,0.0,0.0,0.0,0.0,0.0,0.0,0.0,0.0,0.0,0.0,0.0,0.0,0.0,0.0,0.0,0.0,0.0,0.0,0.0,0.0,0.0,0.0,0.0,0.0,0.0,0.0,0.0,0.0,0.0,0.0,0.0,0.0,0.0,0.0,0.0,0.0,0.0,0.0,0.0,0.0,0.0,0.0,0.0,0.0,0.0,0.0,0.0,0.0,0.0,0.0,0.0,0.0,0.0,0.0,0.0,0.0,0.0,0.0,0.0,0.0,0.0,0.0,0.0,0.0,0.0,0.0,0.0,0.0,0.0,0.0,0.0,0.0,0.0,0.0,0.0,0.0,0.0,0.0,0.0,0.0,0.0,0.0,0.0,0.0,0.0,0.0,0.0,0.0,0.0,0.0,0.0,0.0,0.0,0.0,0.0,1.0455,1.0587,1.008,0.965,0.0,0.0,0.0,0.0,0.0,0.0,0.0,0.0,0.0,0.0,0.0,0.0,0.0,0.0,0.0,0.0,0.0,0.0,0.0,0.0,0.0,0.0,0.0,0.0,0.0,0.0,0.0,0.0,0.0,0.0,0.0,0.0,0.0,0.0,0.0,0.0,0.0,0.0,0.0,0.0,0.0,0.0,0.0,0.0,0.0,0.0,0.0,0.0,0.0,0.0,0.0,0.0,0.0,0.0,0.0,0.0,0.0,0.0,0.0,0.0,0.0,0.0,0.0,0.0,0.0,0.0,0.0,0.0,0.0,0.0,0.0,0.0,0.0,0.0,0.0,0.0,0.0,0.0,0.0,0.0,0.0,0.0,0.0,0.0,0.0,0.0,0.0,0.0,0.0,0.0,0.0,0.0,0.0,0.0,0.0,0.0,0.0,0.0,0.0,0.0,0.0,0.0,0.0,0.0,0.0,0.0,0.0,0.0,0.0,0.0,1.0308,1.0653,1.0697,0.9985,0.9554,0.9497,0.0,0.0,0.0,0.0,0.0,0.0,0.0,0.0,0.0,0.0,0.0,0.0,0.0,0.0,0.0,0.0,0.0,0.0,0.0,0.0,0.0,0.0,0.0,0.0,0.0,0.0,0.0,0.0,0.0,0.0,0.0,0.0,0.0,0.0,0.0,0.0,0.0,0.0,0.0,0.0,0.0,0.0,0.0,0.0,0.0,0.0,0.0,0.0,0.0,0.0,0.0,0.0,0.0,0.0,0.0,0.0,0.0,0.0,0.0,0.0,0.0,0.0,0.0,0.0,0.0,0.0,0.0,0.0,0.0,0.0,0.0,0.0,0.0,0.0,0.0,0.0,0.0,0.0,0.0,0.0,0.0,0.0,0.0,0.0,0.0,0.0,0.0,0.0,0.0,0.0,0.0,0.0,0.0,0.0,0.0,0.0,0.0,0.0,0.0,0.0,0.0,0.0,0.0,0.0,0.0,0.0,0.0,0.0,1.0292,1.048,1.0755,1.1063,1.0711,1.0125,0.0,0.0,0.0,0.0,0.0,0.0,0.0,0.0,0.0,0.0,0.0,0.0,0.0,0.0,0.0,0.0,0.0,0.0,0.0,0.0,0.0,0.0,0.0,0.0,0.0,0.0,0.0,0.0,0.0,0.0,0.0,0.0,0.0,0.0,0.0,0.0,0.0,0.0,0.0,0.0,0.0,0.0,0.0,0.0,0.0,0.0,0.0,0.0,0.0,0.0,0.0,0.0,0.0,0.0,0.0,0.0,0.0,0.0,0.0,0.0,0.0,0.0,0.0,0.0,0.0,0.0,0.0,0.0,0.0,0.0,0.0,0.0,0.0,0.0,0.0,0.0,0.0,0.0,0.0,0.0,0.0,0.0,0.0,0.0,0.0,0.0,0.0,0.0,0.0,0.0,0.0,0.0,0.0,0.0,0.0,0.0,0.0,0.0,0.0,0.0,0.0,0.0,0.0,0.0,0.0,0.0,0.0,0.0,0.0,0.8676,0.9562,1.0516,1.1463,1.0228,0.9602,0.0,0.0,0.0,0.0,0.0,0.0,0.0,0.0,0.0,0.0,0.0,0.0,0.0,0.0,0.0,0.0,0.0,0.0,0.0,0.0,0.0,0.0,0.0,0.0,0.0,0.0,0.0,0.0,0.0,0.0,0.0,0.0,0.0,0.0,0.0,0.0,0.0,0.0,0.0,0.0,0.0,0.0,0.0,0.0,0.0,0.0,0.0,0.0,0.0,0.0,0.0,0.0,0.0,0.0,0.0,0.0,0.0,0.0,0.0,0.0,0.0,0.0,0.0,0.0,0.0,0.0,0.0,0.0,0.0,0.0,0.0,0.0,0.0,0.0,0.0,0.0,0.0,0.0,0.0,0.0,0.0,0.0,0.0,0.0,0.0,0.0,0.0,0.0,0.0,0.0,0.0,0.0,0.0,0.0,0.0,0.0,0.0,0.0,0.0,0.0,0.0,0.0,0.0,0.0,0.0,0.0,0.0,0.0,0.0,0.8623,0.9909,1.092,1.1515,1.0137,0.9467,0.0,0.0,0.0,0.0,0.0,0.0,0.0,0.0,0.0,0.0,0.0,0.0,0.0,0.0,0.0,0.0,0.0,0.0,0.0,0.0,0.0,0.0,0.0,0.0,0.0,0.0,0.0,0.0,0.0,0.0,0.0,0.0,0.0,0.0,0.0,0.0,0.0,0.0,0.0,0.0,0.0,0.0,0.0,0.0,0.0,0.0,0.0,0.0,0.0,0.0,0.0,0.0,0.0,0.0,0.0,0.0,0.0,0.0,0.0,0.0,0.0,0.0,0.0,0.0,0.0,0.0,0.0,0.0,0.0,0.0,0.0,0.0,0.0,0.0,0.0,0.0,0.0,0.0,0.0,0.0,0.0,0.0,0.0,0.0,0.0,0.0,0.0,0.0,0.0,0.0,0.0,0.0,0.0,0.0,0.0,0.0,0.0,0.0,0.0,0.0,0.0,0.0,0.0,0.0,0.0,0.0,0.0,0.0,0.8135,1.0459,1.1708,1.1997,1.1252,1.0658,0.988,0.0,0.0,0.0,0.0,0.0,0.0,0.0,0.0,0.0,0.0,0.0,0.0,0.0,0.0,0.0,0.0,0.0,0.0,0.0,0.0,0.0,0.0,0.0,0.0,0.0,0.0,0.0,0.0,0.0,0.0,0.0,0.0,0.0,0.0,0.0,0.0,0.0,0.0,0.0,0.0,0.0,0.0,0.0,0.0,0.0,0.0,0.0,0.0,0.0,0.0,0.0,0.0,0.0,0.0,0.0,0.0,0.0,0.0,0.0,0.0,0.0,0.0,0.0,0.0,0.0,0.0,0.0,0.0,0.0,0.0,0.0,0.0,0.0,0.0,0.0,0.0,0.0,0.0,0.0,0.0,0.0,0.0,0.0,0.0,0.0,0.0,0.0,0.0,0.0,0.0,0.0,0.0,0.0,0.0,0.0,0.0,0.0,0.0,0.0,0.0,0.0,0.0,0.0,0.0,0.0,0.0,0.0,0.0,0.0,0.9594,1.1868,1.2739,1.2006,1.1861,1.1405,0.0,0.0,0.0,0.0,0.0,0.0,0.0,0.0,0.0,0.0,0.0,0.0,0.0,0.0,0.0,0.0,0.0,0.0,0.0,0.0,0.0,0.0,0.0,0.0,0.0,0.0,0.0,0.0,0.0,0.0,0.0,0.0,0.0,0.0,0.0,0.0,0.0,0.0,0.0,0.0,0.0,0.0,0.0,0.0,0.0,0.0,0.0,0.0,0.0,0.0,0.0,0.0,0.0,0.0,0.0,0.0,0.0,0.0,0.0,0.0,0.0,0.0,0.0,0.0,0.0,0.0,0.0,0.0,0.0,0.0,0.0,0.0,0.0,0.0,0.0,0.0,0.0,0.0,0.0,0.0,0.0,0.0,0.0,0.0,0.0,0.0,0.0,0.0,0.0,0.0,0.0,0.0,0.0,0.0,0.0,0.0,0.0,0.0,0.0,0.0,0.0,0.0,0.0,0.0,0.0,0.0,0.0,0.0,0.0,1.2041,1.3939,1.4844,1.4611,1.3834,1.2958,1.2062,0.0,0.0,0.0,0.0,0.0,0.0,0.0,0.0,0.0,0.0,0.0,0.0,0.0,0.0,0.0,0.0,0.0,0.0,0.0,0.0,0.0,0.0,0.0,0.0,0.0,0.0,0.0,0.0,0.0,0.0,0.0,0.0,0.0,0.0,0.0,0.0,0.0,0.0,0.0,0.0,0.0,0.0,0.0,0.0,0.0,0.0,0.0,0.0,0.0,0.0,0.0,0.0,0.0,0.0,0.0,0.0,0.0,0.0,0.0,0.0,0.0,0.0,0.0,0.0,0.0,0.0,0.0,0.0,0.0,0.0,0.0,0.0,0.0,0.0,0.0,0.0,0.0,0.0,0.0,0.0,0.0,0.0,0.0,0.0,0.0,0.0,0.0,0.0,0.0,0.0,0.0,0.0,0.0,0.0,0.0,0.0,0.0,0.0,0.0,0.0,0.0,0.0,0.0,0.0,0.0,0.0,0.0,0.0,1.7013,1.7703,1.8243,1.8574,1.6397,1.4711,0.0,0.0,0.0,0.0,0.0,0.0,0.0,0.0,0.0,0.0,0.0,0.0,0.0,0.0,0.0,0.0,0.0,0.0,0.0,0.0,0.0,0.0,0.0,0.0,0.0,0.0,0.0,0.0,0.0,0.0,0.0,0.0,0.0,0.0,0.0,0.0,0.0,0.0,0.0,0.0,0.0,0.0,0.0,0.0,0.0,0.0,0.0,0.0,0.0,0.0,0.0,0.0,0.0,0.0,0.0,0.0,0.0,0.0,0.0,0.0,0.0,0.0,0.0,0.0,0.0,0.0,0.0,0.0,0.0,0.0,0.0,0.0,0.0,0.0,0.0,0.0,0.0,0.0,0.0,0.0,0.0,0.0,0.0,0.0,0.0,0.0,0.0,0.0,0.0,0.0,0.0,0.0,0.0,0.0,0.0,0.0,0.0,0.0,0.0,0.0,0.0,0.0,0.0,0.0,0.0,0.0,0.0,0.0,0.0,1.99,2.2228,2.2569,2.0767,1.9236,1.7679,0.0,0.0,0.0,0.0,0.0,0.0,0.0,0.0,0.0,0.0,0.0,0.0,0.0,0.0,0.0,0.0,0.0,0.0,0.0,0.0,0.0,0.0,0.0,0.0,0.0,0.0,0.0,0.0,0.0,0.0,0.0,0.0,0.0,0.0,0.0,0.0,0.0,0.0,0.0,0.0,0.0,0.0,0.0,0.0,0.0,0.0,0.0,0.0,0.0,0.0,0.0,0.0,0.0,0.0,0.0,0.0,0.0,0.0,0.0,0.0,0.0,0.0,0.0,0.0,0.0,0.0,0.0,0.0,0.0,0.0,0.0,0.0,0.0,0.0,0.0,0.0,0.0,0.0,0.0,0.0,0.0,0.0,0.0,0.0,0.0,0.0,0.0,0.0,0.0,0.0,0.0,0.0,0.0,0.0,0.0,0.0,0.0,0.0,0.0,0.0,0.0,0.0,0.0,0.0,0.0,0.0,0.0,0.0,1.9153,2.2604,2.5651,2.6525,2.5085,2.2516,2.0176,0.0,0.0,0.0,0.0,0.0,0.0,0.0,0.0,0.0,0.0,0.0,0.0,0.0,0.0,0.0,0.0,0.0,0.0,0.0,0.0,0.0,0.0,0.0,0.0,0.0,0.0,0.0,0.0,0.0,0.0,0.0,0.0,0.0,0.0,0.0,0.0,0.0,0.0,0.0,0.0,0.0,0.0,0.0,0.0,0.0,0.0,0.0,0.0,0.0,0.0,0.0,0.0,0.0,0.0,0.0,0.0,0.0,0.0,0.0,0.0,0.0,0.0,0.0,0.0,0.0,0.0,0.0,0.0,0.0,0.0,0.0,0.0,0.0,0.0,0.0,0.0,0.0,0.0,0.0,0.0,0.0,0.0,0.0,0.0,0.0,0.0,0.0,0.0,0.0,0.0,0.0,0.0,0.0,0.0,0.0,0.0,0.0,0.0,0.0,0.0,0.0,0.0,0.0,0.0,0.0,0.0,0.0,0.0,2.1727,2.4907,2.8071,2.9762,2.9768,2.5648,2.224,0.0,0.0,0.0,0.0,0.0,0.0,0.0,0.0,0.0,0.0,0.0,0.0,0.0,0.0,0.0,0.0,0.0,0.0,0.0,0.0,0.0,0.0,0.0,0.0,0.0,0.0,0.0,0.0,0.0,0.0,0.0,0.0,0.0,0.0,0.0,0.0,0.0,0.0,0.0,0.0,0.0,0.0,0.0,0.0,0.0,0.0,0.0,0.0,0.0,0.0,0.0,0.0,0.0,0.0,0.0,0.0,0.0,0.0,0.0,0.0,0.0,0.0,0.0,0.0,0.0,0.0,0.0,0.0,0.0,0.0,0.0,0.0,0.0,0.0,0.0,0.0,0.0,0.0,0.0,0.0,0.0,0.0,0.0,0.0,0.0,0.0,0.0,0.0,0.0,0.0,0.0,0.0,0.0,0.0,0.0,0.0,0.0,0.0,0.0,0.0,0.0,0.0,0.0,0.0,0.0,0.0,0.0,0.0,2.2853,2.5921,2.8913,3.0286,2.9892,2.6327,2.3557,0.0,0.0,0.0,0.0,0.0,0.0,0.0,0.0,0.0,0.0,0.0,0.0,0.0,0.0,0.0,0.0,0.0,0.0,0.0,0.0,0.0,0.0,0.0,0.0,0.0,0.0,0.0,0.0,0.0,0.0,0.0,0.0,0.0,0.0,0.0,0.0,0.0,0.0,0.0,0.0,0.0,0.0,0.0,0.0,0.0,0.0,0.0,0.0,1.6304,0.0,0.0,0.0,0.0,0.0,0.0,0.0,0.0,0.0,0.0,0.0,0.0,0.0,0.0,0.0,0.0,0.0,0.0,0.0,0.0,0.0,0.0,0.0,0.0,0.0,0.0,0.0,0.0,0.0,0.0,0.0,0.0,0.0,0.0,0.0,0.0,0.0,0.0,0.0,0.0,0.0,0.0,0.0,0.0,0.0,0.0,0.0,0.0,0.0,0.0,0.0,0.0,0.0,0.0,0.0,0.0,0.0,0.0,0.0,2.4289,2.8111,3.018,3.1155,3.0929,2.838,2.5484,0.0,0.0,0.0,0.0,0.0,0.0,0.0,0.0,0.0,0.0,0.0,0.0,0.0,0.0,0.0,0.0,0.0,0.0,0.0,0.0,0.0,0.0,0.0,0.0,0.0,0.0,0.0,0.0,0.0,0.0,0.0,0.0,0.0,0.0,0.0,0.0,0.0,0.0,0.0,0.0,0.0,0.0,0.0,0.0,0.0,0.0,0.0,0.0,0.0,0.0,0.0,0.0,0.0,0.0,0.0,0.0,0.0,0.0,0.0,0.0,0.0,0.0,0.0,0.0,0.0,0.0,0.0,0.0,0.0,0.0,0.0,0.0,0.0,0.0,0.0,0.0,0.0,0.0,0.0,0.0,0.0,0.0,0.0,0.0,0.0,0.0,0.0,0.0,0.0,0.0,0.0,0.0,0.0,0.0,0.0,0.0,0.0,0.0,0.0,0.0,0.0,0.0,0.0,0.0,0.0,0.0,0.0,2.2141,2.5832,3.0422,3.1577,3.213,3.2277,3.0592,2.7485,2.2931,0.0,0.0,0.0,0.0,0.0,0.0,0.0,0.0,0.0,0.0,0.0,0.0,0.0,0.0,0.0,0.0,0.0,0.0,0.0,0.0,0.0,0.0,0.0,0.0,0.0,0.0,0.0,0.0,0.0,0.0,0.0,0.0,0.0,0.0,0.0,0.0,0.0,0.0,1.1743,1.4625,0.0,0.0,0.0,0.0,0.0,0.0,0.0,0.0,1.6587,0.0,0.0,0.0,0.0,0.0,0.0,0.0,0.0,0.0,0.0,0.0,0.0,0.0,0.0,0.0,0.0,0.0,0.0,0.0,0.0,0.0,0.0,0.0,0.0,0.0,0.0,0.0,0.0,0.0,0.0,0.0,0.0,0.0,0.0,0.0,0.0,0.0,0.0,0.0,0.0,0.0,0.0,0.0,0.0,0.0,0.0,0.0,0.0,0.0,0.0,0.0,0.0,0.0,0.0,0.0,0.0,2.1618,2.3838,2.711,3.1442,3.2714,3.2995,3.2312,3.1084,2.8614,2.4815,0.0,0.0,0.0,0.0,0.0,0.0,0.0,0.0,0.0,0.0,0.0,0.0,0.0,0.0,0.0,0.0,0.0,0.0,0.0,0.0,0.0,0.0,0.0,0.0,0.0,0.0,0.0,0.0,0.0,0.0,0.0,0.0,0.0,0.0,0.0,0.0,0.0,0.0,0.0,1.732,1.8667,0.0,0.0,0.0,0.0,0.0,0.0,0.0,0.0,1.6833,0.0,0.0,0.0,0.0,0.0,0.0,0.0,0.0,0.0,0.0,0.0,0.0,0.0,0.0,0.0,0.0,0.0,0.0,0.0,0.0,0.0,0.0,0.0,0.0,0.0,0.0,0.0,0.0,0.0,0.0,0.0,0.0,0.0,0.0,0.0,0.0,0.0,0.0,0.0,0.0,0.0,0.0,0.0,0.0,0.0,0.0,0.0,0.0,0.0,0.0,0.0,0.0,0.0,0.0,0.0,2.2676,2.5954,2.945,3.3142,3.3856,3.3876,3.3235,3.1731,2.92,0.0,0.0,0.0,0.0,0.0,0.0,0.0,0.0,0.0,0.0,0.0,0.0,0.0,0.0,0.0,0.0,0.0,0.0,0.0,0.0,0.0,0.0,0.0,0.0,0.0,0.0,0.0,0.0,0.0,0.0,0.0,0.0,0.0,0.0,0.0,0.0,0.0,0.0,0.0,0.0,1.856,1.9978,2.3,0.0,0.0,0.0,0.0,0.0,0.0,1.8375,1.8022,0.0,0.0,0.0,0.0,0.0,0.0,0.0,0.0,0.0,0.0,0.0,0.0,0.0,0.0,0.0,0.0,0.0,0.0,0.0,0.0,0.0,0.0,0.0,0.0,0.0,0.0,0.0,0.0,0.0,0.0,0.0,0.0,0.0,0.0,0.0,0.0,0.0,0.0,0.0,0.0,0.0,0.0,0.0,0.0,0.0,0.0,0.0,0.0,0.0,0.0,0.0,0.0,0.0,0.0,0.0,2.339,2.7787,3.1575,3.4541,3.4785,3.4629,3.4212,3.2146,2.942,0.0,0.0,0.0,0.0,0.0,0.0,0.0,0.0,0.0,0.0,0.0,0.0,0.0,0.0,0.0,0.0,0.0,0.0,0.0,0.0,0.0,0.0,0.0,0.0,0.0,0.0,0.0,0.0,0.0,0.0,0.0,0.0,0.0,0.0,0.0,0.0,0.0,0.0,0.0,0.0,0.0,2.1666,2.5108,2.3532,0.0,0.0,0.0,0.0,1.9851,2.0351,0.0,0.0,0.0,0.0,0.0,0.0,0.0,0.0,0.0,0.0,0.0,0.0,0.0,0.0,0.0,0.0,0.0,0.0,0.0,0.0,0.0,0.0,0.0,0.0,0.0,0.0,0.0,0.0,0.0,0.0,0.0,0.0,0.0,0.0,0.0,0.0,0.0,0.0,0.0,0.0,0.0,0.0,0.0,0.0,0.0,0.0,0.0,0.0,0.0,0.0,0.0,0.0,0.0,0.0,0.0,0.0,2.3434,2.8615,3.2401,3.459,3.5114,3.5114,3.459,3.189,2.9124,0.0,0.0,0.0,0.0,0.0,0.0,0.0,0.0,0.0,0.0,0.0,0.0,0.0,0.0,0.0,0.0,0.0,0.0,0.0,0.0,0.0,0.0,0.0,0.0,0.0,0.0,0.0,0.0,0.0,0.0,0.0,0.0,0.0,0.0,0.0,0.0,0.0,0.0,0.0,0.0,0.0,2.4215,2.5585,2.4853,2.4074,0.0,0.0,0.0,2.4334,2.4846,0.0,0.0,0.0,0.0,0.0,0.0,0.0,0.0,0.0,0.0,0.0,0.0,0.0,0.0,0.0,0.0,0.0,0.0,0.0,0.0,0.0,0.0,0.0,0.0,0.0,0.0,0.0,0.0,0.0,0.0,0.0,0.0,0.0,0.0,0.0,0.0,0.0,0.0,0.0,0.0,0.0,0.0,0.0,0.0,0.0,0.0,0.0,0.0,0.0,0.0,0.0,0.0,0.0,0.0,0.0,2.1926,2.4894,3.0698,3.4277,3.5393,3.5644,3.5929,3.6277,3.2663,2.9709,0.0,0.0,0.0,0.0,0.0,0.0,0.0,0.0,0.0,0.0,0.0,0.0,0.0,0.0,0.0,0.0,0.0,0.0,0.0,0.0,0.0,0.0,0.0,0.0,0.0,0.0,0.0,0.0,0.0,0.0,0.0,0.0,0.0,0.0,0.0,0.0,0.0,0.0,0.0,0.0,0.0,0.0,2.6302,2.6444,0.0,0.0,0.0,2.4834,2.5662,0.0,0.0,0.0,0.0,0.0,0.0,0.0,0.0,0.0,0.0,0.0,0.0,0.0,0.0,0.0,0.0,0.0,0.0,0.0,0.0,0.0,0.0,0.0,0.0,0.0,0.0,0.0,0.0,0.0,0.0,0.0,0.0,0.0,0.0,0.0,0.0,0.0,0.0,0.0,0.0,0.0,0.0,0.0,0.0,0.0,0.0,0.0,0.0,0.0,0.0,0.0,0.0,0.0,0.0,0.0,0.0,0.0,2.6109,3.2517,3.6016,3.6328,3.6705,3.7162,3.7703,3.4529,0.0,0.0,0.0,0.0,0.0,0.0,0.0,0.0,0.0,0.0,0.0,0.0,0.0,0.0,0.0,0.0,0.0,0.0,0.0,0.0,0.0,0.0,0.0,0.0,0.0,0.0,0.0,0.0,0.0,0.0,0.0,0.0,0.0,0.0,0.0,0.0,0.0,0.0,0.0,0.0,0.0,0.0,2.5295,2.7223,2.8309,2.9098,0.0,0.0,2.7552,2.7844,2.9271,2.9419,0.0,0.0,0.0,0.0,0.0,0.0,0.0,0.0,0.0,0.0,0.0,0.0,0.0,0.0,0.0,0.0,0.0,0.0,0.0,0.0,0.0,0.0,0.0,0.0,0.0,0.0,0.0,0.0,0.0,0.0,0.0,0.0,0.0,0.0,0.0,0.0,0.0,0.0,0.0,0.0,0.0,0.0,0.0,0.0,0.0,0.0,0.0,0.0,0.0,0.0,0.0,0.0,0.0,0.0,0.0,2.6616,3.3534,3.7221,3.7277,3.8581,3.9058,3.8634,3.7897,3.4628,0.0,0.0,0.0,0.0,0.0,0.0,0.0,0.0,0.0,0.0,0.0,0.0,0.0,0.0,0.0,0.0,0.0,0.0,0.0,0.0,0.0,0.0,0.0,0.0,0.0,0.0,0.0,0.0,0.0,0.0,0.0,0.0,0.0,0.0,0.0,0.0,0.0,0.0,0.0,0.0,0.0,2.6953,2.8389,3.0531,3.2223,0.0,0.0,3.1529,3.2604,3.408,3.3652,2.9359,0.0,0.0,0.0,0.0,0.0,0.0,0.0,0.0,0.0,0.0,0.0,0.0,0.0,0.0,0.0,0.0,0.0,0.0,0.0,0.0,0.0,0.0,0.0,0.0,0.0,0.0,0.0,0.0,0.0,0.0,0.0,0.0,0.0,0.0,0.0,0.0,0.0,0.0,0.0,0.0,0.0,0.0,0.0,0.0,0.0,0.0,0.0,0.0,0.0,0.0,0.0,0.0,0.0,2.5477,2.8981,3.5346,3.913,4.0038,4.0635,4.1075,4.1413,3.9539,3.6238,0.0,0.0,0.0,0.0,0.0,0.0,0.0,0.0,0.0,0.0,0.0,0.0,0.0,0.0,0.0,0.0,0.0,0.0,0.0,0.0,0.0,0.0,0.0,0.0,0.0,0.0,0.0,0.0,1.5767,1.5875,1.5423,0.0,0.0,0.0,0.0,0.0,0.0,0.0,0.0,0.0,0.0,2.9557,3.097,3.2207,0.0,0.0,3.2356,3.2217,3.3006,3.3363,3.2728,3.0318,2.859,0.0,0.0,0.0,0.0,0.0,0.0,0.0,0.0,0.0,0.0,0.0,0.0,0.0,0.0,0.0,0.0,0.0,0.0,0.0,0.0,0.0,0.0,0.0,0.0,0.0,0.0,0.0,0.0,0.0,0.0,0.0,0.0,0.0,0.0,0.0,0.0,0.0,0.0,0.0,0.0,0.0,0.0,0.0,0.0,0.0,0.0,0.0,0.0,0.0,0.0,0.0,0.0,2.6924,3.0682,3.7187,4.1053,4.2151,4.2608,4.3056,4.3448,4.1669,3.8776,0.0,0.0,0.0,0.0,0.0,0.0,0.0,0.0,0.0,0.0,0.0,0.0,0.0,0.0,0.0,0.0,0.0,0.0,0.0,0.0,0.0,0.0,0.0,0.0,0.0,0.0,0.0,0.0,1.7141,1.6728,1.6245,0.0,0.0,0.0,0.0,0.0,0.0,0.0,0.0,0.0,0.0,3.2225,3.336,3.4035,3.4195,3.3576,3.3031,3.2783,3.298,3.3001,3.2478,3.0843,0.0,0.0,0.0,0.0,0.0,0.0,0.0,0.0,0.0,0.0,0.0,0.0,0.0,0.0,0.0,0.0,0.0,0.0,0.0,0.0,0.0,0.0,0.0,0.0,0.0,0.0,0.0,0.0,0.0,0.0,0.0,0.0,0.0,0.0,0.0,0.0,0.0,0.0,0.0,0.0,0.0,0.0,0.0,0.0,0.0,0.0,0.0,0.0,0.0,0.0,0.0,0.0,0.0,0.0,3.1248,3.8957,4.297,4.3053,4.4442,4.4979,4.4524,4.4781,4.2762,3.803,0.0,0.0,0.0,0.0,0.0,0.0,0.0,0.0,0.0,0.0,0.0,0.0,0.0,0.0,0.0,0.0,0.0,0.0,0.0,0.0,0.0,0.0,0.0,0.0,0.0,0.0,1.3939,1.5897,1.7437,0.0,0.0,0.0,0.0,0.0,0.0,0.0,0.0,0.0,0.0,3.179,3.4786,3.5363,3.6174,3.6358,3.5556,3.4567,3.3691,3.3165,3.3901,3.3727,0.0,0.0,0.0,0.0,0.0,0.0,0.0,0.0,0.0,0.0,0.0,0.0,0.0,0.0,0.0,0.0,0.0,0.0,0.0,0.0,0.0,0.0,0.0,0.0,0.0,0.0,0.0,1.5155,1.429,0.0,0.0,0.0,0.0,0.0,0.0,0.0,0.0,0.0,0.0,0.0,2.4744,2.5586,0.0,0.0,0.0,0.0,0.0,0.0,0.0,0.0,0.0,0.0,0.0,0.0,3.0171,3.3677,4.078,4.5,4.5955,4.6483,4.6513,4.5959,4.6091,4.3514,3.7844,0.0,0.0,0.0,0.0,0.0,0.0,0.0,0.0,0.0,0.0,0.0,0.0,0.0,0.0,0.0,0.0,0.0,0.0,0.0,0.0,0.0,0.0,0.0,0.0,0.0,1.6296,0.0,0.0,0.0,0.0,0.0,0.0,0.0,0.0,0.0,0.0,0.0,2.7733,3.0908,3.3583,3.5712,3.6973,3.7055,3.7003,0.0,0.0,0.0,0.0,0.0,0.0,0.0,0.0,0.0,0.0,0.0,0.0,0.0,0.0,3.3516,2.7281,2.682,2.7624,2.8357,0.0,0.0,0.0,0.0,0.0,0.0,0.0,0.0,0.0,0.0,0.0,0.0,0.0,0.0,0.0,0.0,1.7869,0.0,0.0,0.0,0.0,0.0,0.0,0.0,0.0,2.5532,2.7519,2.8746,2.9871,3.0209,0.0,2.8449,2.617,0.0,0.0,0.0,0.0,0.0,0.0,0.0,0.0,3.1928,3.5481,4.2422,4.6556,4.7447,4.7497,4.7329,4.6992,4.6783,4.4646,4.0268,3.591,3.225,0.0,0.0,0.0,0.0,0.0,0.0,0.0,0.0,0.0,0.0,0.0,0.0,0.0,0.0,0.0,0.0,0.0,0.0,0.0,0.0,0.0,0.0,0.0,1.8664,0.0,0.0,0.0,0.0,0.0,0.0,0.0,0.0,0.0,2.4378,2.8164,3.2057,3.496,3.6769,3.7965,3.8278,0.0,0.0,0.0,0.0,0.0,0.0,0.0,3.4155,3.4502,3.3788,3.3778,3.5738,3.86,4.0443,3.9888,0.0,0.0,3.4115,3.3487,3.4333,3.4946,3.5498,3.5914,3.6077,3.7593,3.8926,0.0,0.0,0.0,0.0,0.0,0.0,0.0,0.0,2.3196,2.2466,0.0,2.1814,0.0,0.0,0.0,0.0,0.0,0.0,0.0,0.0,3.235,3.4367,3.3922,3.4373,3.537,3.6598,3.4703,3.4031,3.4101,2.7185,0.0,0.0,0.0,0.0,0.0,0.0,3.4204,3.6918,4.3828,4.7481,4.7497,4.7497,4.7497,4.7473,4.6976,4.6166,4.4997,4.0216,3.7152,3.6238,2.7039,0.0,0.0,0.0,0.0,0.0,0.0,0.0,0.0,0.0,0.0,0.0,0.0,0.0,0.0,0.0,0.0,0.0,0.0,0.0,0.0,2.0796,0.0,0.0,0.0,0.0,0.0,0.0,0.0,0.0,0.0,0.0,3.0605,3.3228,3.6272,3.9168,0.0,0.0,0.0,0.0,3.9734,3.7701,3.6458,3.5703,3.5248,3.735,3.9066,3.9172,0.0,0.0,4.207,4.302,4.361,4.1982,4.504,4.6351,4.2682,4.0903,4.0269,4.0946,4.0807,4.0857,4.206,4.3225,4.4481,2.848,0.0,0.0,0.0,0.0,2.4946,2.6003,2.7623,2.8353,2.8056,2.6975,2.6621,0.0,0.0,0.0,0.0,0.0,0.0,2.7913,3.1355,3.3039,3.4662,3.6325,3.7533,3.8296,3.8708,3.8863,3.9195,3.9535,3.7138,3.1923,2.4249,0.0,0.0,0.0,0.0,3.7553,4.0144,4.4959,4.7497,4.7497,4.7497,4.7497,4.7497,4.6976,4.6543,4.6231,4.3689,4.0966,3.8093,3.3779,0.0,0.0,0.0,0.0,0.0,0.0,0.0,0.0,0.0,0.0,0.0,0.0,0.0,0.0,0.0,0.0,0.0,0.0,0.0,1.9673,2.2879,2.3912,0.0,0.0,0.0,0.0,0.0,0.0,0.0,0.0,0.0,3.6846,3.707,3.748,0.0,0.0,3.8718,3.7323,3.9057,4.0399,4.0148,0.0,0.0,0.0,4.1666,4.1898,4.3015,4.5552,4.722,4.6744,4.887,5.0444,4.9924,5.1402,5.2201,5.0921,4.8864,4.7544,4.7643,4.7573,4.7608,4.8038,4.9061,5.0156,3.3657,3.1064,2.865,2.8125,2.895,2.9351,3.0496,3.2192,3.2882,3.2577,3.1545,3.1426,2.9533,2.6391,2.5421,0.0,0.0,0.0,3.1243,3.459,3.5,3.6406,3.864,3.9578,4.0719,4.1983,4.2088,4.2797,4.402,4.2232,3.8351,3.2436,0.0,0.0,3.1577,3.6674,4.0457,4.2824,4.6308,4.8043,4.7827,4.7593,4.7401,4.7185,4.7088,4.692,4.6687,4.5565,4.3911,4.1685,3.8089,3.4414,0.0,0.0,0.0,0.0,0.0,0.0,0.0,0.0,0.0,0.0,0.0,1.5183,0.0,0.0,0.0,0.0,2.1702,2.3748,2.5526,2.7425,0.0,0.0,0.0,0.0,0.0,0.0,0.0,3.2564,3.6366,3.9295,4.0514,4.0288,4.0049,4.0275,4.0462,4.0149,3.8881,0.0,4.2272,4.2633,4.3604,4.4612,4.5382,4.5542,4.6172,4.8154,4.9792,5.0877,5.0973,5.2649,5.3883,5.4036,5.4523,5.4977,5.5031,5.3743,5.2553,5.2108,5.1999,5.2125,5.2472,5.3402,5.4315,3.7754,3.7031,3.2699,3.1762,3.3203,3.4036,3.5,3.6116,3.6541,3.5972,3.481,3.5667,3.3975,3.0427,2.9441,0.0,0.0,3.3481,3.5075,3.7455,3.79,3.9035,4.0721,4.1052,4.277,4.5706,4.4592,4.5281,4.7285,4.407,4.2394,4.2321,3.9882,3.8133,3.7324,4.0269,4.2919,4.508,4.7627,4.8751,4.8308,4.781,4.7305,4.6711,4.7233,4.7257,4.6711,4.6199,4.5988,4.5901,4.0654,3.7379,3.6715,0.0,0.0,0.0,0.0,0.0,0.0,0.0,0.0,0.0,0.0,0.0,0.0,0.0,0.0,0.0,2.9159,0.0,3.4561,3.3111,0.0,0.0,0.0,2.8359,3.0116,3.2807,3.5228,3.7192,0.0,0.0,0.0,0.0,4.3441,4.4041,4.4328,4.3919,4.2487,4.3624,4.4803,4.5026,4.5298,4.5795,4.718,4.8998,5.1054,5.314,5.4266,5.4337,5.4363,5.4696,5.4964,5.5006,5.5206,5.5538,5.6149,5.6094,5.5888,5.4674,5.4482,5.4783,5.5579,5.6238,5.6928,3.8377,3.8202,3.7068,3.6465,3.6267,3.6462,3.6699,3.6992,3.7127,3.6966,3.6646,3.6575,3.5812,3.4574,3.4678,3.5226,3.6162,3.6621,3.7522,3.8767,3.967,4.0513,4.1291,4.3266,4.4641,4.5464,4.6648,4.7516,4.8082,4.7607,4.6901,4.5979,4.5318,4.3266,4.0096,4.2619,4.4899,4.6647,4.731,4.7859,4.83,4.8171,4.7666,4.6735,4.7233,4.724,4.6711,4.6424,4.6225,4.6055,4.3782,4.1788,4.0151,3.2927,0.0,0.0,0.0,0.0,0.0,0.0,0.0,0.0,0.0,1.9368,1.6673,0.0,2.3101,0.0,3.3813,3.6722,3.4824,3.4558,0.0,0.0,3.2862,3.3103,3.6849,3.8614,3.9915,4.0852,4.2638,4.4052,4.4633,4.4819,4.5412,4.6677,4.4884,4.3233,4.2966,4.464,4.6332,4.7391,4.8927,5.021,5.0776,5.2629,5.4218,5.4854,5.5627,5.6107,5.6107,5.6372,5.6554,5.6554,5.6606,5.6705,5.6868,5.6868,5.6799,5.6476,5.6421,5.6642,5.7351,5.7663,5.8138,3.9437,3.9456,3.9456,3.918,3.869,3.8117,3.7889,3.7889,3.7889,3.7889,3.785,3.7439,3.709,3.6877,3.7129,3.7451,3.7866,3.8278,3.9306,4.0771,4.1358,4.2671,4.4596,4.5714,4.6665,4.7495,4.828,4.8628,4.8693,4.9215,4.9108,4.8432,4.8891,4.7634,4.4827,4.5128,4.5775,4.6662,4.7256,4.8038,4.895,4.8789,4.7643,4.5572,4.6432,4.6086,4.4308,4.4813,4.4716,4.3777,4.2843,4.1703,4.0235,3.5191,3.1787,0.0,0.0,0.0,0.0,0.0,0.0,0.0,0.0,0.0,0.0,0.0,2.762,0.0,3.6766,0.0,3.6549,3.7333,3.8138,3.8397,3.7618,3.8365,4.154,4.2646,4.3474,4.4292,4.5357,4.6185,4.6527,4.6728,4.7303,4.859,4.7453,4.6394,4.6308,4.7652,4.9246,5.0505,5.1862,5.3081,5.3815,5.5044,5.5933,5.5959,5.6436,5.6871,5.6871,5.6989,5.7094,5.7094,5.7094,5.7214,5.7483,5.7812,5.8052,5.8394,5.868,5.889,5.8966,5.9235,5.9863,4.0689,4.0483,4.0483,4.0484,4.035,3.9247,3.8787,3.8768,3.8787,3.8768,3.8767,3.8322,3.8182,3.8218,3.8179,3.8375,3.8753,3.9167,4.0573,4.2753,4.2996,4.5006,4.8426,4.8008,4.8607,5.0063,4.9623,4.938,4.9404,4.9948,5.014,5.0083,5.0905,5.0625,4.9223,4.7295,4.6278,4.6222,4.7467,4.8571,4.9507,4.8939,4.7084,4.4102,4.528,4.4585,4.1622,4.28,4.2811,4.1211,4.0584,4.0047,3.9496,3.7051,3.4676,0.0,3.0524,0.0,0.0,0.0,0.0,0.0,0.0,0.0,0.0,3.1789,3.3228,3.3768,3.889,4.141,3.954,4.0812,4.2003,4.2562,4.2701,4.3291,4.4654,4.5544,4.6445,4.7349,4.8054,4.8471,4.8646,4.8907,4.9505,5.0458,5.1103,5.1199,5.0886,5.1421,5.2354,5.3726,5.4202,5.4858,5.5864,5.6545,5.6889,5.6902,5.7328,5.7466,5.7603,5.7663,5.7706,5.7693,5.7812,5.7932,5.8384,5.8996,5.9518,6.0027,6.0535,6.0761,6.0505,6.0745,6.1808,4.1692,4.0502,4.0483,4.0315,3.9996,3.9744,3.9648,3.9648,3.9648,3.9667,3.9648,3.9551,3.9698,3.9956,3.9602,3.9682,4.0047,4.0126,4.126,4.3242,4.452,4.6357,4.8549,4.9327,4.9692,4.9823,5.0489,5.0832,5.0898,5.1524,5.1456,5.0717,5.0593,4.9653,4.8069,0.0,0.0,0.0,4.8181,4.8265,4.7634,4.6525,4.5208,4.3752,4.4364,0.0,4.3203,4.3268,4.3208,4.2818,4.2163,0.0,0.0,0.0,0.0,0.0,0.0,0.0,0.0,0.0,0.0,0.0,3.4747,3.4544,3.3102,3.6297,3.8525,3.8721,4.1362,4.3431,4.4322,4.4306,4.4452,4.484,4.5246,4.5648,4.6014,4.7795,4.9163,4.936,5.0593,5.1606,5.1961,5.2371,5.2783,5.3412,5.4525,5.5149,5.5076,5.426,5.4147,5.5224,5.5868,5.6279,5.6598,5.7355,5.7902,5.7972,5.8836,5.9442,5.9502,5.9937,6.0282,6.0252,6.0342,6.0282,6.0462,6.0641,6.0731,6.0894,6.103,6.1239,6.1642,6.1792,6.2301,4.2435,0.0,4.2081,4.1965,0.0,4.1362,4.1186,4.1147,4.0251,3.9883,3.9921,4.0109,4.0745,4.1633,4.159,4.2053,4.2917,4.2917,4.4074,4.6171,4.6982,4.8569,5.0737,5.1368,5.1482,5.1167,5.1925,5.2228,5.214,5.2877,5.2973,5.2523,5.2603,5.1917,5.0606,5.0676,5.0141,4.8996,4.9038,4.9039,4.8855,4.7982,4.6501,4.4512,0.0,0.0,0.0,0.0,0.0,0.0,0.0,0.0,0.0,0.0,0.0,3.9161,3.7146,3.6125,3.6628,3.696,3.7917,3.9757,4.0813,4.0526,3.8575,4.1001,4.2612,4.265,4.3784,4.4868,4.5703,4.5939,4.6105,4.6326,4.7343,4.8081,4.8279,4.994,5.1281,5.1517,5.243,5.3274,5.3696,5.399,5.4651,5.5693,5.6635,5.7484,5.7972,5.7045,5.647,5.7157,5.7495,5.787,5.8302,5.8735,5.9219,5.9594,6.0133,6.0521,6.0595,6.0894,6.109,6.109,6.109,6.109,6.112,6.1359,6.1583,6.1642,6.1852,6.2151,6.2525,6.2614,6.3093,4.3746,4.4168,4.4524,4.4643,4.4505,4.3469,4.2954,4.2755,0.0,0.0,0.0,4.1096,4.2216,4.3784,4.4168,4.5,4.6133,4.6145,4.7377,4.9531,4.9628,5.0922,5.3161,5.3243,5.3084,5.2745,5.3132,5.321,5.299,5.3819,5.4235,5.4345,5.477,5.4586,5.3735,5.327,5.2315,5.0885,4.9958,4.9665,5.0044,4.9432,4.7822,4.5192,4.6075,4.5353,4.2911,4.3528,4.3098,4.1341,4.114,4.0978,4.074,4.0639,4.1053,4.208,4.2192,4.2443,4.3035,4.3081,4.3614,4.4787,4.5373,4.5193,4.3985,4.4902,4.5579,4.5754,4.5999,4.6258,4.6501,4.7162,4.7699,4.7927,4.9499,5.0518,5.0586,5.2305,5.3675,5.3873,5.4684,5.5193,5.5604,5.5927,5.6446,5.77,5.8463,5.9053,5.9933,5.9253,5.8618,5.891,5.9062,5.9421,6.0018,6.0206,6.0505,6.0837,6.112,6.1283,6.1299,6.1389,6.1449,6.1569,6.1449,6.1509,6.1523,6.1942,6.2301,6.2435,6.2854,6.3303,6.3422,6.3452,6.3961,4.6939,4.5972,4.7768,4.8322,4.7857,4.5896,4.4827,4.4199,4.1942,4.192,4.3531,4.4062,4.5546,4.7702,4.7832,4.8172,4.8675,4.8693,4.961,0.0,5.1603,5.2665,5.4293,5.3856,5.3471,5.3144,5.3141,5.3148,5.3237,5.3865,5.4376,5.468,5.4918,5.4691,5.4083,5.3248,5.2882,5.2907,5.0673,4.8879,4.761,4.6459,4.558,4.5007,4.5146,4.5181,4.5031,4.4719,4.4338,4.4027,4.3561,4.374,4.4608,4.4152,4.4428,4.5482,4.5583,4.5549,4.536,4.533,4.5623,4.6247,4.6864,4.6895,4.6234,4.6312,4.6702,4.742,4.757,4.8114,4.9127,4.9421,4.9951,5.099,5.2278,5.2965,5.2808,5.5217,5.6877,5.6718,5.8479,5.9488,5.9401,5.9743,5.9929,6.0432,6.048,6.0764,6.0897,6.059,6.0315,6.0357,6.0567,6.0811,6.094,6.0954,6.103,6.109,6.1642,6.1942,6.1972,6.2345,6.2644,6.2794,6.2734,6.2764,6.2794,6.2854,6.3183,6.3528,6.3827,6.4036,6.447,6.462,6.48,4.5421,4.5386,4.7097,4.7736,4.7517,4.7166,4.6589,4.5868,4.4783,4.4977,4.6105,4.6318,4.7596,4.9665,4.9681,5.0234,5.1209,5.1209,5.1786,5.2717,5.2928,5.3407,5.4074,5.4177,5.3833,5.3214,5.3682,5.3832,5.3712,5.4457,5.4807,5.4677,5.4268,5.3897,5.3614,5.3009,5.2632,5.2505,5.1425,5.0451,4.9656,4.8337,4.7642,4.76,4.7194,4.7013,4.728,4.7019,4.6728,4.6411,4.615,4.6276,4.6753,4.6537,4.6652,4.7129,4.7179,4.7103,4.6964,4.6949,4.7049,4.7283,4.7564,4.8082,4.8804,4.7877,4.7755,4.8846,4.8994,4.9516,5.0792,5.1531,5.2134,5.2716,5.4588,5.578,5.5923,5.7623,5.906,5.9172,5.9949,6.0667,6.0851,6.1006,6.1269,6.1569,6.1912,6.2165,6.2165,6.2052,6.1669,6.1057,6.1006,6.1255,6.1553,6.1628,6.1792,6.2106,6.2435,6.26,6.2644,6.2944,6.3213,6.3512,6.3572,6.3737,6.3992,6.4111,6.4261,6.4411,6.456,6.474,6.4934,6.5278,6.5518,4.5279,4.6035,4.7711,4.8145,4.7784,4.8735,4.8667,4.7831,4.7923,4.8425,4.9079,4.8592,4.9475,5.1344,5.1483,5.2168,5.316,5.3264,5.3515,5.3858,5.3901,5.3909,5.3909,5.4253,5.3994,5.338,5.4036,5.4194,5.3914,5.4738,5.5006,5.4536,5.3745,5.3313,5.3313,5.2802,5.2397,5.2062,5.2073,5.1936,5.1606,5.0531,4.9966,4.9868,4.9249,4.8925,4.8997,4.8978,4.8777,4.8309,4.8143,4.8109,4.8083,4.7983,4.7908,4.7908,4.7908,4.8048,4.8327,4.8475,4.8716,4.9168,4.9312,5.0069,5.1388,5.0447,4.9858,5.0608,5.0895,5.1491,5.2773,5.3792,5.4573,5.5018,5.7014,5.8339,5.8561,5.9801,6.0783,6.095,6.1066,6.1284,6.1482,6.1553,6.1792,6.2315,6.2794,6.3078,6.3108,6.3108,6.2614,6.1942,6.1553,6.1792,6.2255,6.2315,6.2525,6.3048,6.3227,6.3273,6.3333,6.3393,6.3692,6.4126,6.4246,6.4395,6.4859,6.4964,6.5024,6.5144,6.5248,6.5293,6.5547,6.5906,6.6131,5.0553,5.1045,5.2686,5.2727,5.0997,5.1469,5.1123,5.0353,5.0705,5.1748,5.2682,5.1234,5.1501,5.334,5.3888,5.4162,5.4371,5.4429,5.4429,5.4496,5.4522,5.4522,5.4403,5.4027,5.3741,5.3655,5.3766,5.3598,5.3244,5.4142,5.4647,5.4522,5.3966,5.3613,5.3553,5.2832,5.2548,5.2774,5.2513,5.1929,5.1135,5.0936,5.0581,4.9917,4.9826,4.9692,4.9524,4.9515,4.949,4.943,4.8978,4.8702,4.8652,4.8209,4.7933,4.7964,4.7979,4.841,4.9609,5.0163,5.1191,5.2889,5.3358,5.3963,5.479,5.4723,5.4213,5.3597,5.3706,5.4454,5.5831,5.6586,5.749,5.858,5.9757,6.0413,6.048,6.1535,6.2271,6.199,6.2379,6.2869,6.2764,6.2734,6.2824,6.2764,6.2944,6.3108,6.3108,6.3108,6.3078,6.2898,6.2898,6.2868,6.2958,6.3003,6.3063,6.3183,6.3602,6.3857,6.4006,6.4366,6.4859,6.48,6.4919,6.4979,6.5099,6.5024,6.5293,6.5787,6.5951,6.6071,6.6625,6.6789,6.664,4.9564,4.9726,5.1485,5.2288,5.2315,5.2495,5.2323,5.1988,5.2167,5.2615,5.3084,5.2332,5.2643,5.3708,5.3632,5.3758,5.4077,5.4421,5.4597,5.4622,5.4906,5.473,5.4077,5.3833,5.3708,5.3708,5.3708,5.3801,5.3909,5.4027,5.4077,5.4027,5.349,5.3239,5.3213,5.2875,5.2774,5.2878,5.2757,5.2512,5.2107,5.1596,5.1316,5.1163,5.0672,5.0282,5.0093,5.0076,4.9941,4.9615,4.9364,4.928,4.928,4.9038,4.9251,4.9986,5.1126,5.1989,5.2524,5.3132,5.3808,5.4622,5.4855,5.5405,5.6408,5.654,5.6591,5.6855,5.6448,5.6678,5.7951,5.9181,6.0028,6.0458,6.1527,6.2218,6.1844,6.2417,6.2814,6.272,6.2928,6.3108,6.3108,6.3108,6.2928,6.2704,6.2824,6.3138,6.3108,6.3108,6.3108,6.3108,6.3108,6.3108,6.3138,6.3422,6.3572,6.3752,6.4186,6.459,6.465,6.477,6.5084,6.5488,6.5577,6.5787,6.6221,6.6191,6.6311,6.6565,6.6595,6.6715,6.6954,6.6999,6.6849,4.9563,4.9742,5.0769,5.1869,5.2878,5.2895,5.2895,5.2895,5.2895,5.2895,5.2895,5.2895,5.3113,5.3406,5.3063,5.3113,5.3507,5.3934,5.4228,5.4378,5.478,5.4579,5.3984,5.3951,5.3951,5.3976,5.411,5.4403,5.4705,5.4253,5.3858,5.3658,5.3314,5.3046,5.2895,5.2895,5.2895,5.2895,5.2895,5.2895,5.281,5.2288,5.2013,5.2025,5.1447,5.0955,5.0662,5.0628,5.0393,4.9841,4.9816,4.9816,4.9816,5.0187,5.1036,5.2474,5.3874,5.4842,5.5136,5.5651,5.6151,5.6639,5.6713,5.7195,5.8079,5.8362,5.8825,5.9609,5.9034,5.8931,5.9611,6.0881,6.1453,6.1336,6.2558,6.3104,6.2775,6.2978,6.3108,6.3108,6.3078,6.3108,6.3138,6.3257,6.3243,6.2914,6.3079,6.3333,6.3317,6.3257,6.3108,6.3108,6.3108,6.3108,6.3138,6.3572,6.3917,6.4216,6.4635,6.5278,6.5323,6.5398,6.5607,6.6221,6.6251,6.634,6.661,6.6849,6.6954,6.6969,6.6969,6.6984,6.6999,6.6999,6.6999,5.2723,5.2629,5.2757,5.2749,5.2895,5.2895,5.2895,5.2895,5.2895,5.2895,5.2895,5.292,5.292,5.2995,5.3013,5.292,5.297,5.3113,5.3432,5.3851,5.3909,5.4102,5.4547,5.4572,5.4572,5.4579,5.4956,5.5214,5.5282,5.4823,5.4278,5.3733,5.3658,5.3389,5.2995,5.292,5.2895,5.2895,5.2895,5.2895,5.2895,5.2828,5.2577,5.2184,5.2042,5.1766,5.1339,5.1264,5.0987,5.0402,5.0377,5.0368,5.0499,5.1711,5.3276,5.4905,5.5364,5.5964,5.6986,5.7279,5.7998,5.9499,5.9674,6.0157,6.056,6.0678,6.0859,6.1393,6.1187,6.1027,6.0779,6.1409,6.1954,6.2336,6.2571,6.2879,6.3065,6.3064,6.3108,6.3108,6.3153,6.3168,6.3123,6.3632,6.3797,6.3737,6.3871,6.3871,6.3707,6.3393,6.3168,6.3108,6.3108,6.3108,6.3168,6.3782,6.4066,6.4366,6.5144,6.5936,6.6191,6.64,6.667,6.6849,6.6789,6.6819,6.6939,6.6999,6.6969,6.6999,6.6999,6.6999,6.6999,6.6999,6.6999,5.3213,5.2895,5.2895,5.2895,5.2895,5.2895,5.2895,5.2895,5.2895,5.2895,5.297,5.3264,5.3414,5.3432,5.3808,5.3783,5.3464,5.3808,5.4102,5.4303,5.4629,5.473,5.4597,5.4597,5.4798,5.5107,5.529,5.539,5.5408,5.5182,5.483,5.4278,5.3884,5.3565,5.3389,5.3063,5.2895,5.2895,5.2895,5.2895,5.2895,5.2895,5.2812,5.2619,5.2594,5.236,5.1825,5.18,5.1548,5.0996,5.0971,5.1375,5.2369,5.436,5.5835,5.6632,5.7798,5.8658,5.9132,5.9595,6.0061,6.0697,6.0845,6.0918,6.118,6.1344,6.1494,6.1628,6.1821,6.1851,6.2086,6.2514,6.278,6.2675,6.3117,6.3337,6.3184,6.3108,6.3108,6.3168,6.3393,6.3542,6.3333,6.3632,6.3842,6.3482,6.3422,6.3482,6.3422,6.3227,6.3108,6.3108,6.3108,6.3108,6.3108,6.4036,6.471,6.5039,6.5607,6.6281,6.6685,6.664,6.6835,6.6909,6.6969,6.6999,6.6999,6.7104,6.7104,6.7104,6.7104,6.7148,6.6999,6.7029,6.7029,5.3801,5.3464,5.3457,5.3457,5.3457,5.3439,5.3439,5.3439,5.3457,5.3457,5.3532,5.3833,5.4002,5.4052,5.4421,5.4504,5.426,5.4522,5.4697,5.4881,5.5232,5.5282,5.5157,5.5107,5.5308,5.5616,5.5666,5.5659,5.5641,5.5666,5.5383,5.4856,5.4429,5.4034,5.369,5.3339,5.3113,5.2945,5.2895,5.2895,5.2895,5.2895,5.2895,5.2895,5.2895,5.2737,5.2377,5.2377,5.2329,5.2216,5.2198,5.3045,5.4867,5.6781,5.8099,5.8624,5.976,6.0526,6.0555,6.0961,6.1164,6.1193,6.1208,6.1223,6.1314,6.1494,6.1775,6.2145,6.2204,6.244,6.294,6.3266,6.3251,6.2894,6.3337,6.3542,6.3153,6.3108,6.3197,6.3422,6.3707,6.3752,6.3542,6.3782,6.3767,6.3422,6.3393,6.3393,6.3393,6.3213,6.3108,6.3108,6.3108,6.3108,6.3197,6.3857,6.4366,6.4725,6.5278,6.6131,6.6745,6.6745,6.6849,6.6939,6.7029,6.6999,6.7059,6.7194,6.7299,6.7329,6.7403,6.7523,6.7343,6.7119,6.7089,5.4572,5.4522,5.4597,5.4496,5.4446,5.4446,5.4547,5.4471,5.4496,5.4421,5.4396,5.4572,5.4597,5.4622,5.4748,5.4931,5.5207,5.4931,5.5024,5.5408,5.5458,5.5717,5.6043,5.6043,5.6043,5.6118,5.615,5.6168,5.6143,5.6118,5.5867,5.5509,5.529,5.4755,5.3783,5.3708,5.3414,5.3046,5.2945,5.2895,5.2895,5.2895,5.2895,5.2895,5.2895,5.2939,5.2982,5.2982,5.3309,5.3914,5.4089,5.5452,5.7601,5.8764,5.9683,6.0644,6.112,6.1149,6.1135,6.1164,6.1208,6.1253,6.1223,6.1344,6.1569,6.1687,6.2189,6.3061,6.2942,6.2939,6.3605,6.3439,6.314,6.3093,6.3183,6.3168,6.3138,6.3108,6.3303,6.3752,6.3947,6.4006,6.3977,6.3977,6.3947,6.3917,6.3812,6.3737,6.3647,6.3363,6.3138,6.3108,6.3108,6.3108,6.3317,6.3572,6.3842,6.4156,6.477,6.5488,6.6101,6.6311,6.6759,6.6969,6.7567,6.7597,6.7687,6.7822,6.7942,6.8002,6.8002,6.7972,6.7882,6.7687,6.7254,5.4597,5.4597,5.4597,5.4597,5.4597,5.4597,5.4597,5.4597,5.4597,5.4597,5.4672,5.4981,5.5132,5.5232,5.5534,5.581,5.5942,5.5767,5.5792,5.5899,5.5942,5.6018,5.6168,5.6219,5.6219,5.6219,5.6219,5.6219,5.6219,5.6219,5.6075,5.5917,5.5566,5.5257,5.478,5.411,5.3565,5.3457,5.3088,5.2895,5.2895,5.2895,5.2895,5.2895,5.2895,5.3299,5.4249,5.4359,5.4491,5.4773,5.5601,5.6943,5.8622,5.9944,6.0727,6.1118,6.1193,6.1193,6.1193,6.1208,6.1298,6.1434,6.1479,6.1628,6.191,6.219,6.2706,6.3476,6.3235,6.3246,6.3723,6.3452,6.3138,6.3108,6.3108,6.3108,6.3108,6.3138,6.3197,6.3363,6.3737,6.3977,6.4006,6.4006,6.3947,6.3917,6.3662,6.3422,6.3377,6.3287,6.3108,6.3108,6.3108,6.3168,6.3393,6.3572,6.3767,6.4066,6.456,6.5174,6.5697,6.6251,6.667,6.7328,6.7897,6.8166,6.8286,6.8465,6.863,6.869,6.869,6.863,6.8571,6.8151,6.7553,5.5182,5.5182,5.5182,5.5182,5.5182,5.5182,5.5182,5.5207,5.5182,5.5207,5.5282,5.5541,5.5691,5.5767,5.6068,5.6194,5.6273,5.674,5.674,5.6273,5.6219,5.6219,5.6219,5.6219,5.6219,5.6219,5.6219,5.6219,5.6219,5.6219,5.6219,5.6118,5.5867,5.5458,5.5107,5.4429,5.3884,5.3439,5.3063,5.2895,5.2895,5.2895,5.3127,5.3563,5.3691,5.4401,5.5614,5.6205,5.6531,5.6758,5.7834,5.8996,5.9891,6.0727,6.1193,6.1193,6.1193,6.1193,6.1208,6.1284,6.152,6.1861,6.2069,6.2439,6.2898,6.3254,6.3595,6.3966,6.371,6.3588,6.3827,6.3452,6.3138,6.3108,6.3108,6.3108,6.3138,6.3303,6.3452,6.3572,6.3812,6.3947,6.4006,6.3752,6.3692,6.3602,6.3333,6.3108,6.3108,6.3108,6.3108,6.3108,6.3108,6.3227,6.3422,6.3588,6.3767,6.4082,6.45,6.5129,6.5697,6.634,6.6864,6.7867,6.8585,6.8615,6.8704,6.9123,6.9379,6.9379,6.9273,6.9153,6.896,6.8181,6.7643,5.6194,5.6219,5.6194,5.6118,5.6118,5.6118,5.6068,5.6143,5.6143,5.6093,5.6143,5.6118,5.6168,5.6194,5.6194,5.6219,5.6449,5.7608,5.741,5.6558,5.6376,5.6467,5.6237,5.6219,5.6219,5.6219,5.6219,5.6303,5.6576,5.6328,5.6292,5.6485,5.6264,5.5691,5.4931,5.4665,5.4052,5.3213,5.2988,5.2895,5.2929,5.3101,5.3615,5.4837,5.5044,5.5729,5.7038,5.8392,5.9202,5.9395,6.0283,6.0846,6.1176,6.1222,6.1193,6.1193,6.1222,6.1339,6.1341,6.1665,6.2096,6.2729,6.3028,6.3564,6.4263,6.4397,6.4487,6.477,6.4366,6.4036,6.3947,6.3677,6.3363,6.3183,6.3153,6.3138,6.3287,6.3707,6.3887,6.4036,6.4066,6.4036,6.4036,6.3572,6.3333,6.3168,6.3123,6.3108,6.3108,6.3108,6.3108,6.3138,6.3197,6.3452,6.3677,6.4082,6.4291,6.477,6.5009,6.5368,6.6056,6.6729,6.7553,6.8525,6.9123,6.9123,6.9303,6.9782,6.9917,6.9768,6.9678,6.9588,6.9049,6.8211,6.7778,5.6219,5.6219,5.6219,5.6219,5.6219,5.6219,5.6219,5.6219,5.6219,5.6219,5.6219,5.6219,5.6219,5.6237,5.6237,5.6219,5.6667,5.7804,5.7608,5.6558,5.7374,5.7112,5.6394,5.6219,5.6219,5.6219,5.6321,5.6776,5.7661,5.6903,5.6877,5.7751,5.6812,5.594,5.5257,5.4834,5.4245,5.3532,5.3088,5.2955,5.3118,5.398,5.4586,5.4961,5.6002,5.7145,5.8554,6.0334,6.1284,6.1286,6.117,6.1425,6.1774,6.1499,6.1309,6.1338,6.1629,6.1982,6.2221,6.2511,6.3105,6.3918,6.3887,6.4142,6.4815,6.4905,6.492,6.4964,6.4785,6.453,6.4216,6.4261,6.4171,6.3797,6.3422,6.3482,6.4111,6.4201,6.4186,6.462,6.471,6.447,6.4156,6.3857,6.3572,6.3257,6.3138,6.3168,6.3197,6.3227,6.3287,6.3333,6.3422,6.3707,6.4036,6.447,6.4949,6.5488,6.5742,6.5832,6.664,6.7508,6.8511,6.9558,6.9798,6.9858,7.0171,7.056,7.0426,6.9947,6.9917,6.9738,6.8914,6.8136,6.7792,5.6401,5.6219,5.6219,5.6219,5.6219,5.6219,5.6219,5.6219,5.6219,5.6219,5.6219,5.6219,5.6219,5.6273,5.6848,5.713,5.732,5.8648,5.8489,5.7346,5.7303,5.6913,5.6321,5.6219,5.6219,5.6285,5.6823,5.7762,5.8617,5.8229,5.8744,5.9228,5.7979,5.6859,5.6341,5.5357,5.4504,5.3858,5.36,5.3657,5.3853,5.4785,5.6117,5.6874,5.7983,5.9022,6.0691,6.1912,6.2499,6.2441,6.2209,6.2166,6.2428,6.2209,6.1992,6.2006,6.2341,6.2653,6.2986,6.3337,6.389,6.4554,6.4673,6.5048,6.5469,6.5605,6.562,6.5458,6.5413,6.5069,6.459,6.456,6.453,6.4381,6.3857,6.3812,6.453,6.447,6.459,6.4874,6.4964,6.4904,6.4441,6.4216,6.3857,6.3542,6.3257,6.3333,6.3452,6.3452,6.3572,6.3797,6.4066,6.4441,6.4814,6.5218,6.5682,6.6221,6.6729,6.6729,6.7448,6.8345,6.9019,6.9887,7.0277,7.0486,7.038,7.032,7.0097,6.9798,6.9887,6.9498,6.866,6.8046,6.7732,5.6684,5.6219,5.6219,5.6219,5.6219,5.6219,5.6219,5.6219,5.6219,5.6219,5.6219,5.6219,5.6394,5.6503,5.7697,5.8356,5.84,5.9689,5.9602,5.8453,5.7418,5.6485,5.7159,5.6412,5.6449,5.674,5.7858,5.8902,5.9704,6.0335,6.0874,6.0916,5.9562,5.8271,5.7459,5.6449,5.5294,5.4618,5.507,5.5443,5.5737,5.6471,5.7818,5.9403,6.018,6.1197,6.2472,6.3196,6.3225,6.3328,6.3212,6.3051,6.3109,6.3138,6.3037,6.3037,6.3082,6.3367,6.369,6.4067,6.4486,6.5097,6.54,6.5791,6.6193,6.633,6.6199,6.5891,6.6071,6.5832,6.5398,6.471,6.468,6.4949,6.4605,6.4366,6.4306,6.474,6.5129,6.5203,6.5233,6.5203,6.4964,6.4635,6.4186,6.3857,6.3662,6.3797,6.3902,6.4006,6.4261,6.462,6.4934,6.5263,6.5637,6.5996,6.646,6.6984,6.7643,6.8002,6.86,6.9259,6.9588,6.9977,7.0097,6.9842,6.9453,6.9393,6.9439,6.9289,6.9109,6.8736,6.8227,6.7822,6.7493,5.6684,5.6219,5.6219,5.6219,5.6219,5.6219,5.6219,5.6219,5.6219,5.6255,5.6255,5.6255,5.6913,5.7947,5.8418,5.8427,5.8841,6.0052,6.0345,5.9879,5.7328,5.7786,5.8542,5.7518,5.6968,5.7768,5.8205,5.9699,6.1319,6.1312,6.1305,6.2208,6.1019,5.9318,5.8017,5.844,5.7915,5.6701,5.7299,5.7828,5.8145,5.9062,5.9998,6.099,6.1882,6.2822,6.3564,6.3803,6.4051,6.4212,6.3734,6.3428,6.3645,6.3428,6.3254,6.3341,6.3632,6.4069,6.4549,6.4749,6.5173,6.5827,6.5641,6.5784,6.6415,6.649,6.6317,6.619,6.646,6.658,6.64,6.5906,6.5607,6.5682,6.5922,6.5951,6.5712,6.5682,6.5966,6.634,6.646,6.637,6.5877,6.5637,6.5084,6.4336,6.4186,6.4321,6.4441,6.459,6.4949,6.5368,6.5637,6.5906,6.6056,6.643,6.6879,6.7433,6.8122,6.863,6.9259,6.9648,6.9798,6.9768,6.9738,6.9333,6.8704,6.8854,6.899,6.866,6.8331,6.8062,6.7778,6.7479,6.7343,5.6702,5.6219,5.6219,5.6219,5.6219,5.6219,5.6219,5.6219,5.6219,5.6613,5.7148,5.7238,5.8046,5.9445,6.0139,6.049,6.0593,6.1172,6.1233,6.0465,5.8929,5.9201,5.9983,5.9253,5.8771,5.9497,6.0232,6.1648,6.2649,6.297,6.3317,6.396,6.251,6.1299,6.0015,6.0155,5.9409,5.8652,5.9146,5.9744,6.0059,6.0824,6.1864,6.2409,6.3415,6.4183,6.4444,6.4487,6.4648,6.4735,6.4373,6.4096,6.4342,6.4183,6.4009,6.4067,6.4241,6.4585,6.4915,6.5036,6.5212,6.5753,6.5429,6.5727,6.6061,6.6273,6.6402,6.6487,6.6759,6.6969,6.6939,6.64,6.6071,6.6041,6.6311,6.637,6.6161,6.6281,6.655,6.6909,6.6909,6.6759,6.655,6.6265,6.5906,6.5144,6.468,6.4829,6.5278,6.5428,6.5697,6.6056,6.6311,6.649,6.655,6.6789,6.7178,6.7762,6.8391,6.878,6.9169,6.9498,6.9768,6.9528,6.9199,6.8541,6.8062,6.8301,6.8361,6.7942,6.7643,6.7463,6.7343,6.7224,6.7148,5.6684,5.6219,5.6219,5.6219,5.6219,5.6219,5.6219,5.6219,5.6219,5.6776,5.7947,5.8241,5.9017,6.0585,6.1991,6.2691,6.2625,6.2209,6.1504,6.1131,6.0465,6.0825,6.1294,6.1302,6.1166,6.1362,6.1991,6.3054,6.3914,6.4609,6.4704,6.5257,6.4099,6.2778,6.2431,6.1947,6.1094,6.0491,6.1108,6.1608,6.1771,6.2272,6.3035,6.3861,6.4436,6.4809,6.4896,6.4909,6.4983,6.5012,6.5012,6.5012,6.5012,6.5012,6.5012,6.4954,6.4827,6.4841,6.4894,6.4854,6.4764,6.4842,6.4851,6.5178,6.5636,6.5997,6.6352,6.6723,6.6999,6.6999,6.6939,6.658,6.6265,6.6206,6.6191,6.6161,6.6251,6.667,6.6909,6.6969,6.6999,6.6879,6.6759,6.655,6.6281,6.5981,6.5547,6.5368,6.5787,6.6161,6.637,6.649,6.667,6.6729,6.6789,6.7164,6.7553,6.8032,6.869,6.9049,6.9199,6.9049,6.9139,6.887,6.8451,6.7882,6.7553,6.7673,6.7553,6.7164,6.7164,6.7254,6.7164,6.7029,6.6999,5.6702,5.6219,5.6219,5.6219,5.6219,5.6219,5.6219,5.6219,5.6292,5.634,5.6859,5.7947,5.9463,6.0842,6.2175,6.279,6.2773,6.2242,6.1891,6.2075,6.1622,6.1851,6.3446,6.325,6.3428,6.3769,6.3619,6.3622,6.4485,6.4974,6.5083,6.5048,6.4737,6.407,6.3492,6.3508,6.3255,6.2499,6.3194,6.3812,6.3951,6.4096,6.4259,6.4735,6.4925,6.4983,6.5012,6.5012,6.5012,6.5012,6.5012,6.5012,6.5012,6.5012,6.4983,6.4917,6.4755,6.4703,6.4706,6.4245,6.4068,6.4158,6.425,6.4556,6.5159,6.5714,6.6246,6.6679,6.6909,6.6939,6.6984,6.67,6.6789,6.6789,6.6759,6.6759,6.6789,6.6879,6.6999,6.6999,6.6999,6.6999,6.6879,6.6759,6.658,6.643,6.6281,6.5966,6.6101,6.646,6.6789,6.6849,6.6909,6.6939,6.6969,6.7463,6.7912,6.8315,6.8884,6.9468,6.9409,6.872,6.8421,6.8511,6.8211,6.7703,6.7433,6.7254,6.7164,6.7059,6.7104,6.7164,6.7059,6.6999,6.6999,5.6426,5.6219,5.6219,5.6219,5.6219,5.6219,5.6219,5.6321,5.7004,5.7786,5.8727,6.0052,6.1504,6.2769,6.3537,6.3928,6.3651,6.3312,6.3312,6.3651,6.3357,6.3422,6.4948,6.4556,6.4681,6.4721,6.4296,6.4199,6.4919,6.4996,6.5012,6.5012,6.5012,6.4615,6.4216,6.4506,6.457,6.4199,6.4615,6.5012,6.5012,6.5012,6.5012,6.5012,6.5012,6.5012,6.5012,6.5012,6.5012,6.5012,6.5012,6.5012,6.5012,6.4999,6.4917,6.474,6.4546,6.4282,6.4088,6.3541,6.3555,6.3771,6.383,6.4406,6.5218,6.5848,6.6157,6.6366,6.649,6.649,6.646,6.649,6.664,6.6909,6.6999,6.6999,6.6999,6.6999,6.6999,6.6999,6.6999,6.6999,6.6999,6.6879,6.6789,6.6819,6.6849,6.67,6.646,6.667,6.6999,6.6999,6.6999,6.6999,6.7029,6.7433,6.7928,6.8421,6.8854,6.9439,6.9528,6.881,6.866,6.872,6.8241,6.7463,6.7284,6.7089,6.7029,6.6999,6.7029,6.7059,6.7029,6.6999,6.6999,5.6219,5.6219,5.6219,5.6219,5.6219,5.6219,5.6412,5.6866,5.7876,5.914,6.0688,6.2042,6.3279,6.4329,6.4759,6.4964,6.5012,6.4871,6.4823,6.4791,6.4759,6.4919,6.498,6.5112,6.5138,6.4945,6.5132,6.5112,6.4996,6.5012,6.5012,6.5012,6.5012,6.5012,6.4964,6.4903,6.5012,6.5012,6.5012,6.5012,6.5012,6.5012,6.5012,6.5012,6.5012,6.5012,6.5012,6.4793,6.4851,6.488,6.4851,6.4822,6.4983,6.5012,6.4777,6.4402,6.4318,6.3887,6.3481,6.3057,6.317,6.359,6.372,6.4534,6.5312,6.5781,6.6014,6.5995,6.5817,6.5832,6.5817,6.5936,6.6251,6.661,6.6879,6.6999,6.6999,6.6999,6.6999,6.6999,6.6999,6.6999,6.6999,6.6969,6.6879,6.6879,6.6939,6.6939,6.6729,6.6789,6.6999,6.6999,6.6999,6.6999,6.7089,6.7313,6.7732,6.8137,6.8481,6.89,6.9019,6.89,6.875,6.8451,6.7822,6.7164,6.7029,6.6999,6.6999,6.6999,6.6999,6.6999,6.6999,6.6999,6.6999,5.6219,5.6219,5.6219,5.6219,5.6219,5.6219,5.6968,5.8046,5.8365,5.9218,6.0893,6.2159,6.3082,6.3525,6.4599,6.4964,6.5012,6.5012,6.5012,6.5012,6.5012,6.5012,6.5099,6.5589,6.5315,6.5112,6.5444,6.5444,6.5112,6.5012,6.5012,6.5012,6.5012,6.5012,6.5012,6.5012,6.5012,6.5012,6.5012,6.5012,6.5012,6.5012,6.5012,6.5012,6.5012,6.5012,6.4954,6.4648,6.4532,6.488,6.4458,6.4458,6.4867,6.5012,6.4488,6.4005,6.3704,6.3661,6.34,6.2991,6.3034,6.357,6.4024,6.4592,6.5317,6.5763,6.5979,6.5966,6.5488,6.5159,6.5218,6.5637,6.5936,6.634,6.67,6.6909,6.6999,6.6999,6.6999,6.6999,6.6999,6.6999,6.6999,6.6999,6.6969,6.6999,6.6999,6.6999,6.6999,6.6999,6.6999,6.6999,6.6999,6.6999,6.7029,6.7254,6.7433,6.7838,6.8167,6.8421,6.8541,6.8541,6.8151,6.7762,6.7284,6.7164,6.7208,6.7178,6.7059,6.6999,6.6999,6.6999,6.6999,6.6999,6.6999,5.6219,5.6219,5.6219,5.6219,5.6219,5.6219,5.704,5.8365,5.9306,6.0483,6.1941,6.3378,6.407,6.4183,6.4807,6.4996,6.5012,6.5012,6.5012,6.5012,6.5012,6.5012,6.5041,6.5257,6.517,6.517,6.5228,6.5228,6.5041,6.5012,6.5012,6.5012,6.5012,6.5012,6.5012,6.5012,6.5012,6.5012,6.5012,6.5012,6.5012,6.5012,6.5012,6.5012,6.5012,6.5012,6.4925,6.4793,6.4677,6.4954,6.4648,6.4677,6.4925,6.4925,6.451,6.3454,6.3326,6.3228,6.3001,6.2753,6.3115,6.3681,6.4299,6.4874,6.5575,6.5872,6.5787,6.5428,6.4829,6.45,6.456,6.5039,6.5547,6.6011,6.655,6.6849,6.6999,6.6999,6.6999,6.6999,6.6999,6.6999,6.6999,6.6999,6.6999,6.6999,6.6999,6.6999,6.6999,6.6999,6.6999,6.6999,6.6999,6.6999,6.7029,6.7134,6.7119,6.7433,6.7898,6.8092,6.8181,6.8062,6.7732,6.7732,6.7688,6.7583,6.7493,6.7298,6.7148,6.7059,6.6999,6.6999,6.6999,6.6999,6.6999,5.6219,5.6219,5.6219,5.6219,5.6273,5.6576,5.7382,5.8542,6.0353,6.1756,6.2922,6.4248,6.4964,6.5012,6.498,6.5012,6.5012,6.5012,6.5012,6.5012,6.5012,6.5012,6.5012,6.5041,6.5041,6.5012,6.507,6.5041,6.5041,6.5012,6.5012,6.5012,6.5012,6.5012,6.5012,6.5012,6.5012,6.5012,6.5012,6.5012,6.5012,6.5012,6.5012,6.5012,6.5012,6.5012,6.4983,6.4735,6.4706,6.4954,6.4706,6.4677,6.4954,6.4954,6.4518,6.3708,6.346,6.3363,6.3152,6.3024,6.3283,6.3898,6.4599,6.5228,6.5986,6.6084,6.5547,6.4829,6.4425,6.4036,6.3977,6.45,6.5159,6.5817,6.643,6.6759,6.6999,6.6999,6.6999,6.6999,6.6999,6.6999,6.6999,6.6999,6.6999,6.6999,6.6999,6.6999,6.6999,6.6999,6.6999,6.6999,6.6999,6.6999,6.6999,6.7029,6.6999,6.7089,6.7523,6.7703,6.7732,6.7703,6.7523,6.7658,6.7838,6.7838,6.7613,6.7433,6.7238,6.7298,6.7298,6.7059,6.6999,6.6999,6.6999,5.6219,5.6219,5.6237,5.6255,5.631,5.7679,5.8241,5.8824,6.1358,6.2542,6.3181,6.428,6.5012,6.5012,6.5012,6.5012,6.5012,6.5012,6.5012,6.5012,6.5012,6.5012,6.5012,6.5012,6.5012,6.5012,6.5012,6.5012,6.5012,6.5012,6.5012,6.5012,6.5012,6.5012,6.5012,6.5012,6.5012,6.5012,6.5012,6.5012,6.5012,6.5012,6.5012,6.5012,6.5012,6.5012,6.4983,6.4545,6.4487,6.4954,6.4603,6.4545,6.4925,6.5012,6.4532,6.3993,6.3774,6.3734,6.3622,6.332,6.3559,6.4306,6.5004,6.5508,6.6039,6.5996,6.5338,6.447,6.4276,6.3901,6.3901,6.4186,6.5159,6.5667,6.634,6.6789,6.6999,6.6999,6.6999,6.6999,6.6999,6.6999,6.6999,6.6999,6.6999,6.6999,6.6999,6.6999,6.6999,6.6999,6.6999,6.6999,6.6999,6.6999,6.6999,6.6999,6.6999,6.6999,6.7208,6.7238,6.7178,6.7148,6.7284,6.7343,6.7479,6.7628,6.7808,6.7732,6.7673,6.7703,6.7613,6.7328,6.7059,6.6999,6.6999,5.6219,5.6285,5.7166,5.7022,5.6237,5.6812,5.8107,5.9741,6.0978,6.2558,6.4151,6.4743,6.5012,6.5012,6.5012,6.5012,6.5012,6.5012,6.5012,6.5012,6.5012,6.5012,6.5012,6.5012,6.5012,6.5012,6.5012,6.5012,6.5012,6.5012,6.5012,6.5012,6.4983,6.5012,6.5012,6.5012,6.5012,6.5012,6.5012,6.5012,6.5012,6.5012,6.5012,6.5012,6.5012,6.5012,6.4983,6.4764,6.4822,6.4851,6.469,6.4793,6.4925,6.4983,6.4677,6.4167,6.4094,6.4065,6.3964,6.3547,6.3502,6.4186,6.4984,6.5618,6.5816,6.5338,6.5263,6.4814,6.4395,6.3931,6.4441,6.5039,6.5727,6.5877,6.6176,6.667,6.6909,6.6849,6.6969,6.6969,6.6969,6.6999,6.6999,6.6999,6.6999,6.6999,6.6999,6.6999,6.6999,6.6999,6.6999,6.6999,6.6999,6.6999,6.6999,6.6999,6.6999,6.6999,6.6999,6.6999,6.6999,6.6999,6.7089,6.7134,6.7403,6.7882,6.8122,6.8107,6.8077,6.8032,6.7852,6.7553,6.7298,6.7029,6.6999,5.6701,5.7179,5.8034,5.7822,5.7004,5.7804,5.9043,6.0534,6.1655,6.2917,6.4996,6.5012,6.5012,6.5012,6.5012,6.5012,6.5012,6.5012,6.5012,6.5012,6.5012,6.5012,6.5012,6.5012,6.5012,6.5012,6.5012,6.5012,6.5012,6.5012,6.4822,6.4764,6.488,6.4983,6.5012,6.5012,6.5012,6.5012,6.5012,6.5012,6.5012,6.5012,6.5012,6.5012,6.5012,6.5012,6.5012,6.4925,6.4954,6.4983,6.4954,6.4983,6.5012,6.4954,6.4735,6.4458,6.4284,6.4313,6.4141,6.3823,6.3766,6.4625,6.4945,6.5411,6.5383,6.4949,6.5173,6.4635,6.4246,6.4156,6.4635,6.4784,6.5039,6.5039,6.5607,6.6086,6.643,6.652,6.6759,6.6939,6.6969,6.6999,6.6999,6.6999,6.6999,6.6999,6.6999,6.6999,6.6999,6.6999,6.6999,6.6999,6.6999,6.6999,6.6999,6.6999,6.6999,6.6999,6.6999,6.6999,6.6999,6.6999,6.6999,6.7074,6.7493,6.8211,6.8481,6.8541,6.8451,6.8331,6.7942,6.7373,6.7238,6.6999,6.6999,5.7775,5.9041,5.8636,5.8453,5.8789,6.1375,6.1773,6.125,6.3422,6.4695,6.4996,6.5012,6.5012,6.5012,6.5012,6.5012,6.5012,6.5012,6.5012,6.5012,6.5012,6.5012,6.5012,6.5012,6.5012,6.5012,6.488,6.4822,6.4896,6.4693,6.4444,6.4342,6.4532,6.4909,6.4983,6.4983,6.4983,6.5012,6.4983,6.4925,6.5012,6.5012,6.5012,6.5012,6.5012,6.5012,6.5012,6.5012,6.5012,6.5012,6.5012,6.5012,6.5012,6.5012,6.4954,6.488,6.488,6.4896,6.4901,6.4325,6.452,6.4988,6.5082,6.5144,6.5218,6.5188,6.5084,6.4366,6.3917,6.3752,6.3752,6.3842,6.4276,6.462,6.5188,6.5518,6.5847,6.6251,6.649,6.67,6.6879,6.6999,6.6999,6.6999,6.6999,6.6999,6.6999,6.6999,6.6999,6.6999,6.6999,6.6999,6.6999,6.6999,6.6999,6.6999,6.6999,6.6999,6.6999,6.6999,6.6999,6.6999,6.6999,6.7074,6.7583,6.8241,6.869,6.8974,6.872,6.8361,6.7583,6.7104,6.6999,6.6999,6.6999,5.7863,5.9228,5.9667,6.0421,6.1239,6.1267,6.1554,6.2342,6.4054,6.5012,6.5012,6.5012,6.5012,6.5012,6.5012,6.5012,6.5012,6.5012,6.5012,6.5012,6.5012,6.5012,6.5012,6.5012,6.4983,6.4851,6.4677,6.44,6.4297,6.4096,6.3763,6.3603,6.4109,6.4545,6.4735,6.4706,6.4502,6.4793,6.4677,6.4487,6.4925,6.4983,6.5012,6.5012,6.5012,6.5012,6.5012,6.5012,6.5012,6.5012,6.5012,6.5012,6.5012,6.5012,6.5012,6.5012,6.4999,6.5018,6.5056,6.486,6.4883,6.5051,6.5069,6.5084,6.5054,6.4306,6.4126,6.4156,6.3887,6.3977,6.4441,6.453,6.4785,6.4815,6.5114,6.5144,6.5398,6.5862,6.6191,6.64,6.6565,6.6849,6.6969,6.6999,6.6999,6.6999,6.6999,6.6999,6.6999,6.6999,6.6999,6.6999,6.6999,6.6999,6.6999,6.6999,6.6999,6.6999,6.6999,6.6999,6.6999,6.6999,6.7284,6.7463,6.7852,6.8271,6.878,6.9123,6.875,6.8241,6.7463,6.7029,6.6999,6.6999,6.6999,5.9121,6.0719,6.119,6.2209,6.3279,6.2536,6.2735,6.3667,6.4599,6.5012,6.5012,6.5012,6.5012,6.5012,6.5012,6.5012,6.5012,6.5012,6.5012,6.5012,6.5012,6.5012,6.5012,6.4954,6.4793,6.4648,6.4297,6.402,6.4036,6.3413,6.3196,6.3312,6.3687,6.4196,6.44,6.4284,6.421,6.4429,6.4254,6.421,6.4574,6.4793,6.5012,6.5012,6.5012,6.5012,6.5012,6.5012,6.5012,6.5012,6.5012,6.5012,6.5012,6.5012,6.5012,6.5012,6.5129,6.5286,6.5553,6.5696,6.5719,6.5694,6.5457,6.5233,6.4994,6.447,6.4126,6.4036,6.3977,6.4036,6.4291,6.4456,6.4516,6.4516,6.4456,6.447,6.477,6.5203,6.5622,6.5847,6.6265,6.661,6.6999,6.6969,6.6999,6.6999,6.6999,6.6999,6.6999,6.6999,6.6999,6.6999,6.6999,6.6999,6.6999,6.6999,6.6999,6.6999,6.6999,6.6999,6.6999,6.6999,6.7433,6.7882,6.8301,6.8675,6.9093,6.9183,6.8704,6.8092,6.7343,6.7074,6.6999,6.6999,6.6999,6.1476,6.3376,6.301,6.3557,6.4791,6.4679,6.4836,6.4964,6.498,6.5012,6.5012,6.5012,6.5012,6.5012,6.5012,6.5012,6.5012,6.5012,6.5012,6.5012,6.5012,6.5012,6.4983,6.488,6.4677,6.4284,6.3949,6.3832,6.3891,6.3399,6.3125,6.3225,6.3687,6.4036,6.4094,6.3949,6.4036,6.4225,6.3819,6.3949,6.4371,6.4648,6.4851,6.4925,6.5012,6.5012,6.5012,6.5012,6.5012,6.5012,6.5012,6.5012,6.5012,6.5012,6.5012,6.5124,6.5333,6.5825,6.6201,6.6342,6.6527,6.6428,6.6235,6.5727,6.5248,6.4859,6.447,6.4052,6.3827,6.3528,6.3408,6.3528,6.3647,6.3588,6.3498,6.3707,6.4036,6.4441,6.4859,6.5278,6.5847,6.634,6.7044,6.7164,6.7029,6.7208,6.7178,6.6999,6.6999,6.6999,6.6999,6.6999,6.6999,6.6999,6.6999,6.6999,6.6999,6.6999,6.6999,6.6999,6.6999,6.7059,6.7403,6.7882,6.8585,6.9093,6.9453,6.9183,6.8525,6.7897,6.7313,6.7074,6.6999,6.6999,6.6999,6.2331,6.4161,6.3223,6.3667,6.49,6.5012,6.5012,6.5012,6.5012,6.5012,6.5012,6.5012,6.5012,6.5012,6.5012,6.5012,6.5012,6.5012,6.5012,6.4983,6.4925,6.4983,6.4851,6.4632,6.4516,6.4328,6.4038,6.379,6.3803,6.3399,6.3183,6.3212,6.379,6.3978,6.3891,6.3587,6.3993,6.4051,6.3413,6.3587,6.4109,6.44,6.4677,6.4896,6.5012,6.5012,6.5012,6.5012,6.5012,6.5012,6.5012,6.5012,6.5012,6.5028,6.5076,6.5425,6.5851,6.6305,6.6521,6.6737,6.6907,6.6968,6.6759,6.6385,6.5847,6.5308,6.4859,6.4411,6.4141,6.4036,6.4006,6.4036,6.3947,6.3827,6.3767,6.3827,6.4096,6.4111,6.453,6.5069,6.5607,6.658,6.7224,6.7164,6.7059,6.7343,6.7403,6.7119,6.6999,6.6999,6.6999,6.6999,6.6999,6.6999,6.6999,6.6999,6.6999,6.6999,6.6999,6.6999,6.6999,6.7119,6.7373,6.7942,6.869,6.9289,6.9768,6.9229,6.8405,6.7972,6.7449,6.7194,6.6999,6.6999,6.6999,6.3234,6.4605,6.4249,6.4572,6.5219,6.5099,6.5012,6.5012,6.5012,6.5012,6.5012,6.5012,6.5012,6.5012,6.5012,6.5012,6.5012,6.5012,6.5012,6.4954,6.4822,6.4838,6.4677,6.4603,6.4516,6.4415,6.44,6.4342,6.4094,6.3964,6.3792,6.3167,6.3877,6.4094,6.392,6.3558,6.3719,6.3616,6.3384,6.3254,6.3574,6.4109,6.4487,6.4809,6.4954,6.4954,6.4983,6.4983,6.4983,6.5012,6.5012,6.5012,6.506,6.5124,6.5488,6.5851,6.6195,6.6521,6.6722,6.6876,6.6968,6.6999,6.6999,6.6789,6.6355,6.5877,6.5368,6.4919,6.4919,6.4889,6.4889,6.4859,6.468,6.447,6.4381,6.4276,6.4186,6.4036,6.4425,6.4964,6.5802,6.6835,6.7224,6.7089,6.7148,6.7493,6.7463,6.7089,6.6999,6.6999,6.6999,6.6999,6.6999,6.6999,6.6999,6.6999,6.6999,6.6999,6.6999,6.6999,6.6999,6.7089,6.7313,6.8002,6.881,6.9155,6.9259,6.89,6.8271,6.7792,6.7403,6.7148,6.6999,6.6999,6.6999,6.4396,6.5325,6.5764,6.5828,6.5805,6.5344,6.5112,6.507,6.5112,6.5099,6.5112,6.5099,6.5199,6.5402,6.5447,6.5402,6.5447,6.5477,6.5506,6.5128,6.4835,6.4835,6.5054,6.4925,6.4574,6.4645,6.4732,6.4674,6.4516,6.4473,6.4228,6.3399,6.4299,6.4677,6.4196,6.3442,6.3486,6.3745,6.3065,6.2573,6.3109,6.3645,6.4138,6.4619,6.4751,6.4751,6.4867,6.4925,6.497,6.4999,6.506,6.5076,6.5158,6.5459,6.5931,6.6242,6.6506,6.6707,6.6861,6.6968,6.6983,6.6999,6.6999,6.6939,6.664,6.64,6.5936,6.5697,6.5667,6.5667,6.5667,6.6041,6.6041,6.5892,6.5772,6.5473,6.5173,6.4904,6.474,6.5338,6.6161,6.7104,6.7583,6.7523,6.7463,6.7748,6.7493,6.7059,6.6999,6.6999,6.6999,6.6999,6.6999,6.6999,6.6999,6.6999,6.6999,6.6999,6.6999,6.6999,6.6999,6.7089,6.7254,6.7928,6.8556,6.8437,6.8391,6.8211,6.8002,6.7418,6.7119,6.7029,6.6999,6.6999,6.6999,6.6541,6.7161,6.6812,6.6373,6.5938,6.5764,6.5677,6.5677,6.5677,6.5706,6.5677,6.5735,6.5938,6.6261,6.6261,6.6273,6.6319,6.6173,6.6406,6.607,6.5515,6.5125,6.5357,6.4777,6.4545,6.4603,6.4748,6.4964,6.5196,6.517,6.517,6.5096,6.5286,6.4822,6.4619,6.3748,6.3442,6.3891,6.2978,6.2515,6.2935,6.2732,6.2848,6.3386,6.3647,6.398,6.4188,6.4536,6.4748,6.4946,6.5256,6.5364,6.5396,6.5931,6.6288,6.6506,6.6722,6.6876,6.6953,6.6999,6.6999,6.6999,6.6999,6.6999,6.6909,6.6819,6.667,6.652,6.643,6.643,6.661,6.7074,6.7403,6.7284,6.7134,6.667,6.6221,6.5712,6.5278,6.5922,6.6655,6.7194,6.7748,6.7898,6.7898,6.7688,6.7313,6.6999,6.6999,6.6999,6.6999,6.6999,6.6999,6.6999,6.6999,6.6999,6.6999,6.6999,6.6999,6.6999,6.6999,6.7059,6.7194,6.7688,6.8107,6.7987,6.7942,6.8047,6.7703,6.7148,6.6999,6.6999,6.6999,6.6999,6.6999,6.7132,6.7393,6.7044,6.668,6.6389,6.6344,6.6199,6.5996,6.6199,6.6518,6.6692,6.6535,6.658,6.6899,6.6899,6.6957,6.6957,6.687,6.6535,6.6257,6.5967,6.5473,6.5096,6.4777,6.4822,6.4851,6.5009,6.5312,6.5776,6.5677,6.5589,6.5531,6.5141,6.4983,6.4867,6.4067,6.3645,6.3904,6.2978,6.2732,6.2892,6.2616,6.2645,6.3067,6.3183,6.3457,6.39,6.4349,6.4762,6.5173,6.5554,6.5821,6.5947,6.6243,6.6552,6.6722,6.6876,6.6999,6.6999,6.6969,6.6969,6.6969,6.6969,6.6969,6.6999,6.6879,6.6879,6.6759,6.6759,6.6759,6.7358,6.7882,6.8211,6.8241,6.8046,6.7747,6.6909,6.6101,6.6281,6.6984,6.7403,6.7493,6.7792,6.7613,6.7673,6.7838,6.7403,6.7029,6.6999,6.6999,6.6999,6.6999,6.6999,6.6999,6.6999,6.6999,6.6999,6.6999,6.6999,6.6999,6.6999,6.6999,6.7164,6.7463,6.7613,6.7523,6.7523,6.7643,6.7523,6.7104,6.6999,6.6999,6.6999,6.6999,6.6999,6.719,6.7161,6.7161,6.7103,6.7015,6.7015,6.6738,6.6344,6.6767,6.7393,6.7841,6.7422,6.719,6.7115,6.7144,6.7161,6.7161,6.7248,6.6767,6.6286,6.5589,6.5502,6.5344,6.5025,6.5099,6.5199,6.5357,6.5706,6.6112,6.5764,6.5373,6.5112,6.5041,6.5012,6.4793,6.44,6.4036,6.4036,6.3529,6.2964,6.2848,6.2761,6.2819,6.2921,6.3067,6.3326,6.3739,6.4289,6.4755,6.5281,6.5717,6.6132,6.6351,6.6537,6.6692,6.6907,6.6953,6.6999,6.6969,6.6819,6.6879,6.6939,6.6954,6.6894,6.6849,6.6819,6.6819,6.6789,6.6789,6.7478,6.8122,6.863,6.893,6.9123,6.8944,6.8675,6.7657,6.6729,6.7254,6.7928,6.7942,6.7942,6.7732,6.7523,6.7523,6.7673,6.7553,6.7208,6.6999,6.6999,6.6999,6.6999,6.6999,6.6999,6.6999,6.6999,6.6999,6.6999,6.6999,6.6999,6.6999,6.6999,6.6999,6.7029,6.7119,6.7194,6.7164,6.7208,6.7059,6.7014,6.6999,6.6999,6.6999,6.6999,6.6999,6.8434,6.8434,6.8434,6.816,6.7741,6.7683,6.7625,6.7522,6.7625,6.8061,6.8405,6.855,6.8434,6.8405,6.8434,6.8289,6.7928,6.7725,6.7654,6.7422,6.6054,6.5764,6.5502,6.5112,6.5344,6.5444,6.5548,6.5767,6.5983,6.5548,6.5402,6.556,6.5112,6.4983,6.488,6.4516,6.4284,6.4342,6.4196,6.3674,6.3516,6.3196,6.2354,6.2399,6.2573,6.2616,6.2925,6.3856,6.436,6.4958,6.5759,6.6322,6.6583,6.6737,6.6937,6.7102,6.7148,6.7059,6.6999,6.667,6.667,6.6759,6.664,6.6251,6.6206,6.6206,6.6176,6.6071,6.652,6.8092,6.884,6.9349,6.9708,6.9782,6.9752,6.9273,6.8525,6.7942,6.7882,6.8211,6.8361,6.8181,6.7912,6.7703,6.7433,6.7493,6.7268,6.6999,6.6999,6.6999,6.6999,6.6999,6.6999,6.6999,6.6999,6.6999,6.6999,6.6999,6.6999,6.6999,6.6999,6.6999,6.6999,6.6999,6.6999,6.7059,6.6999,6.6999,6.6999,6.6999,6.6999,6.6999,6.6999,6.6999,6.6999]}]]